GEFSMW_prec_meanprecacc_174.txt.gz
Total_Precipitation_Accumulation
0.31 0.30 0.29 0.29 0.28 0.30 0.34 0.41 0.59 0.75 0.90 1.00 1.13 1.38 1.55 1.64 1.63 1.63 1.70 1.62 1.44 1.52 1.64 1.61 1.82 1.89 1.87 1.87 1.81 1.93 1.96 1.69 1.51 1.78 1.77 1.37 1.10 0.98 1.00 1.06 1.09 1.15 1.15
0.22 0.22 0.21 0.22 0.22 0.22 0.26 0.34 0.49 0.73 0.97 1.17 1.34 1.53 1.84 2.00 2.00 2.06 2.01 1.96 1.85 1.87 1.79 1.87 2.08 2.13 2.24 2.33 2.17 2.30 2.38 2.07 1.76 2.14 2.57 2.10 1.68 1.12 0.90 1.00 1.11 1.24 1.27
0.20 0.21 0.21 0.19 0.17 0.18 0.20 0.27 0.40 0.63 0.92 1.22 1.46 1.65 1.88 2.14 2.24 2.15 2.10 2.13 2.21 2.26 2.15 2.11 2.23 2.25 2.32 2.52 2.56 2.51 2.61 2.53 2.20 2.16 2.60 2.48 2.15 1.72 1.16 1.03 1.10 1.25 1.34
0.20 0.19 0.19 0.23 0.20 0.20 0.21 0.25 0.39 0.55 0.76 1.01 1.33 1.58 1.84 2.15 2.22 2.20 2.17 2.21 2.33 2.42 2.38 2.33 2.39 2.40 2.35 2.48 2.57 2.55 2.75 2.93 2.66 2.39 2.17 2.09 2.11 2.11 1.67 1.26 1.17 1.32 1.38
0.22 0.20 0.19 0.22 0.26 0.26 0.26 0.33 0.47 0.61 0.78 0.99 1.31 1.63 1.82 1.99 2.19 2.20 2.12 2.05 2.12 2.14 2.12 2.24 2.39 2.41 2.38 2.39 2.58 2.70 2.87 2.86 2.78 2.64 2.51 2.32 2.12 1.79 1.88 1.74 1.49 1.47 1.35
0.20 0.24 0.27 0.29 0.31 0.36 0.39 0.47 0.59 0.78 0.91 1.00 1.13 1.29 1.50 1.78 1.92 2.02 2.06 2.07 2.07 1.95 1.88 1.98 2.09 2.18 2.23 2.22 2.28 2.43 2.58 2.75 2.89 2.82 2.64 2.52 2.40 2.20 2.07 1.80 1.65 1.72 1.55
0.31 0.38 0.48 0.45 0.43 0.48 0.59 0.65 0.72 0.80 0.84 0.82 0.88 1.00 1.17 1.38 1.52 1.61 1.81 1.88 1.92 1.87 1.82 1.80 1.87 1.95 2.00 2.10 2.27 2.26 2.29 2.47 2.66 2.66 2.58 2.56 2.35 2.23 2.27 2.11 1.79 1.71 1.60
0.42 0.57 0.69 0.73 0.70 0.69 0.71 0.69 0.70 0.66 0.66 0.69 0.75 0.81 0.88 1.02 1.13 1.21 1.37 1.50 1.50 1.48 1.47 1.54 1.64 1.79 1.89 1.98 2.13 2.17 2.13 2.21 2.27 2.29 2.40 2.48 2.36 2.17 2.10 2.13 2.21 1.97 1.73
0.58 0.75 0.88 0.95 0.91 0.83 0.77 0.74 0.75 0.71 0.63 0.63 0.70 0.76 0.81 0.82 0.85 0.90 0.89 0.97 1.06 1.09 1.15 1.22 1.36 1.55 1.69 1.76 1.86 2.00 2.00 2.06 2.05 2.11 2.18 2.19 2.24 2.10 1.95 1.90 2.00 2.12 1.91
0.81 0.92 1.00 1.00 0.98 1.03 0.98 0.81 0.76 0.78 0.70 0.76 0.76 0.73 0.72 0.70 0.68 0.72 0.77 0.78 0.87 0.98 1.08 1.10 1.18 1.31 1.40 1.51 1.69 1.83 1.90 1.93 1.90 1.89 1.96 2.01 2.06 2.07 2.04 2.00 1.99 1.96 1.91
1.01 1.03 1.10 1.03 0.91 0.91 0.90 0.88 0.82 0.78 0.79 0.82 0.82 0.71 0.69 0.68 0.68 0.66 0.68 0.76 0.85 0.95 1.01 1.07 1.12 1.15 1.25 1.31 1.42 1.58 1.71 1.74 1.76 1.66 1.69 1.81 1.86 2.03 2.07 2.03 1.98 1.97 1.89
0.96 0.99 1.05 0.98 0.83 0.78 0.69 0.72 0.81 0.82 0.88 0.89 0.81 0.72 0.72 0.75 0.80 0.78 0.70 0.71 0.77 0.79 0.90 1.04 1.04 1.05 1.11 1.19 1.31 1.41 1.46 1.56 1.53 1.45 1.47 1.58 1.64 1.78 1.90 2.00 1.91 1.92 1.87
0.75 0.74 0.74 0.81 0.77 0.74 0.66 0.71 0.77 0.83 0.87 0.89 0.87 0.78 0.67 0.70 0.75 0.76 0.68 0.66 0.70 0.74 0.88 1.02 1.14 1.07 0.98 1.08 1.18 1.23 1.26 1.27 1.23 1.22 1.25 1.31 1.38 1.51 1.63 1.74 1.83 1.84 1.77
0.54 0.52 0.48 0.53 0.56 0.58 0.63 0.68 0.78 0.90 0.95 0.93 0.86 0.83 0.77 0.79 0.74 0.64 0.62 0.64 0.63 0.61 0.68 0.83 0.94 0.99 0.95 0.92 0.94 0.98 1.14 1.13 1.05 0.98 0.97 1.00 1.03 1.15 1.29 1.40 1.55 1.71 1.83
0.39 0.37 0.33 0.34 0.36 0.38 0.47 0.53 0.67 0.82 0.95 0.99 0.94 0.87 0.81 0.71 0.64 0.58 0.51 0.52 0.48 0.48 0.54 0.70 0.88 0.95 0.95 0.98 0.98 0.91 0.94 1.01 1.02 0.96 0.87 0.81 0.81 0.91 1.00 1.10 1.35 1.55 1.71
0.28 0.25 0.24 0.22 0.25 0.30 0.37 0.37 0.49 0.64 0.76 0.81 0.82 0.83 0.79 0.63 0.55 0.49 0.42 0.40 0.41 0.43 0.45 0.53 0.70 0.86 0.84 1.00 1.05 0.99 0.90 0.91 0.91 0.91 0.91 0.90 0.85 0.75 0.71 0.78 0.95 1.18 1.39
0.24 0.21 0.20 0.21 0.24 0.30 0.32 0.33 0.42 0.54 0.58 0.62 0.66 0.68 0.64 0.51 0.45 0.36 0.32 0.35 0.36 0.39 0.41 0.47 0.59 0.74 0.89 0.92 0.83 0.92 0.93 0.90 0.90 0.87 0.87 0.91 0.91 0.95 0.84 0.78 0.76 0.80 0.97
0.17 0.21 0.19 0.17 0.20 0.25 0.30 0.38 0.41 0.42 0.43 0.47 0.50 0.50 0.49 0.44 0.37 0.30 0.29 0.31 0.34 0.38 0.39 0.43 0.49 0.57 0.76 0.81 0.72 0.90 0.94 0.95 0.94 0.92 0.94 0.98 1.02 0.99 1.09 1.06 0.97 0.90 0.89
0.07 0.10 0.10 0.10 0.11 0.11 0.12 0.15 0.17 0.20 0.24 0.32 0.38 0.42 0.42 0.38 0.33 0.28 0.35 0.41 0.41 0.40 0.38 0.39 0.41 0.44 0.53 0.62 0.60 0.74 0.88 0.98 0.97 0.88 0.90 0.95 0.99 1.18 1.22 1.13 1.11 1.04 0.99
0.03 0.04 0.06 0.05 0.05 0.04 0.04 0.04 0.06 0.10 0.13 0.20 0.26 0.32 0.35 0.37 0.40 0.48 0.56 0.56 0.53 0.47 0.42 0.39 0.38 0.41 0.43 0.56 0.45 0.57 0.74 0.91 1.01 0.94 0.91 1.06 1.03 1.05 1.00 0.97 1.16 1.14 1.04
0.01 0.02 0.04 0.04 0.04 0.03 0.02 0.01 0.02 0.02 0.03 0.05 0.10 0.20 0.33 0.39 0.47 0.58 0.60 0.59 0.53 0.45 0.40 0.38 0.36 0.36 0.45 0.60 0.54 0.61 0.71 0.83 0.92 0.95 0.97 0.95 1.03 0.86 0.82 0.86 1.01 1.16 1.10
0.02 0.02 0.03 0.03 0.04 0.04 0.03 0.02 0.02 0.02 0.02 0.04 0.08 0.14 0.22 0.31 0.45 0.53 0.52 0.50 0.49 0.46 0.43 0.43 0.40 0.42 0.53 0.61 0.61 0.61 0.66 0.74 0.81 0.84 0.76 0.75 0.83 0.69 0.64 0.63 0.76 0.94 0.96
0.03 0.03 0.04 0.04 0.04 0.03 0.05 0.04 0.04 0.04 0.03 0.02 0.04 0.07 0.12 0.23 0.38 0.41 0.41 0.43 0.46 0.45 0.43 0.42 0.40 0.39 0.47 0.57 0.68 0.58 0.51 0.50 0.58 0.64 0.64 0.57 0.54 0.53 0.49 0.53 0.62 0.69 0.83
0.02 0.02 0.02 0.03 0.03 0.02 0.03 0.05 0.05 0.05 0.04 0.02 0.02 0.02 0.04 0.06 0.12 0.16 0.21 0.27 0.32 0.33 0.33 0.35 0.39 0.42 0.42 0.43 0.49 0.51 0.48 0.43 0.43 0.43 0.37 0.35 0.38 0.45 0.47 0.48 0.50 0.56 0.77
0.03 0.02 0.01 0.01 0.01 0.01 0.01 0.02 0.03 0.04 0.05 0.04 0.02 0.02 0.04 0.05 0.05 0.07 0.11 0.14 0.16 0.20 0.25 0.31 0.35 0.35 0.39 0.39 0.43 0.44 0.45 0.50 0.53 0.55 0.47 0.41 0.39 0.41 0.44 0.47 0.53 0.65 0.76
0.03 0.02 0.02 0.01 0.01 0.01 0.01 0.01 0.01 0.01 0.03 0.05 0.04 0.02 0.02 0.03 0.03 0.05 0.06 0.07 0.08 0.10 0.12 0.16 0.19 0.19 0.25 0.33 0.35 0.38 0.40 0.43 0.50 0.54 0.55 0.55 0.56 0.57 0.55 0.54 0.51 0.52 0.61

GEFSMW_prec_meanprecacc_180.txt.gz
Total_Precipitation_Accumulation
0.33 0.31 0.30 0.31 0.31 0.32 0.35 0.41 0.59 0.76 0.91 1.01 1.14 1.38 1.55 1.64 1.63 1.63 1.70 1.62 1.44 1.52 1.64 1.61 1.82 1.89 1.87 1.87 1.81 1.93 1.96 1.69 1.52 1.79 1.77 1.38 1.11 1.00 1.02 1.08 1.11 1.16 1.17
0.24 0.24 0.22 0.23 0.23 0.23 0.26 0.34 0.50 0.74 0.97 1.18 1.34 1.53 1.84 2.00 2.00 2.06 2.01 1.96 1.85 1.87 1.79 1.87 2.08 2.13 2.24 2.33 2.17 2.30 2.38 2.07 1.76 2.14 2.58 2.11 1.69 1.13 0.91 1.02 1.12 1.26 1.28
0.21 0.22 0.22 0.20 0.18 0.18 0.21 0.27 0.41 0.64 0.93 1.22 1.47 1.65 1.88 2.14 2.24 2.15 2.10 2.13 2.21 2.26 2.15 2.11 2.23 2.25 2.32 2.52 2.56 2.51 2.61 2.53 2.20 2.16 2.60 2.48 2.16 1.72 1.16 1.04 1.11 1.27 1.36
0.21 0.20 0.20 0.23 0.20 0.21 0.22 0.26 0.41 0.57 0.77 1.02 1.34 1.59 1.84 2.15 2.22 2.20 2.18 2.21 2.33 2.42 2.38 2.33 2.39 2.40 2.35 2.48 2.57 2.55 2.76 2.93 2.66 2.40 2.18 2.10 2.12 2.12 1.68 1.27 1.19 1.34 1.39
0.24 0.21 0.19 0.22 0.27 0.26 0.27 0.34 0.48 0.62 0.79 1.01 1.32 1.64 1.83 1.99 2.19 2.20 2.12 2.05 2.12 2.14 2.12 2.24 2.39 2.41 2.38 2.39 2.58 2.70 2.87 2.86 2.78 2.65 2.51 2.33 2.13 1.81 1.89 1.75 1.51 1.48 1.37
0.22 0.25 0.28 0.29 0.31 0.36 0.40 0.48 0.60 0.80 0.93 1.01 1.13 1.30 1.51 1.79 1.92 2.02 2.06 2.07 2.07 1.95 1.88 1.98 2.09 2.18 2.23 2.22 2.28 2.44 2.58 2.75 2.89 2.82 2.64 2.53 2.41 2.23 2.10 1.82 1.67 1.73 1.56
0.31 0.39 0.49 0.45 0.44 0.48 0.59 0.66 0.73 0.82 0.86 0.84 0.89 1.01 1.17 1.39 1.52 1.62 1.81 1.88 1.92 1.87 1.82 1.80 1.87 1.95 2.00 2.10 2.27 2.26 2.29 2.47 2.66 2.66 2.59 2.57 2.35 2.26 2.31 2.14 1.81 1.72 1.61
0.43 0.57 0.69 0.73 0.70 0.69 0.72 0.70 0.73 0.69 0.69 0.72 0.77 0.83 0.89 1.02 1.14 1.21 1.37 1.50 1.50 1.48 1.47 1.54 1.64 1.79 1.89 1.98 2.13 2.17 2.13 2.21 2.27 2.29 2.41 2.49 2.37 2.17 2.12 2.15 2.22 1.97 1.73
0.59 0.75 0.88 0.95 0.91 0.83 0.78 0.75 0.77 0.74 0.66 0.66 0.73 0.79 0.82 0.83 0.86 0.90 0.89 0.98 1.06 1.09 1.15 1.22 1.36 1.55 1.69 1.76 1.86 2.00 2.00 2.06 2.05 2.11 2.19 2.20 2.25 2.11 1.96 1.91 2.00 2.12 1.91
0.83 0.93 1.01 1.00 0.98 1.03 0.99 0.83 0.78 0.80 0.73 0.79 0.80 0.76 0.74 0.71 0.69 0.72 0.77 0.79 0.87 0.98 1.08 1.10 1.18 1.31 1.40 1.51 1.69 1.83 1.90 1.93 1.90 1.89 1.96 2.01 2.07 2.08 2.04 2.01 2.00 1.97 1.91
1.02 1.04 1.11 1.04 0.91 0.92 0.90 0.89 0.85 0.81 0.82 0.85 0.85 0.74 0.71 0.70 0.69 0.66 0.68 0.77 0.85 0.95 1.01 1.07 1.12 1.15 1.25 1.31 1.42 1.58 1.71 1.74 1.76 1.66 1.69 1.81 1.87 2.03 2.07 2.03 1.99 1.97 1.89
0.98 1.00 1.06 0.98 0.83 0.79 0.70 0.74 0.82 0.84 0.92 0.92 0.84 0.75 0.73 0.75 0.81 0.78 0.70 0.71 0.77 0.79 0.90 1.04 1.04 1.05 1.11 1.19 1.31 1.41 1.46 1.56 1.53 1.45 1.47 1.58 1.64 1.78 1.90 2.00 1.91 1.92 1.87
0.76 0.74 0.75 0.81 0.78 0.74 0.66 0.72 0.78 0.84 0.89 0.92 0.90 0.79 0.68 0.70 0.75 0.76 0.68 0.66 0.70 0.74 0.88 1.02 1.14 1.07 0.98 1.08 1.18 1.23 1.26 1.27 1.23 1.22 1.25 1.31 1.38 1.51 1.63 1.74 1.83 1.84 1.77
0.55 0.53 0.48 0.53 0.56 0.59 0.64 0.69 0.79 0.91 0.96 0.95 0.89 0.85 0.78 0.79 0.74 0.64 0.62 0.64 0.63 0.61 0.68 0.83 0.94 0.99 0.95 0.92 0.94 0.98 1.14 1.13 1.05 0.98 0.97 1.00 1.03 1.15 1.29 1.40 1.55 1.71 1.83
0.40 0.38 0.34 0.34 0.36 0.39 0.48 0.55 0.67 0.82 0.95 1.01 0.96 0.88 0.82 0.72 0.64 0.58 0.51 0.52 0.49 0.48 0.55 0.71 0.89 0.95 0.95 0.98 0.98 0.91 0.95 1.01 1.02 0.96 0.87 0.81 0.81 0.91 1.00 1.10 1.35 1.55 1.71
0.29 0.26 0.25 0.23 0.25 0.31 0.38 0.38 0.49 0.64 0.76 0.81 0.83 0.85 0.81 0.64 0.56 0.49 0.42 0.40 0.42 0.43 0.45 0.53 0.70 0.86 0.84 1.00 1.05 0.99 0.90 0.91 0.91 0.91 0.91 0.90 0.85 0.75 0.71 0.79 0.95 1.19 1.39
0.24 0.22 0.21 0.22 0.24 0.31 0.34 0.34 0.42 0.54 0.58 0.62 0.66 0.69 0.66 0.52 0.46 0.36 0.32 0.35 0.36 0.39 0.42 0.47 0.59 0.74 0.89 0.92 0.83 0.92 0.93 0.90 0.90 0.87 0.88 0.91 0.91 0.95 0.84 0.78 0.77 0.81 0.98
0.17 0.22 0.19 0.18 0.20 0.25 0.31 0.40 0.41 0.42 0.44 0.47 0.50 0.50 0.50 0.45 0.38 0.30 0.29 0.31 0.34 0.39 0.40 0.43 0.49 0.57 0.76 0.81 0.72 0.90 0.94 0.95 0.94 0.92 0.95 0.98 1.02 0.99 1.09 1.06 0.97 0.90 0.90
0.08 0.11 0.11 0.11 0.12 0.12 0.14 0.16 0.18 0.21 0.24 0.33 0.39 0.42 0.42 0.39 0.33 0.29 0.35 0.41 0.41 0.41 0.39 0.39 0.41 0.44 0.53 0.62 0.60 0.74 0.88 0.98 0.97 0.88 0.90 0.95 0.99 1.18 1.22 1.13 1.11 1.04 0.99
0.03 0.05 0.07 0.06 0.06 0.06 0.06 0.05 0.06 0.10 0.14 0.20 0.26 0.32 0.35 0.38 0.40 0.48 0.56 0.57 0.53 0.48 0.42 0.39 0.38 0.41 0.43 0.56 0.45 0.57 0.74 0.91 1.01 0.94 0.91 1.06 1.03 1.05 1.00 0.97 1.16 1.14 1.04
0.02 0.03 0.05 0.05 0.05 0.05 0.03 0.02 0.02 0.03 0.03 0.05 0.10 0.20 0.33 0.39 0.48 0.58 0.60 0.59 0.54 0.45 0.40 0.38 0.36 0.37 0.45 0.60 0.54 0.61 0.71 0.83 0.92 0.95 0.97 0.95 1.03 0.86 0.82 0.87 1.01 1.16 1.10
0.02 0.03 0.04 0.04 0.06 0.06 0.04 0.03 0.02 0.02 0.02 0.04 0.08 0.14 0.22 0.32 0.45 0.54 0.52 0.51 0.50 0.47 0.43 0.44 0.41 0.43 0.53 0.61 0.61 0.61 0.66 0.74 0.81 0.84 0.76 0.75 0.83 0.69 0.64 0.63 0.76 0.94 0.96
0.03 0.04 0.05 0.05 0.06 0.05 0.06 0.05 0.04 0.04 0.03 0.03 0.04 0.07 0.13 0.24 0.38 0.41 0.41 0.44 0.46 0.45 0.43 0.42 0.40 0.39 0.47 0.57 0.68 0.58 0.51 0.50 0.58 0.64 0.64 0.57 0.54 0.53 0.49 0.53 0.62 0.69 0.83
0.03 0.03 0.03 0.04 0.04 0.03 0.04 0.05 0.05 0.05 0.04 0.03 0.02 0.02 0.04 0.07 0.12 0.17 0.21 0.27 0.32 0.33 0.33 0.35 0.39 0.42 0.42 0.43 0.49 0.51 0.48 0.43 0.43 0.43 0.37 0.35 0.38 0.45 0.47 0.48 0.50 0.56 0.77
0.03 0.02 0.02 0.03 0.03 0.02 0.02 0.03 0.04 0.05 0.05 0.04 0.03 0.03 0.04 0.06 0.06 0.08 0.11 0.14 0.17 0.20 0.26 0.31 0.35 0.35 0.39 0.39 0.43 0.44 0.45 0.50 0.54 0.55 0.47 0.41 0.39 0.41 0.45 0.48 0.53 0.65 0.76
0.03 0.03 0.03 0.03 0.04 0.03 0.02 0.02 0.02 0.03 0.04 0.06 0.04 0.02 0.02 0.03 0.04 0.05 0.06 0.07 0.08 0.11 0.13 0.16 0.19 0.19 0.25 0.33 0.36 0.38 0.40 0.43 0.50 0.54 0.55 0.55 0.56 0.57 0.56 0.54 0.51 0.52 0.61

GEFSMW_prec_meanprecacc_186.txt.gz
Total_Precipitation_Accumulation
0.39 0.35 0.33 0.33 0.33 0.34 0.35 0.41 0.60 0.76 0.91 1.01 1.14 1.39 1.55 1.65 1.63 1.63 1.70 1.62 1.44 1.52 1.64 1.61 1.82 1.89 1.87 1.88 1.82 1.94 1.96 1.69 1.52 1.80 1.79 1.40 1.12 1.02 1.04 1.10 1.13 1.17 1.18
0.29 0.28 0.25 0.24 0.24 0.24 0.28 0.34 0.50 0.74 0.97 1.18 1.34 1.53 1.84 2.00 2.00 2.06 2.01 1.96 1.85 1.87 1.79 1.87 2.08 2.13 2.24 2.34 2.18 2.30 2.38 2.07 1.77 2.15 2.60 2.14 1.71 1.15 0.93 1.04 1.14 1.27 1.30
0.25 0.26 0.24 0.21 0.18 0.19 0.21 0.27 0.41 0.64 0.93 1.23 1.47 1.65 1.88 2.15 2.24 2.15 2.10 2.13 2.22 2.26 2.15 2.11 2.23 2.25 2.32 2.53 2.57 2.52 2.61 2.53 2.21 2.16 2.61 2.50 2.17 1.74 1.18 1.06 1.13 1.28 1.38
0.24 0.23 0.22 0.25 0.21 0.21 0.22 0.26 0.41 0.57 0.77 1.02 1.35 1.59 1.84 2.15 2.22 2.20 2.18 2.22 2.33 2.42 2.38 2.33 2.39 2.40 2.35 2.48 2.57 2.55 2.76 2.94 2.67 2.40 2.18 2.10 2.13 2.13 1.70 1.29 1.21 1.36 1.42
0.27 0.24 0.20 0.24 0.28 0.28 0.28 0.35 0.48 0.62 0.79 1.01 1.32 1.65 1.83 1.99 2.19 2.21 2.12 2.05 2.12 2.14 2.12 2.24 2.39 2.41 2.38 2.40 2.59 2.70 2.88 2.87 2.79 2.65 2.52 2.34 2.14 1.82 1.91 1.77 1.54 1.51 1.40
0.25 0.28 0.30 0.31 0.33 0.38 0.41 0.49 0.61 0.80 0.94 1.01 1.14 1.30 1.51 1.79 1.92 2.03 2.06 2.07 2.07 1.95 1.88 1.98 2.09 2.18 2.23 2.22 2.28 2.44 2.58 2.75 2.90 2.83 2.65 2.55 2.44 2.25 2.13 1.85 1.70 1.77 1.59
0.36 0.42 0.51 0.47 0.46 0.49 0.60 0.66 0.74 0.82 0.87 0.85 0.90 1.01 1.17 1.39 1.52 1.62 1.81 1.88 1.92 1.87 1.82 1.80 1.87 1.95 2.00 2.10 2.27 2.26 2.29 2.47 2.67 2.67 2.60 2.58 2.38 2.30 2.35 2.17 1.84 1.75 1.64
0.47 0.61 0.71 0.74 0.71 0.70 0.72 0.71 0.73 0.70 0.70 0.72 0.78 0.83 0.89 1.03 1.15 1.22 1.37 1.50 1.50 1.48 1.48 1.54 1.64 1.79 1.89 1.98 2.13 2.18 2.13 2.21 2.27 2.30 2.42 2.50 2.38 2.19 2.13 2.16 2.24 2.00 1.75
0.62 0.78 0.90 0.96 0.91 0.83 0.78 0.76 0.77 0.74 0.67 0.67 0.74 0.79 0.83 0.84 0.87 0.91 0.90 0.98 1.07 1.10 1.15 1.22 1.36 1.56 1.70 1.76 1.87 2.01 2.00 2.06 2.05 2.12 2.19 2.21 2.25 2.12 1.96 1.91 2.00 2.13 1.93
0.85 0.95 1.03 1.01 0.99 1.03 0.99 0.83 0.79 0.80 0.73 0.80 0.80 0.77 0.75 0.72 0.70 0.74 0.79 0.80 0.88 0.99 1.08 1.10 1.18 1.31 1.41 1.51 1.69 1.83 1.90 1.93 1.91 1.89 1.97 2.02 2.07 2.08 2.04 2.01 2.00 1.98 1.92
1.04 1.05 1.12 1.04 0.91 0.92 0.90 0.90 0.85 0.81 0.83 0.85 0.86 0.76 0.73 0.72 0.70 0.67 0.70 0.78 0.86 0.96 1.01 1.07 1.12 1.16 1.25 1.31 1.42 1.58 1.71 1.74 1.76 1.66 1.70 1.81 1.87 2.04 2.07 2.03 1.99 1.98 1.90
0.98 1.00 1.07 0.99 0.84 0.79 0.70 0.74 0.83 0.85 0.93 0.92 0.84 0.76 0.75 0.78 0.83 0.80 0.71 0.72 0.77 0.79 0.91 1.04 1.04 1.05 1.11 1.19 1.31 1.41 1.46 1.56 1.53 1.45 1.47 1.58 1.64 1.78 1.90 2.01 1.92 1.92 1.88
0.77 0.75 0.75 0.82 0.78 0.75 0.67 0.72 0.78 0.84 0.90 0.93 0.90 0.80 0.69 0.72 0.77 0.78 0.69 0.66 0.70 0.74 0.88 1.02 1.14 1.07 0.98 1.08 1.18 1.23 1.26 1.27 1.23 1.22 1.26 1.32 1.39 1.52 1.63 1.74 1.83 1.84 1.78
0.56 0.53 0.49 0.54 0.57 0.59 0.65 0.69 0.79 0.91 0.96 0.96 0.90 0.86 0.79 0.81 0.75 0.65 0.63 0.64 0.63 0.61 0.68 0.83 0.94 0.99 0.95 0.92 0.94 0.98 1.14 1.13 1.05 0.98 0.98 1.00 1.04 1.16 1.30 1.40 1.56 1.71 1.84
0.41 0.39 0.35 0.34 0.36 0.39 0.48 0.55 0.68 0.83 0.96 1.01 0.97 0.90 0.83 0.74 0.66 0.60 0.52 0.53 0.49 0.49 0.55 0.71 0.89 0.96 0.95 0.98 0.98 0.91 0.95 1.01 1.02 0.96 0.88 0.81 0.81 0.91 1.01 1.10 1.36 1.56 1.71
0.29 0.26 0.26 0.23 0.25 0.31 0.38 0.39 0.50 0.65 0.76 0.81 0.84 0.86 0.82 0.65 0.58 0.51 0.44 0.42 0.42 0.43 0.46 0.54 0.70 0.86 0.85 1.00 1.06 0.99 0.91 0.91 0.91 0.91 0.91 0.90 0.86 0.75 0.71 0.79 0.95 1.19 1.39
0.25 0.22 0.22 0.22 0.25 0.31 0.34 0.35 0.43 0.54 0.59 0.63 0.66 0.69 0.66 0.53 0.47 0.37 0.33 0.36 0.37 0.40 0.42 0.48 0.60 0.74 0.89 0.92 0.83 0.92 0.93 0.90 0.90 0.88 0.88 0.91 0.91 0.95 0.84 0.78 0.77 0.81 0.98
0.17 0.22 0.20 0.18 0.20 0.26 0.32 0.40 0.42 0.42 0.44 0.48 0.51 0.50 0.50 0.46 0.38 0.31 0.30 0.32 0.35 0.39 0.40 0.44 0.50 0.58 0.76 0.81 0.72 0.90 0.94 0.95 0.94 0.93 0.95 0.99 1.02 0.99 1.09 1.06 0.97 0.90 0.90
0.08 0.12 0.11 0.11 0.12 0.13 0.14 0.17 0.19 0.21 0.24 0.33 0.39 0.43 0.42 0.39 0.34 0.29 0.35 0.41 0.41 0.41 0.40 0.40 0.42 0.45 0.53 0.63 0.60 0.74 0.88 0.99 0.98 0.88 0.90 0.95 0.99 1.18 1.22 1.13 1.11 1.04 0.99
0.03 0.05 0.07 0.07 0.07 0.06 0.06 0.05 0.07 0.10 0.14 0.21 0.26 0.32 0.36 0.38 0.40 0.48 0.56 0.57 0.53 0.48 0.43 0.39 0.38 0.41 0.43 0.56 0.45 0.57 0.74 0.91 1.01 0.94 0.91 1.06 1.04 1.05 1.00 0.97 1.16 1.14 1.04
0.02 0.03 0.05 0.06 0.06 0.05 0.04 0.03 0.03 0.03 0.04 0.06 0.11 0.21 0.34 0.40 0.48 0.58 0.60 0.60 0.54 0.46 0.41 0.38 0.36 0.37 0.46 0.60 0.55 0.61 0.71 0.83 0.92 0.95 0.97 0.95 1.03 0.86 0.82 0.87 1.02 1.16 1.10
0.03 0.03 0.04 0.04 0.06 0.07 0.05 0.03 0.03 0.03 0.03 0.05 0.09 0.15 0.23 0.32 0.46 0.54 0.52 0.52 0.51 0.47 0.43 0.44 0.41 0.43 0.53 0.61 0.61 0.61 0.66 0.74 0.81 0.84 0.76 0.75 0.83 0.69 0.64 0.63 0.76 0.94 0.97
0.03 0.04 0.05 0.06 0.06 0.06 0.07 0.06 0.05 0.05 0.04 0.04 0.05 0.08 0.13 0.24 0.39 0.42 0.41 0.44 0.46 0.45 0.44 0.42 0.40 0.40 0.47 0.57 0.68 0.58 0.51 0.50 0.58 0.64 0.64 0.57 0.54 0.53 0.49 0.53 0.63 0.69 0.83
0.03 0.03 0.04 0.04 0.05 0.05 0.05 0.06 0.06 0.06 0.05 0.04 0.03 0.03 0.05 0.07 0.12 0.17 0.21 0.27 0.33 0.34 0.33 0.35 0.39 0.42 0.43 0.43 0.49 0.52 0.48 0.43 0.43 0.43 0.37 0.36 0.39 0.45 0.47 0.48 0.50 0.56 0.77
0.03 0.02 0.03 0.04 0.04 0.04 0.03 0.04 0.05 0.06 0.06 0.05 0.04 0.03 0.05 0.06 0.07 0.08 0.11 0.14 0.17 0.21 0.26 0.31 0.35 0.35 0.39 0.39 0.43 0.45 0.45 0.50 0.54 0.56 0.47 0.41 0.39 0.41 0.45 0.48 0.53 0.65 0.76
0.03 0.03 0.03 0.04 0.04 0.04 0.04 0.04 0.03 0.04 0.06 0.07 0.05 0.03 0.03 0.04 0.04 0.05 0.06 0.07 0.09 0.11 0.13 0.16 0.19 0.19 0.26 0.33 0.36 0.38 0.40 0.43 0.50 0.54 0.55 0.55 0.56 0.57 0.56 0.55 0.52 0.53 0.61

GEFSMW_prec_meanprecacc_192.txt.gz
Total_Precipitation_Accumulation
0.43 0.39 0.35 0.35 0.34 0.34 0.36 0.42 0.60 0.77 0.91 1.02 1.15 1.40 1.56 1.65 1.64 1.64 1.70 1.62 1.44 1.52 1.64 1.61 1.82 1.89 1.88 1.88 1.82 1.94 1.97 1.71 1.53 1.83 1.82 1.43 1.14 1.03 1.06 1.11 1.15 1.19 1.20
0.35 0.33 0.27 0.26 0.25 0.24 0.29 0.35 0.50 0.75 0.98 1.18 1.35 1.53 1.85 2.01 2.01 2.07 2.01 1.96 1.85 1.87 1.79 1.87 2.08 2.13 2.25 2.34 2.18 2.31 2.39 2.08 1.78 2.18 2.65 2.19 1.75 1.17 0.94 1.05 1.15 1.29 1.34
0.30 0.31 0.27 0.23 0.19 0.19 0.22 0.27 0.41 0.64 0.93 1.23 1.47 1.66 1.90 2.16 2.25 2.15 2.10 2.13 2.22 2.26 2.15 2.11 2.23 2.25 2.33 2.53 2.57 2.52 2.63 2.55 2.22 2.17 2.63 2.55 2.22 1.77 1.21 1.09 1.15 1.31 1.41
0.28 0.27 0.25 0.26 0.22 0.22 0.23 0.26 0.41 0.57 0.77 1.02 1.35 1.60 1.85 2.16 2.23 2.21 2.18 2.22 2.33 2.42 2.38 2.33 2.39 2.40 2.35 2.48 2.57 2.55 2.77 2.96 2.69 2.42 2.19 2.12 2.16 2.18 1.74 1.33 1.25 1.39 1.45
0.31 0.27 0.24 0.26 0.28 0.28 0.28 0.35 0.48 0.62 0.79 1.01 1.33 1.65 1.83 1.99 2.19 2.21 2.12 2.05 2.12 2.14 2.12 2.24 2.39 2.41 2.38 2.40 2.59 2.70 2.88 2.88 2.80 2.67 2.53 2.35 2.16 1.83 1.94 1.81 1.57 1.55 1.44
0.29 0.31 0.33 0.33 0.34 0.38 0.41 0.49 0.61 0.80 0.94 1.01 1.14 1.31 1.52 1.79 1.92 2.03 2.06 2.07 2.07 1.95 1.88 1.98 2.09 2.18 2.23 2.22 2.28 2.44 2.58 2.76 2.91 2.84 2.66 2.57 2.46 2.28 2.16 1.90 1.75 1.81 1.63
0.40 0.46 0.53 0.49 0.47 0.50 0.60 0.67 0.74 0.82 0.87 0.85 0.90 1.02 1.18 1.40 1.53 1.62 1.81 1.89 1.92 1.87 1.82 1.80 1.87 1.95 2.00 2.10 2.27 2.26 2.29 2.47 2.68 2.68 2.61 2.60 2.40 2.32 2.38 2.20 1.87 1.78 1.66
0.51 0.64 0.75 0.77 0.73 0.71 0.73 0.71 0.73 0.70 0.70 0.72 0.78 0.84 0.90 1.04 1.15 1.23 1.38 1.51 1.51 1.49 1.48 1.54 1.64 1.79 1.89 1.98 2.13 2.18 2.13 2.21 2.28 2.30 2.44 2.51 2.39 2.20 2.14 2.18 2.27 2.03 1.78
0.66 0.81 0.93 0.99 0.94 0.86 0.79 0.76 0.77 0.74 0.67 0.67 0.74 0.80 0.84 0.84 0.88 0.92 0.91 0.99 1.07 1.10 1.15 1.23 1.37 1.56 1.70 1.76 1.87 2.01 2.00 2.06 2.06 2.12 2.20 2.22 2.26 2.12 1.96 1.92 2.02 2.16 1.96
0.87 0.98 1.05 1.03 1.01 1.06 1.01 0.84 0.79 0.80 0.74 0.81 0.81 0.77 0.75 0.73 0.72 0.76 0.81 0.82 0.90 1.00 1.09 1.12 1.19 1.32 1.41 1.51 1.69 1.83 1.90 1.93 1.91 1.90 1.97 2.02 2.07 2.08 2.04 2.01 2.00 2.00 1.95
1.06 1.07 1.14 1.07 0.93 0.94 0.92 0.90 0.86 0.82 0.84 0.86 0.86 0.76 0.73 0.73 0.73 0.70 0.74 0.82 0.90 1.00 1.06 1.10 1.14 1.17 1.26 1.31 1.43 1.58 1.71 1.75 1.76 1.66 1.70 1.81 1.87 2.04 2.07 2.03 1.99 1.99 1.91
1.01 1.02 1.09 1.00 0.85 0.80 0.71 0.75 0.83 0.85 0.93 0.93 0.85 0.76 0.75 0.78 0.84 0.82 0.76 0.79 0.85 0.86 0.97 1.09 1.06 1.06 1.11 1.19 1.31 1.41 1.46 1.56 1.54 1.45 1.48 1.58 1.65 1.78 1.91 2.01 1.92 1.93 1.89
0.79 0.77 0.77 0.84 0.79 0.75 0.67 0.73 0.79 0.85 0.90 0.93 0.91 0.80 0.69 0.72 0.78 0.78 0.71 0.69 0.75 0.80 0.93 1.06 1.17 1.08 0.98 1.08 1.19 1.24 1.27 1.27 1.23 1.23 1.27 1.33 1.39 1.52 1.64 1.75 1.84 1.85 1.78
0.58 0.55 0.51 0.55 0.58 0.60 0.65 0.70 0.80 0.92 0.97 0.96 0.90 0.86 0.79 0.81 0.75 0.65 0.63 0.65 0.64 0.62 0.70 0.84 0.96 1.00 0.96 0.92 0.94 0.98 1.14 1.14 1.06 0.98 0.98 1.01 1.04 1.17 1.30 1.40 1.56 1.72 1.85
0.42 0.40 0.37 0.36 0.37 0.39 0.48 0.55 0.68 0.84 0.96 1.02 0.98 0.90 0.84 0.74 0.67 0.60 0.53 0.54 0.50 0.49 0.56 0.72 0.90 0.96 0.96 0.99 0.99 0.91 0.95 1.01 1.03 0.97 0.88 0.81 0.81 0.91 1.01 1.10 1.36 1.56 1.72
0.30 0.27 0.28 0.26 0.28 0.32 0.39 0.40 0.50 0.66 0.77 0.82 0.84 0.87 0.82 0.66 0.58 0.51 0.45 0.42 0.43 0.44 0.47 0.55 0.71 0.87 0.86 1.01 1.06 0.99 0.91 0.92 0.92 0.92 0.91 0.90 0.86 0.75 0.71 0.79 0.95 1.19 1.40
0.25 0.23 0.22 0.23 0.27 0.35 0.37 0.37 0.44 0.55 0.59 0.63 0.67 0.70 0.67 0.53 0.47 0.38 0.33 0.36 0.37 0.41 0.43 0.49 0.61 0.75 0.90 0.93 0.83 0.92 0.93 0.90 0.91 0.89 0.88 0.91 0.91 0.95 0.84 0.78 0.77 0.81 0.98
0.18 0.22 0.20 0.19 0.21 0.27 0.34 0.42 0.43 0.43 0.44 0.48 0.51 0.51 0.51 0.46 0.39 0.31 0.30 0.32 0.35 0.40 0.41 0.45 0.50 0.59 0.77 0.82 0.72 0.90 0.94 0.95 0.95 0.94 0.96 0.99 1.03 0.99 1.09 1.06 0.97 0.90 0.90
0.09 0.12 0.12 0.12 0.13 0.14 0.15 0.17 0.20 0.22 0.25 0.34 0.40 0.44 0.43 0.39 0.34 0.29 0.36 0.42 0.42 0.42 0.41 0.40 0.42 0.46 0.54 0.63 0.60 0.74 0.89 1.00 0.99 0.89 0.90 0.96 1.00 1.18 1.22 1.13 1.11 1.04 0.99
0.04 0.05 0.08 0.08 0.08 0.07 0.06 0.06 0.07 0.11 0.15 0.21 0.27 0.33 0.37 0.38 0.41 0.49 0.57 0.58 0.54 0.49 0.44 0.40 0.39 0.42 0.44 0.56 0.45 0.57 0.75 0.92 1.02 0.96 0.91 1.06 1.04 1.05 1.00 0.97 1.16 1.14 1.04
0.02 0.03 0.05 0.06 0.07 0.06 0.05 0.05 0.05 0.04 0.04 0.07 0.12 0.21 0.34 0.40 0.48 0.59 0.61 0.61 0.56 0.46 0.41 0.39 0.37 0.38 0.46 0.60 0.55 0.62 0.71 0.84 0.93 0.96 0.97 0.95 1.03 0.86 0.82 0.87 1.02 1.17 1.11
0.03 0.03 0.04 0.05 0.07 0.08 0.06 0.06 0.10 0.06 0.04 0.06 0.10 0.15 0.24 0.33 0.46 0.54 0.53 0.53 0.54 0.49 0.44 0.45 0.42 0.43 0.53 0.61 0.61 0.62 0.67 0.74 0.82 0.84 0.76 0.75 0.83 0.69 0.64 0.63 0.76 0.95 0.97
0.03 0.04 0.05 0.06 0.06 0.07 0.07 0.07 0.06 0.07 0.06 0.06 0.07 0.09 0.15 0.26 0.40 0.43 0.42 0.45 0.48 0.48 0.45 0.42 0.40 0.40 0.47 0.57 0.68 0.58 0.51 0.50 0.58 0.64 0.64 0.57 0.54 0.53 0.50 0.53 0.63 0.70 0.84
0.03 0.03 0.04 0.04 0.05 0.05 0.05 0.06 0.06 0.06 0.05 0.05 0.05 0.05 0.06 0.08 0.14 0.18 0.22 0.29 0.34 0.35 0.35 0.37 0.40 0.42 0.43 0.43 0.49 0.52 0.48 0.43 0.43 0.43 0.37 0.36 0.39 0.45 0.47 0.48 0.50 0.57 0.78
0.03 0.03 0.03 0.04 0.04 0.04 0.04 0.04 0.05 0.06 0.07 0.06 0.04 0.04 0.06 0.07 0.07 0.09 0.12 0.15 0.18 0.21 0.27 0.32 0.35 0.36 0.39 0.39 0.43 0.45 0.45 0.50 0.54 0.56 0.47 0.41 0.39 0.41 0.45 0.48 0.53 0.66 0.76
0.03 0.03 0.03 0.04 0.04 0.04 0.04 0.04 0.04 0.04 0.06 0.07 0.06 0.04 0.04 0.05 0.05 0.06 0.07 0.09 0.10 0.12 0.14 0.17 0.19 0.20 0.26 0.33 0.36 0.38 0.40 0.43 0.50 0.54 0.55 0.55 0.56 0.57 0.56 0.55 0.52 0.53 0.61

GEFSMW_prec_meanprecacc_198.txt.gz
Total_Precipitation_Accumulation
0.46 0.42 0.37 0.37 0.35 0.35 0.36 0.42 0.60 0.77 0.91 1.02 1.15 1.40 1.56 1.66 1.65 1.65 1.70 1.62 1.44 1.52 1.64 1.61 1.82 1.90 1.88 1.89 1.82 1.94 1.98 1.72 1.55 1.84 1.83 1.44 1.16 1.04 1.07 1.13 1.17 1.24 1.27
0.38 0.37 0.31 0.29 0.27 0.25 0.29 0.35 0.50 0.75 0.98 1.18 1.35 1.54 1.86 2.02 2.02 2.09 2.01 1.96 1.85 1.87 1.79 1.87 2.08 2.13 2.25 2.34 2.18 2.31 2.40 2.09 1.79 2.19 2.65 2.19 1.76 1.17 0.95 1.06 1.18 1.32 1.38
0.32 0.34 0.30 0.25 0.20 0.20 0.22 0.28 0.41 0.64 0.94 1.23 1.48 1.67 1.90 2.17 2.26 2.16 2.12 2.14 2.22 2.26 2.15 2.11 2.23 2.25 2.33 2.53 2.57 2.52 2.63 2.56 2.22 2.18 2.64 2.55 2.23 1.78 1.21 1.09 1.17 1.33 1.45
0.31 0.31 0.28 0.29 0.23 0.22 0.23 0.27 0.41 0.57 0.77 1.02 1.35 1.60 1.85 2.16 2.23 2.22 2.20 2.24 2.34 2.42 2.38 2.33 2.39 2.40 2.35 2.48 2.57 2.55 2.77 2.96 2.70 2.43 2.19 2.12 2.16 2.18 1.75 1.33 1.26 1.41 1.48
0.33 0.30 0.28 0.28 0.30 0.29 0.29 0.36 0.49 0.63 0.79 1.01 1.33 1.65 1.83 1.99 2.20 2.23 2.13 2.08 2.14 2.14 2.12 2.24 2.39 2.41 2.38 2.40 2.59 2.70 2.88 2.88 2.81 2.67 2.53 2.35 2.16 1.84 1.94 1.82 1.58 1.55 1.45
0.32 0.34 0.38 0.37 0.36 0.40 0.42 0.50 0.61 0.80 0.94 1.01 1.14 1.31 1.52 1.79 1.93 2.03 2.07 2.09 2.10 1.97 1.88 1.99 2.09 2.18 2.23 2.22 2.28 2.44 2.58 2.76 2.91 2.84 2.66 2.57 2.46 2.28 2.17 1.90 1.75 1.81 1.64
0.42 0.49 0.57 0.53 0.49 0.52 0.61 0.68 0.75 0.83 0.87 0.85 0.90 1.02 1.18 1.40 1.53 1.62 1.81 1.89 1.93 1.89 1.84 1.81 1.87 1.95 2.00 2.10 2.27 2.26 2.29 2.47 2.68 2.68 2.61 2.60 2.40 2.32 2.38 2.20 1.87 1.79 1.67
0.55 0.68 0.78 0.79 0.74 0.72 0.74 0.73 0.74 0.70 0.70 0.72 0.78 0.84 0.90 1.04 1.16 1.23 1.38 1.51 1.51 1.50 1.49 1.56 1.64 1.79 1.89 1.98 2.13 2.18 2.13 2.21 2.28 2.30 2.44 2.52 2.40 2.20 2.14 2.18 2.27 2.03 1.78
0.70 0.85 0.97 1.02 0.95 0.87 0.81 0.79 0.79 0.75 0.67 0.67 0.74 0.80 0.84 0.85 0.88 0.93 0.91 1.00 1.08 1.11 1.16 1.24 1.38 1.56 1.70 1.76 1.87 2.01 2.00 2.06 2.06 2.12 2.20 2.22 2.27 2.12 1.96 1.92 2.02 2.16 1.96
0.91 1.03 1.11 1.08 1.05 1.08 1.03 0.86 0.80 0.81 0.75 0.81 0.81 0.77 0.76 0.73 0.73 0.77 0.81 0.82 0.91 1.01 1.11 1.13 1.20 1.33 1.42 1.52 1.69 1.83 1.90 1.93 1.91 1.90 1.97 2.02 2.08 2.08 2.04 2.01 2.00 2.00 1.95
1.09 1.11 1.18 1.12 0.98 0.98 0.94 0.92 0.87 0.84 0.85 0.87 0.87 0.76 0.73 0.74 0.74 0.72 0.75 0.83 0.91 1.01 1.07 1.11 1.15 1.18 1.27 1.32 1.43 1.58 1.71 1.75 1.76 1.67 1.70 1.81 1.87 2.04 2.08 2.03 1.99 1.99 1.91
1.04 1.06 1.13 1.05 0.89 0.84 0.74 0.77 0.85 0.87 0.94 0.94 0.86 0.76 0.75 0.78 0.84 0.83 0.77 0.80 0.85 0.87 0.98 1.10 1.08 1.07 1.12 1.20 1.31 1.41 1.46 1.56 1.54 1.45 1.48 1.58 1.65 1.78 1.91 2.01 1.92 1.93 1.89
0.84 0.81 0.82 0.89 0.84 0.79 0.70 0.76 0.80 0.87 0.91 0.94 0.92 0.81 0.69 0.72 0.78 0.79 0.72 0.70 0.75 0.80 0.93 1.07 1.19 1.10 1.00 1.09 1.19 1.24 1.27 1.28 1.24 1.23 1.28 1.33 1.39 1.52 1.64 1.75 1.84 1.86 1.79
0.62 0.59 0.56 0.60 0.63 0.64 0.68 0.72 0.82 0.94 0.98 0.97 0.92 0.87 0.79 0.81 0.76 0.66 0.64 0.65 0.65 0.63 0.70 0.85 0.96 1.01 0.97 0.93 0.94 0.98 1.14 1.14 1.06 0.98 0.99 1.01 1.04 1.17 1.30 1.40 1.56 1.72 1.85
0.45 0.44 0.41 0.41 0.42 0.44 0.52 0.58 0.70 0.86 0.97 1.02 0.99 0.91 0.84 0.74 0.67 0.60 0.53 0.54 0.50 0.50 0.56 0.73 0.90 0.97 0.96 0.99 0.99 0.91 0.95 1.01 1.03 0.97 0.88 0.81 0.81 0.92 1.01 1.10 1.36 1.56 1.72
0.31 0.29 0.30 0.29 0.32 0.37 0.44 0.43 0.53 0.68 0.78 0.83 0.85 0.87 0.83 0.66 0.58 0.51 0.45 0.43 0.43 0.45 0.48 0.57 0.73 0.89 0.86 1.02 1.07 1.00 0.91 0.92 0.92 0.93 0.91 0.90 0.86 0.75 0.72 0.79 0.95 1.19 1.40
0.27 0.24 0.23 0.24 0.29 0.38 0.40 0.40 0.48 0.59 0.62 0.65 0.68 0.71 0.68 0.54 0.48 0.38 0.34 0.37 0.38 0.42 0.45 0.51 0.64 0.77 0.91 0.94 0.84 0.93 0.93 0.90 0.92 0.90 0.89 0.92 0.91 0.95 0.84 0.78 0.77 0.81 0.98
0.20 0.24 0.21 0.19 0.22 0.29 0.36 0.44 0.46 0.47 0.47 0.50 0.53 0.52 0.52 0.47 0.40 0.32 0.31 0.33 0.36 0.42 0.44 0.47 0.52 0.60 0.78 0.83 0.74 0.92 0.95 0.96 0.96 0.94 0.96 1.00 1.03 0.99 1.09 1.06 0.97 0.90 0.90
0.10 0.13 0.13 0.13 0.14 0.15 0.16 0.19 0.22 0.25 0.28 0.36 0.41 0.45 0.44 0.40 0.35 0.30 0.36 0.42 0.43 0.43 0.42 0.42 0.44 0.47 0.55 0.64 0.62 0.76 0.90 1.00 1.00 0.91 0.91 0.97 1.00 1.18 1.22 1.13 1.11 1.04 0.99
0.04 0.06 0.09 0.08 0.08 0.08 0.07 0.06 0.08 0.12 0.17 0.24 0.29 0.34 0.38 0.39 0.41 0.49 0.57 0.58 0.54 0.49 0.44 0.40 0.39 0.42 0.45 0.57 0.47 0.58 0.76 0.93 1.05 0.98 0.92 1.07 1.04 1.05 1.01 0.97 1.16 1.14 1.04
0.03 0.04 0.06 0.07 0.07 0.07 0.05 0.05 0.05 0.04 0.05 0.08 0.13 0.23 0.35 0.41 0.49 0.59 0.62 0.62 0.56 0.46 0.41 0.39 0.37 0.38 0.46 0.61 0.55 0.62 0.72 0.86 0.96 0.97 0.98 0.95 1.03 0.87 0.82 0.87 1.02 1.17 1.11
0.03 0.04 0.04 0.05 0.07 0.08 0.07 0.07 0.11 0.07 0.04 0.06 0.12 0.18 0.26 0.35 0.48 0.56 0.54 0.54 0.54 0.49 0.44 0.45 0.42 0.43 0.53 0.61 0.61 0.63 0.68 0.77 0.85 0.85 0.77 0.76 0.83 0.69 0.64 0.63 0.77 0.95 0.97
0.04 0.05 0.05 0.06 0.07 0.07 0.08 0.07 0.07 0.08 0.06 0.07 0.08 0.10 0.16 0.28 0.42 0.45 0.44 0.46 0.49 0.48 0.45 0.42 0.40 0.40 0.47 0.58 0.69 0.60 0.53 0.53 0.62 0.66 0.64 0.57 0.54 0.54 0.50 0.53 0.63 0.70 0.84
0.05 0.04 0.04 0.05 0.05 0.06 0.06 0.07 0.07 0.07 0.06 0.06 0.06 0.06 0.07 0.10 0.15 0.20 0.25 0.31 0.35 0.36 0.35 0.37 0.40 0.42 0.43 0.43 0.49 0.52 0.49 0.44 0.45 0.44 0.37 0.36 0.39 0.45 0.47 0.48 0.50 0.57 0.78
0.05 0.04 0.04 0.05 0.05 0.04 0.04 0.05 0.06 0.07 0.07 0.06 0.05 0.05 0.08 0.11 0.11 0.12 0.15 0.18 0.20 0.23 0.28 0.33 0.36 0.36 0.40 0.39 0.43 0.45 0.45 0.50 0.54 0.56 0.47 0.41 0.39 0.41 0.45 0.48 0.53 0.66 0.76
0.05 0.05 0.05 0.06 0.05 0.05 0.05 0.05 0.04 0.05 0.07 0.08 0.06 0.05 0.05 0.07 0.08 0.09 0.10 0.10 0.11 0.13 0.15 0.18 0.20 0.20 0.26 0.34 0.36 0.38 0.41 0.43 0.50 0.54 0.55 0.55 0.56 0.57 0.56 0.55 0.52 0.53 0.62

GEFSMW_prec_meanprecacc_204.txt.gz
Total_Precipitation_Accumulation
0.47 0.43 0.38 0.37 0.37 0.36 0.36 0.42 0.60 0.77 0.91 1.02 1.15 1.40 1.57 1.66 1.65 1.65 1.71 1.63 1.44 1.53 1.64 1.61 1.82 1.90 1.88 1.89 1.83 1.95 1.99 1.74 1.56 1.85 1.84 1.45 1.16 1.05 1.09 1.16 1.19 1.26 1.29
0.39 0.39 0.32 0.30 0.28 0.26 0.29 0.35 0.50 0.75 0.98 1.18 1.36 1.55 1.87 2.03 2.03 2.10 2.03 1.97 1.86 1.87 1.79 1.87 2.08 2.13 2.25 2.35 2.19 2.32 2.41 2.10 1.80 2.20 2.66 2.20 1.77 1.18 0.96 1.08 1.19 1.34 1.40
0.33 0.36 0.32 0.27 0.22 0.21 0.23 0.28 0.42 0.64 0.94 1.23 1.48 1.69 1.92 2.18 2.27 2.18 2.14 2.16 2.23 2.26 2.15 2.11 2.23 2.25 2.33 2.53 2.57 2.53 2.64 2.57 2.23 2.19 2.64 2.56 2.23 1.78 1.22 1.10 1.19 1.35 1.46
0.32 0.32 0.31 0.30 0.24 0.23 0.24 0.27 0.42 0.57 0.77 1.02 1.35 1.61 1.86 2.17 2.25 2.23 2.21 2.26 2.35 2.43 2.38 2.33 2.39 2.40 2.35 2.48 2.58 2.56 2.78 2.97 2.70 2.43 2.20 2.12 2.16 2.18 1.75 1.33 1.26 1.41 1.49
0.34 0.31 0.31 0.31 0.31 0.30 0.30 0.37 0.49 0.63 0.80 1.01 1.33 1.66 1.84 2.00 2.21 2.23 2.14 2.09 2.16 2.16 2.13 2.24 2.39 2.41 2.38 2.40 2.59 2.70 2.89 2.89 2.81 2.68 2.54 2.36 2.16 1.84 1.94 1.82 1.58 1.56 1.47
0.33 0.35 0.41 0.41 0.39 0.41 0.44 0.52 0.63 0.81 0.94 1.01 1.14 1.31 1.52 1.79 1.93 2.04 2.07 2.09 2.10 1.99 1.90 2.00 2.10 2.18 2.23 2.22 2.28 2.44 2.59 2.77 2.91 2.84 2.67 2.58 2.46 2.28 2.17 1.90 1.75 1.81 1.64
0.43 0.51 0.61 0.57 0.53 0.54 0.63 0.70 0.77 0.84 0.88 0.85 0.90 1.02 1.18 1.40 1.53 1.62 1.82 1.90 1.94 1.90 1.85 1.82 1.89 1.96 2.00 2.10 2.27 2.26 2.29 2.47 2.68 2.68 2.62 2.61 2.40 2.33 2.38 2.20 1.87 1.79 1.67
0.57 0.69 0.81 0.83 0.77 0.75 0.75 0.74 0.76 0.72 0.71 0.73 0.78 0.84 0.90 1.04 1.16 1.23 1.38 1.51 1.51 1.50 1.50 1.57 1.66 1.80 1.89 1.99 2.13 2.18 2.13 2.21 2.28 2.30 2.44 2.52 2.40 2.20 2.15 2.18 2.27 2.03 1.78
0.71 0.87 1.00 1.06 0.99 0.90 0.82 0.80 0.81 0.76 0.68 0.68 0.75 0.80 0.84 0.85 0.88 0.93 0.91 1.00 1.08 1.11 1.17 1.25 1.39 1.58 1.71 1.77 1.87 2.01 2.00 2.06 2.06 2.13 2.20 2.22 2.27 2.12 1.96 1.92 2.02 2.16 1.96
0.93 1.05 1.13 1.12 1.09 1.12 1.05 0.88 0.82 0.82 0.75 0.83 0.83 0.78 0.76 0.74 0.73 0.77 0.81 0.82 0.91 1.01 1.11 1.14 1.21 1.34 1.44 1.53 1.70 1.84 1.91 1.94 1.91 1.90 1.97 2.03 2.08 2.08 2.04 2.01 2.00 2.00 1.95
1.12 1.14 1.20 1.15 1.02 1.03 0.98 0.95 0.90 0.86 0.87 0.89 0.89 0.78 0.74 0.74 0.74 0.72 0.75 0.83 0.91 1.01 1.07 1.12 1.16 1.19 1.28 1.33 1.44 1.59 1.73 1.76 1.77 1.67 1.70 1.81 1.87 2.04 2.08 2.03 1.99 1.99 1.91
1.07 1.10 1.17 1.09 0.94 0.89 0.78 0.80 0.88 0.89 0.96 0.96 0.88 0.78 0.76 0.79 0.84 0.83 0.77 0.80 0.86 0.87 0.98 1.11 1.09 1.08 1.13 1.21 1.33 1.42 1.47 1.57 1.54 1.46 1.48 1.58 1.65 1.78 1.91 2.01 1.92 1.93 1.89
0.86 0.84 0.86 0.93 0.89 0.83 0.74 0.80 0.84 0.90 0.92 0.95 0.93 0.82 0.70 0.73 0.79 0.79 0.72 0.70 0.75 0.80 0.93 1.08 1.21 1.12 1.01 1.11 1.21 1.25 1.28 1.28 1.24 1.23 1.28 1.33 1.39 1.52 1.64 1.75 1.84 1.86 1.79
0.63 0.61 0.58 0.63 0.66 0.67 0.71 0.76 0.86 0.98 1.00 0.98 0.92 0.88 0.81 0.82 0.77 0.66 0.64 0.66 0.65 0.63 0.70 0.85 0.97 1.03 0.99 0.95 0.97 1.00 1.15 1.15 1.06 0.99 0.99 1.01 1.04 1.17 1.30 1.40 1.56 1.72 1.85
0.47 0.46 0.43 0.43 0.45 0.48 0.55 0.61 0.73 0.90 1.01 1.04 1.00 0.92 0.85 0.76 0.68 0.62 0.53 0.54 0.50 0.50 0.58 0.75 0.92 0.98 0.98 1.00 1.00 0.93 0.97 1.03 1.04 0.98 0.88 0.81 0.81 0.92 1.01 1.10 1.36 1.56 1.72
0.33 0.33 0.34 0.33 0.35 0.40 0.48 0.47 0.56 0.72 0.83 0.86 0.87 0.89 0.84 0.67 0.60 0.54 0.46 0.43 0.44 0.45 0.49 0.59 0.75 0.91 0.88 1.03 1.08 1.00 0.91 0.92 0.93 0.93 0.92 0.91 0.86 0.75 0.72 0.79 0.95 1.20 1.40
0.28 0.27 0.27 0.29 0.33 0.41 0.44 0.45 0.53 0.64 0.66 0.68 0.70 0.72 0.69 0.55 0.50 0.40 0.36 0.38 0.39 0.43 0.45 0.52 0.65 0.79 0.92 0.95 0.85 0.93 0.93 0.90 0.92 0.90 0.89 0.92 0.91 0.95 0.85 0.79 0.77 0.81 0.99
0.22 0.26 0.24 0.23 0.26 0.33 0.42 0.51 0.52 0.51 0.51 0.54 0.56 0.54 0.53 0.48 0.41 0.34 0.32 0.34 0.37 0.42 0.44 0.48 0.53 0.60 0.79 0.84 0.74 0.92 0.95 0.96 0.96 0.95 0.96 1.01 1.04 1.00 1.10 1.07 0.98 0.91 0.90
0.12 0.16 0.16 0.16 0.16 0.18 0.21 0.25 0.27 0.28 0.30 0.38 0.45 0.48 0.46 0.41 0.36 0.32 0.38 0.43 0.44 0.43 0.42 0.42 0.44 0.47 0.56 0.65 0.63 0.77 0.91 1.01 1.01 0.91 0.91 0.97 1.01 1.20 1.24 1.15 1.12 1.05 0.99
0.06 0.09 0.12 0.11 0.10 0.10 0.10 0.10 0.11 0.14 0.18 0.25 0.31 0.37 0.41 0.41 0.43 0.51 0.59 0.59 0.54 0.49 0.44 0.40 0.39 0.42 0.45 0.57 0.47 0.59 0.77 0.94 1.05 0.98 0.93 1.08 1.05 1.06 1.02 0.98 1.17 1.14 1.04
0.04 0.06 0.08 0.09 0.09 0.09 0.08 0.07 0.07 0.05 0.06 0.10 0.15 0.25 0.39 0.45 0.52 0.61 0.63 0.62 0.56 0.46 0.41 0.39 0.37 0.38 0.46 0.61 0.55 0.62 0.73 0.86 0.96 0.98 0.99 0.96 1.04 0.88 0.83 0.88 1.02 1.17 1.12
0.05 0.06 0.06 0.07 0.09 0.10 0.08 0.08 0.12 0.08 0.07 0.09 0.14 0.20 0.29 0.40 0.53 0.61 0.58 0.56 0.56 0.50 0.45 0.45 0.42 0.43 0.53 0.61 0.61 0.63 0.70 0.78 0.86 0.86 0.77 0.76 0.84 0.70 0.65 0.63 0.77 0.95 0.98
0.05 0.06 0.07 0.07 0.08 0.08 0.09 0.08 0.09 0.09 0.08 0.09 0.09 0.11 0.18 0.30 0.45 0.50 0.49 0.50 0.51 0.50 0.46 0.43 0.40 0.40 0.47 0.58 0.70 0.61 0.55 0.55 0.63 0.67 0.65 0.58 0.54 0.54 0.50 0.53 0.63 0.70 0.84
0.05 0.05 0.05 0.06 0.06 0.07 0.07 0.09 0.09 0.08 0.07 0.08 0.08 0.08 0.08 0.10 0.16 0.21 0.26 0.33 0.38 0.39 0.38 0.38 0.41 0.43 0.43 0.44 0.50 0.53 0.50 0.46 0.47 0.46 0.38 0.37 0.40 0.46 0.48 0.49 0.51 0.57 0.78
0.06 0.05 0.05 0.06 0.06 0.06 0.06 0.08 0.08 0.08 0.08 0.08 0.07 0.07 0.09 0.12 0.12 0.13 0.16 0.19 0.21 0.26 0.31 0.34 0.37 0.37 0.40 0.40 0.43 0.45 0.46 0.52 0.56 0.58 0.49 0.43 0.41 0.42 0.46 0.48 0.54 0.66 0.76
0.05 0.05 0.06 0.07 0.07 0.06 0.07 0.07 0.07 0.08 0.08 0.09 0.08 0.06 0.07 0.09 0.09 0.10 0.12 0.13 0.13 0.15 0.16 0.19 0.21 0.21 0.26 0.34 0.36 0.39 0.41 0.44 0.51 0.56 0.58 0.58 0.58 0.58 0.57 0.55 0.52 0.53 0.62

GEFSMW_prec_meanprecacc_210.txt.gz
Total_Precipitation_Accumulation
0.49 0.44 0.39 0.38 0.38 0.36 0.36 0.42 0.60 0.77 0.92 1.02 1.16 1.41 1.57 1.67 1.66 1.67 1.72 1.63 1.44 1.53 1.64 1.61 1.83 1.90 1.89 1.90 1.84 1.96 2.00 1.75 1.59 1.90 1.86 1.46 1.18 1.07 1.12 1.19 1.21 1.29 1.32
0.41 0.40 0.33 0.31 0.29 0.26 0.29 0.36 0.51 0.75 0.98 1.19 1.36 1.55 1.87 2.04 2.04 2.11 2.03 1.97 1.86 1.88 1.80 1.87 2.09 2.15 2.26 2.35 2.20 2.33 2.42 2.12 1.83 2.24 2.68 2.22 1.80 1.21 0.98 1.10 1.22 1.36 1.43
0.34 0.36 0.32 0.27 0.22 0.21 0.23 0.29 0.42 0.65 0.94 1.24 1.49 1.69 1.93 2.19 2.28 2.18 2.14 2.16 2.23 2.27 2.15 2.11 2.23 2.25 2.34 2.54 2.59 2.54 2.66 2.59 2.25 2.21 2.66 2.58 2.25 1.81 1.24 1.11 1.20 1.36 1.48
0.32 0.32 0.31 0.31 0.24 0.24 0.25 0.28 0.42 0.58 0.78 1.03 1.36 1.61 1.87 2.18 2.26 2.24 2.22 2.27 2.36 2.43 2.38 2.33 2.39 2.40 2.36 2.49 2.58 2.56 2.79 2.99 2.73 2.45 2.20 2.13 2.17 2.19 1.77 1.34 1.26 1.42 1.49
0.34 0.32 0.31 0.31 0.32 0.30 0.31 0.38 0.50 0.63 0.80 1.02 1.34 1.66 1.84 2.01 2.21 2.24 2.15 2.10 2.17 2.17 2.13 2.25 2.40 2.42 2.39 2.40 2.59 2.71 2.90 2.91 2.83 2.69 2.54 2.36 2.17 1.85 1.95 1.82 1.58 1.56 1.47
0.33 0.36 0.41 0.42 0.40 0.42 0.45 0.53 0.64 0.82 0.95 1.02 1.15 1.32 1.52 1.80 1.93 2.04 2.08 2.11 2.12 1.99 1.91 2.00 2.10 2.19 2.24 2.22 2.29 2.44 2.60 2.78 2.93 2.86 2.68 2.58 2.47 2.29 2.18 1.90 1.75 1.82 1.64
0.44 0.51 0.61 0.57 0.54 0.56 0.65 0.71 0.79 0.85 0.88 0.86 0.91 1.02 1.19 1.40 1.54 1.62 1.82 1.90 1.95 1.91 1.86 1.83 1.89 1.96 2.00 2.10 2.27 2.27 2.31 2.49 2.69 2.70 2.63 2.62 2.42 2.35 2.40 2.21 1.88 1.79 1.67
0.57 0.69 0.81 0.83 0.78 0.78 0.78 0.76 0.78 0.74 0.72 0.73 0.79 0.84 0.90 1.04 1.16 1.23 1.38 1.52 1.52 1.50 1.50 1.57 1.66 1.80 1.89 1.99 2.13 2.18 2.14 2.23 2.29 2.31 2.45 2.53 2.41 2.22 2.16 2.20 2.28 2.04 1.79
0.72 0.87 1.01 1.07 0.99 0.92 0.86 0.83 0.83 0.78 0.69 0.69 0.76 0.81 0.85 0.85 0.88 0.93 0.92 1.00 1.08 1.12 1.17 1.25 1.39 1.58 1.71 1.77 1.87 2.01 2.01 2.06 2.06 2.13 2.20 2.22 2.27 2.13 1.96 1.92 2.03 2.17 1.97
0.93 1.05 1.13 1.12 1.10 1.13 1.09 0.91 0.84 0.84 0.77 0.84 0.84 0.79 0.77 0.74 0.73 0.77 0.81 0.83 0.92 1.01 1.11 1.14 1.21 1.34 1.44 1.53 1.70 1.84 1.91 1.94 1.92 1.91 1.98 2.03 2.08 2.08 2.04 2.01 2.01 2.00 1.95
1.13 1.14 1.21 1.16 1.03 1.04 1.02 0.99 0.93 0.87 0.88 0.90 0.90 0.79 0.76 0.77 0.76 0.72 0.75 0.83 0.92 1.01 1.07 1.12 1.16 1.19 1.28 1.33 1.44 1.59 1.73 1.76 1.78 1.68 1.71 1.82 1.88 2.04 2.08 2.03 1.99 1.99 1.91
1.08 1.11 1.18 1.11 0.96 0.92 0.81 0.84 0.92 0.92 0.98 0.98 0.89 0.80 0.78 0.81 0.86 0.84 0.78 0.81 0.86 0.87 0.98 1.11 1.10 1.09 1.14 1.22 1.33 1.43 1.48 1.58 1.56 1.47 1.49 1.59 1.65 1.79 1.91 2.01 1.92 1.93 1.89
0.86 0.85 0.88 0.95 0.91 0.87 0.77 0.83 0.89 0.95 0.96 0.98 0.95 0.84 0.72 0.75 0.80 0.81 0.73 0.71 0.76 0.81 0.94 1.08 1.21 1.13 1.02 1.12 1.22 1.26 1.28 1.29 1.25 1.24 1.29 1.34 1.40 1.53 1.64 1.75 1.84 1.86 1.79
0.63 0.62 0.59 0.66 0.69 0.71 0.75 0.80 0.90 1.03 1.05 1.03 0.95 0.89 0.82 0.83 0.78 0.69 0.66 0.67 0.66 0.64 0.71 0.86 0.98 1.04 1.00 0.97 0.97 1.01 1.16 1.15 1.07 0.99 0.99 1.02 1.05 1.17 1.30 1.41 1.56 1.72 1.85
0.47 0.47 0.44 0.45 0.48 0.51 0.59 0.66 0.77 0.94 1.05 1.10 1.05 0.94 0.86 0.77 0.69 0.63 0.55 0.56 0.51 0.51 0.58 0.75 0.92 0.99 0.99 1.01 1.01 0.94 0.97 1.04 1.05 0.99 0.89 0.82 0.82 0.92 1.01 1.11 1.36 1.57 1.73
0.33 0.33 0.35 0.34 0.38 0.43 0.51 0.50 0.60 0.76 0.86 0.91 0.92 0.93 0.87 0.69 0.61 0.54 0.47 0.45 0.45 0.46 0.49 0.59 0.76 0.91 0.89 1.04 1.08 1.00 0.92 0.93 0.94 0.94 0.93 0.92 0.87 0.76 0.72 0.79 0.96 1.20 1.40
0.29 0.27 0.27 0.30 0.35 0.44 0.48 0.50 0.58 0.69 0.70 0.74 0.75 0.77 0.73 0.58 0.52 0.41 0.37 0.40 0.41 0.44 0.45 0.52 0.65 0.79 0.93 0.96 0.85 0.93 0.94 0.91 0.92 0.90 0.89 0.92 0.92 0.96 0.86 0.79 0.78 0.82 0.99
0.22 0.27 0.25 0.24 0.27 0.35 0.45 0.56 0.58 0.57 0.56 0.59 0.61 0.58 0.57 0.52 0.45 0.36 0.33 0.35 0.38 0.43 0.45 0.48 0.53 0.60 0.79 0.84 0.74 0.92 0.95 0.96 0.96 0.95 0.97 1.01 1.04 1.00 1.11 1.08 0.99 0.92 0.90
0.14 0.18 0.18 0.17 0.18 0.20 0.23 0.28 0.30 0.31 0.32 0.41 0.48 0.51 0.50 0.45 0.40 0.35 0.40 0.44 0.44 0.44 0.42 0.42 0.44 0.47 0.56 0.65 0.63 0.77 0.91 1.01 1.01 0.91 0.92 0.98 1.01 1.20 1.24 1.16 1.13 1.06 0.99
0.07 0.10 0.13 0.12 0.12 0.12 0.13 0.13 0.15 0.19 0.22 0.28 0.34 0.40 0.44 0.45 0.47 0.55 0.62 0.61 0.56 0.50 0.44 0.40 0.39 0.42 0.45 0.57 0.47 0.59 0.77 0.94 1.06 0.99 0.93 1.09 1.06 1.07 1.03 0.99 1.18 1.16 1.05
0.06 0.07 0.09 0.10 0.10 0.10 0.09 0.10 0.11 0.11 0.11 0.14 0.19 0.29 0.43 0.49 0.55 0.65 0.66 0.64 0.57 0.47 0.42 0.39 0.37 0.38 0.46 0.61 0.55 0.62 0.73 0.86 0.96 0.98 0.99 0.96 1.05 0.88 0.84 0.88 1.04 1.19 1.12
0.06 0.06 0.07 0.08 0.10 0.11 0.09 0.09 0.14 0.12 0.10 0.12 0.17 0.24 0.33 0.43 0.57 0.65 0.62 0.60 0.58 0.51 0.46 0.46 0.42 0.44 0.54 0.61 0.62 0.63 0.70 0.78 0.86 0.86 0.78 0.76 0.84 0.70 0.65 0.64 0.78 0.96 0.98
0.06 0.07 0.07 0.08 0.08 0.09 0.09 0.09 0.10 0.11 0.10 0.11 0.12 0.14 0.21 0.33 0.48 0.54 0.55 0.56 0.56 0.54 0.49 0.45 0.42 0.41 0.48 0.58 0.70 0.62 0.55 0.55 0.63 0.67 0.65 0.58 0.55 0.55 0.51 0.54 0.64 0.70 0.84
0.05 0.05 0.06 0.06 0.07 0.07 0.08 0.10 0.11 0.10 0.09 0.10 0.11 0.10 0.10 0.12 0.19 0.26 0.34 0.40 0.44 0.44 0.42 0.41 0.43 0.45 0.45 0.45 0.51 0.53 0.50 0.46 0.47 0.46 0.38 0.37 0.40 0.46 0.48 0.49 0.51 0.57 0.78
0.06 0.05 0.06 0.07 0.06 0.07 0.07 0.09 0.10 0.10 0.10 0.10 0.09 0.09 0.11 0.13 0.12 0.14 0.18 0.22 0.25 0.32 0.38 0.39 0.40 0.39 0.42 0.41 0.45 0.46 0.47 0.52 0.56 0.58 0.50 0.43 0.42 0.42 0.46 0.49 0.54 0.66 0.77
0.05 0.06 0.07 0.08 0.07 0.07 0.08 0.08 0.08 0.09 0.10 0.11 0.10 0.08 0.08 0.10 0.11 0.12 0.13 0.15 0.15 0.18 0.20 0.22 0.23 0.23 0.28 0.35 0.37 0.40 0.42 0.44 0.52 0.58 0.60 0.59 0.59 0.58 0.57 0.56 0.53 0.54 0.62

GEFSMW_prec_meanprecacc_216.txt.gz
Total_Precipitation_Accumulation
0.52 0.46 0.40 0.39 0.39 0.37 0.37 0.42 0.60 0.77 0.92 1.02 1.16 1.41 1.57 1.67 1.67 1.68 1.73 1.64 1.44 1.53 1.64 1.61 1.84 1.92 1.90 1.91 1.86 1.98 2.02 1.77 1.61 1.92 1.89 1.49 1.21 1.09 1.15 1.23 1.25 1.33 1.35
0.44 0.42 0.34 0.32 0.30 0.27 0.30 0.36 0.51 0.75 0.98 1.19 1.36 1.55 1.87 2.04 2.04 2.11 2.04 1.98 1.86 1.88 1.80 1.88 2.10 2.16 2.28 2.37 2.22 2.36 2.45 2.13 1.84 2.27 2.72 2.28 1.85 1.25 1.03 1.14 1.25 1.39 1.46
0.35 0.37 0.33 0.28 0.23 0.22 0.24 0.29 0.42 0.65 0.95 1.24 1.49 1.69 1.93 2.19 2.28 2.19 2.15 2.18 2.24 2.27 2.15 2.11 2.24 2.26 2.35 2.55 2.60 2.56 2.68 2.61 2.26 2.23 2.69 2.63 2.31 1.88 1.32 1.16 1.23 1.38 1.50
0.33 0.33 0.31 0.31 0.25 0.24 0.25 0.29 0.43 0.58 0.78 1.04 1.36 1.62 1.87 2.19 2.27 2.25 2.24 2.28 2.37 2.44 2.38 2.33 2.39 2.41 2.38 2.50 2.59 2.57 2.80 3.00 2.74 2.46 2.22 2.15 2.20 2.25 1.84 1.40 1.29 1.43 1.51
0.35 0.32 0.31 0.31 0.32 0.31 0.31 0.39 0.51 0.64 0.81 1.02 1.34 1.66 1.85 2.01 2.22 2.24 2.16 2.10 2.18 2.18 2.14 2.25 2.40 2.42 2.40 2.41 2.60 2.71 2.90 2.93 2.85 2.71 2.56 2.38 2.20 1.89 1.98 1.86 1.61 1.57 1.47
0.35 0.37 0.42 0.42 0.40 0.43 0.46 0.54 0.64 0.82 0.95 1.03 1.15 1.32 1.53 1.81 1.94 2.05 2.09 2.11 2.12 2.00 1.91 2.01 2.11 2.19 2.25 2.24 2.29 2.45 2.61 2.80 2.94 2.88 2.69 2.61 2.52 2.34 2.21 1.92 1.77 1.83 1.65
0.45 0.52 0.62 0.58 0.54 0.56 0.66 0.73 0.80 0.87 0.90 0.87 0.91 1.03 1.19 1.42 1.55 1.63 1.83 1.91 1.96 1.92 1.86 1.84 1.90 1.97 2.01 2.11 2.28 2.28 2.32 2.50 2.70 2.71 2.64 2.64 2.45 2.37 2.43 2.23 1.89 1.80 1.68
0.58 0.71 0.83 0.84 0.78 0.78 0.80 0.78 0.80 0.76 0.73 0.74 0.79 0.84 0.90 1.06 1.17 1.24 1.39 1.52 1.53 1.51 1.50 1.57 1.66 1.80 1.90 1.99 2.13 2.19 2.15 2.23 2.29 2.32 2.46 2.54 2.42 2.23 2.18 2.21 2.30 2.05 1.81
0.72 0.88 1.02 1.08 1.00 0.93 0.88 0.85 0.87 0.81 0.71 0.70 0.76 0.82 0.87 0.88 0.89 0.94 0.92 1.01 1.09 1.13 1.18 1.25 1.39 1.59 1.71 1.77 1.87 2.01 2.01 2.07 2.07 2.14 2.21 2.23 2.28 2.13 1.97 1.94 2.04 2.18 1.99
0.93 1.05 1.14 1.13 1.10 1.14 1.10 0.94 0.87 0.87 0.79 0.85 0.85 0.80 0.79 0.75 0.74 0.78 0.82 0.84 0.93 1.03 1.12 1.15 1.22 1.34 1.44 1.53 1.70 1.84 1.92 1.95 1.93 1.91 1.99 2.04 2.09 2.09 2.05 2.02 2.01 2.01 1.96
1.13 1.14 1.22 1.17 1.04 1.05 1.03 1.01 0.95 0.90 0.90 0.91 0.91 0.80 0.78 0.78 0.76 0.73 0.76 0.85 0.93 1.04 1.09 1.13 1.17 1.20 1.29 1.34 1.45 1.60 1.74 1.77 1.78 1.68 1.71 1.83 1.88 2.05 2.08 2.04 2.00 1.99 1.92
1.08 1.11 1.19 1.12 0.96 0.93 0.83 0.86 0.94 0.95 1.00 0.99 0.90 0.81 0.82 0.83 0.87 0.85 0.79 0.83 0.88 0.90 0.99 1.12 1.10 1.09 1.14 1.23 1.34 1.43 1.48 1.59 1.56 1.48 1.50 1.60 1.66 1.80 1.92 2.02 1.93 1.93 1.89
0.87 0.85 0.88 0.96 0.92 0.88 0.79 0.85 0.91 0.98 0.98 1.00 0.98 0.87 0.76 0.77 0.82 0.82 0.75 0.73 0.78 0.82 0.95 1.09 1.21 1.13 1.03 1.12 1.22 1.26 1.29 1.30 1.26 1.25 1.30 1.35 1.41 1.54 1.65 1.76 1.85 1.86 1.79
0.63 0.62 0.60 0.67 0.70 0.72 0.77 0.82 0.92 1.06 1.09 1.07 1.00 0.96 0.88 0.88 0.81 0.71 0.68 0.69 0.68 0.66 0.72 0.87 0.98 1.04 1.01 0.97 0.98 1.02 1.17 1.17 1.08 1.01 1.01 1.03 1.05 1.17 1.31 1.41 1.57 1.74 1.86
0.47 0.47 0.44 0.46 0.49 0.53 0.61 0.68 0.79 0.96 1.08 1.14 1.10 1.01 0.94 0.83 0.74 0.66 0.58 0.58 0.53 0.53 0.60 0.77 0.93 0.99 0.99 1.02 1.02 0.95 0.99 1.05 1.07 1.01 0.90 0.82 0.82 0.92 1.01 1.11 1.37 1.57 1.74
0.33 0.33 0.35 0.35 0.39 0.45 0.53 0.53 0.62 0.79 0.90 0.96 0.97 0.99 0.94 0.77 0.68 0.59 0.51 0.48 0.47 0.48 0.51 0.60 0.76 0.92 0.89 1.05 1.09 1.01 0.92 0.94 0.95 0.96 0.94 0.93 0.88 0.76 0.73 0.80 0.96 1.21 1.42
0.29 0.27 0.27 0.30 0.36 0.45 0.49 0.53 0.62 0.72 0.75 0.79 0.80 0.82 0.80 0.65 0.58 0.47 0.42 0.43 0.44 0.46 0.46 0.53 0.66 0.79 0.94 0.97 0.86 0.94 0.94 0.91 0.92 0.90 0.90 0.93 0.92 0.96 0.86 0.80 0.79 0.83 1.00
0.22 0.27 0.25 0.24 0.28 0.36 0.46 0.57 0.60 0.60 0.60 0.64 0.65 0.63 0.62 0.58 0.50 0.41 0.38 0.39 0.42 0.46 0.46 0.49 0.54 0.61 0.79 0.84 0.75 0.93 0.96 0.96 0.97 0.95 0.97 1.01 1.04 1.00 1.11 1.09 0.99 0.92 0.91
0.14 0.18 0.18 0.17 0.18 0.21 0.24 0.29 0.32 0.33 0.35 0.44 0.51 0.55 0.55 0.51 0.45 0.40 0.45 0.50 0.48 0.47 0.45 0.43 0.45 0.48 0.56 0.65 0.63 0.77 0.91 1.01 1.01 0.91 0.92 0.98 1.02 1.21 1.25 1.16 1.14 1.06 1.00
0.07 0.10 0.13 0.12 0.12 0.13 0.14 0.15 0.17 0.20 0.23 0.29 0.35 0.42 0.47 0.49 0.51 0.59 0.67 0.67 0.63 0.56 0.49 0.44 0.41 0.43 0.45 0.58 0.47 0.59 0.77 0.94 1.06 0.99 0.94 1.09 1.06 1.07 1.03 1.00 1.19 1.17 1.05
0.06 0.07 0.09 0.10 0.11 0.11 0.10 0.12 0.13 0.13 0.13 0.14 0.20 0.31 0.45 0.52 0.59 0.68 0.70 0.67 0.61 0.54 0.49 0.46 0.42 0.40 0.47 0.61 0.55 0.63 0.73 0.86 0.97 0.99 1.00 0.97 1.05 0.88 0.84 0.89 1.04 1.20 1.14
0.06 0.07 0.07 0.08 0.10 0.11 0.09 0.09 0.15 0.14 0.13 0.14 0.18 0.26 0.36 0.48 0.61 0.68 0.64 0.62 0.61 0.55 0.50 0.51 0.47 0.47 0.56 0.62 0.62 0.64 0.70 0.78 0.87 0.87 0.78 0.77 0.84 0.70 0.65 0.65 0.79 0.97 1.00
0.06 0.07 0.08 0.08 0.09 0.09 0.09 0.09 0.11 0.13 0.13 0.14 0.14 0.16 0.24 0.37 0.53 0.58 0.59 0.60 0.61 0.58 0.53 0.49 0.47 0.46 0.53 0.61 0.71 0.63 0.56 0.55 0.64 0.67 0.65 0.58 0.55 0.55 0.51 0.54 0.64 0.71 0.86
0.05 0.05 0.06 0.07 0.07 0.08 0.09 0.11 0.12 0.11 0.11 0.13 0.14 0.12 0.12 0.16 0.23 0.30 0.38 0.44 0.48 0.48 0.46 0.45 0.46 0.48 0.48 0.47 0.52 0.55 0.52 0.47 0.47 0.46 0.38 0.37 0.40 0.46 0.48 0.49 0.51 0.58 0.80
0.06 0.05 0.06 0.07 0.06 0.07 0.07 0.10 0.11 0.11 0.11 0.12 0.12 0.12 0.13 0.15 0.15 0.17 0.22 0.26 0.28 0.35 0.41 0.42 0.43 0.43 0.44 0.43 0.46 0.47 0.48 0.54 0.57 0.59 0.50 0.44 0.42 0.42 0.46 0.49 0.54 0.66 0.77
0.05 0.06 0.07 0.08 0.07 0.08 0.08 0.08 0.09 0.10 0.11 0.12 0.11 0.09 0.10 0.12 0.13 0.14 0.16 0.18 0.18 0.22 0.25 0.27 0.27 0.25 0.30 0.37 0.38 0.41 0.43 0.45 0.53 0.60 0.61 0.60 0.59 0.58 0.57 0.56 0.53 0.54 0.62

GEFSMW_prec_meanprecacc_222.txt.gz
Total_Precipitation_Accumulation
0.54 0.48 0.42 0.45 0.46 0.40 0.39 0.44 0.61 0.77 0.92 1.02 1.16 1.41 1.57 1.67 1.67 1.68 1.73 1.64 1.44 1.53 1.64 1.61 1.84 1.92 1.91 1.91 1.86 1.99 2.03 1.78 1.61 1.93 1.90 1.52 1.23 1.11 1.18 1.26 1.29 1.36 1.38
0.47 0.44 0.36 0.34 0.34 0.31 0.32 0.37 0.51 0.76 0.99 1.19 1.37 1.56 1.87 2.04 2.04 2.12 2.04 1.98 1.86 1.88 1.80 1.88 2.10 2.16 2.28 2.37 2.22 2.36 2.45 2.14 1.85 2.28 2.74 2.31 1.88 1.28 1.05 1.17 1.29 1.43 1.49
0.37 0.38 0.34 0.30 0.25 0.26 0.26 0.30 0.43 0.66 0.96 1.25 1.50 1.70 1.93 2.19 2.28 2.19 2.16 2.18 2.24 2.27 2.15 2.11 2.24 2.27 2.35 2.56 2.61 2.56 2.68 2.61 2.27 2.23 2.70 2.66 2.34 1.92 1.37 1.20 1.26 1.41 1.53
0.35 0.34 0.32 0.32 0.27 0.27 0.27 0.31 0.44 0.60 0.79 1.05 1.37 1.63 1.88 2.19 2.27 2.25 2.24 2.28 2.37 2.44 2.38 2.33 2.40 2.41 2.38 2.51 2.60 2.57 2.80 3.00 2.74 2.46 2.23 2.18 2.23 2.28 1.88 1.46 1.33 1.45 1.53
0.37 0.33 0.32 0.32 0.34 0.33 0.33 0.41 0.52 0.65 0.82 1.04 1.35 1.68 1.86 2.01 2.22 2.25 2.16 2.11 2.18 2.18 2.14 2.25 2.41 2.42 2.41 2.42 2.60 2.71 2.90 2.93 2.85 2.72 2.57 2.40 2.24 1.91 2.00 1.90 1.64 1.59 1.49
0.37 0.38 0.42 0.43 0.41 0.45 0.49 0.57 0.67 0.84 0.97 1.05 1.17 1.34 1.54 1.81 1.94 2.05 2.09 2.12 2.13 2.01 1.91 2.01 2.11 2.20 2.26 2.25 2.30 2.45 2.61 2.80 2.95 2.88 2.70 2.62 2.55 2.38 2.23 1.93 1.78 1.83 1.66
0.47 0.54 0.63 0.58 0.55 0.58 0.68 0.75 0.83 0.89 0.92 0.89 0.94 1.05 1.21 1.43 1.55 1.64 1.84 1.93 1.97 1.93 1.87 1.84 1.90 1.97 2.02 2.12 2.29 2.28 2.33 2.51 2.71 2.71 2.65 2.65 2.48 2.41 2.45 2.23 1.89 1.80 1.69
0.59 0.73 0.84 0.84 0.79 0.79 0.81 0.80 0.83 0.78 0.76 0.77 0.83 0.88 0.93 1.08 1.18 1.26 1.41 1.55 1.55 1.53 1.51 1.58 1.67 1.81 1.90 1.99 2.14 2.19 2.16 2.24 2.30 2.32 2.46 2.55 2.44 2.25 2.20 2.23 2.30 2.05 1.81
0.73 0.89 1.05 1.10 1.00 0.93 0.89 0.86 0.88 0.82 0.73 0.72 0.79 0.84 0.89 0.90 0.92 0.97 0.96 1.05 1.13 1.15 1.19 1.26 1.39 1.59 1.72 1.77 1.87 2.02 2.02 2.08 2.08 2.14 2.22 2.24 2.28 2.14 1.98 1.95 2.05 2.19 1.99
0.94 1.06 1.16 1.16 1.13 1.15 1.11 0.95 0.89 0.89 0.81 0.88 0.87 0.82 0.81 0.78 0.77 0.81 0.86 0.88 0.95 1.04 1.14 1.16 1.22 1.35 1.44 1.54 1.70 1.84 1.93 1.96 1.94 1.93 2.00 2.05 2.10 2.10 2.06 2.02 2.02 2.01 1.96
1.14 1.15 1.23 1.19 1.07 1.07 1.05 1.02 0.96 0.91 0.92 0.93 0.93 0.81 0.80 0.81 0.79 0.77 0.80 0.89 0.96 1.05 1.11 1.14 1.18 1.21 1.29 1.35 1.46 1.61 1.76 1.79 1.80 1.70 1.73 1.83 1.90 2.06 2.09 2.05 2.01 1.99 1.92
1.09 1.12 1.20 1.14 0.98 0.94 0.84 0.87 0.95 0.95 1.01 1.01 0.92 0.83 0.85 0.86 0.90 0.88 0.84 0.87 0.91 0.92 1.01 1.12 1.11 1.10 1.15 1.24 1.35 1.44 1.50 1.61 1.58 1.49 1.50 1.61 1.67 1.81 1.93 2.02 1.93 1.94 1.89
0.87 0.86 0.90 0.97 0.93 0.89 0.80 0.86 0.92 0.99 0.99 1.01 1.00 0.90 0.79 0.80 0.85 0.86 0.80 0.77 0.81 0.85 0.97 1.10 1.22 1.13 1.03 1.13 1.22 1.27 1.30 1.32 1.27 1.26 1.31 1.36 1.42 1.55 1.66 1.76 1.85 1.86 1.79
0.64 0.63 0.60 0.67 0.71 0.73 0.78 0.83 0.93 1.07 1.10 1.08 1.02 0.97 0.90 0.91 0.84 0.75 0.72 0.73 0.72 0.69 0.75 0.89 1.00 1.05 1.01 0.98 0.99 1.02 1.18 1.18 1.09 1.02 1.02 1.04 1.06 1.18 1.31 1.42 1.57 1.74 1.86
0.48 0.47 0.45 0.47 0.51 0.54 0.63 0.69 0.80 0.97 1.08 1.15 1.11 1.02 0.95 0.86 0.78 0.70 0.61 0.62 0.55 0.54 0.62 0.79 0.95 1.01 1.01 1.02 1.02 0.96 1.00 1.06 1.08 1.02 0.91 0.83 0.83 0.93 1.02 1.11 1.37 1.57 1.74
0.34 0.34 0.36 0.37 0.42 0.47 0.55 0.54 0.64 0.80 0.91 0.97 0.99 1.02 0.98 0.81 0.72 0.63 0.54 0.50 0.49 0.50 0.53 0.63 0.79 0.94 0.91 1.07 1.11 1.02 0.94 0.95 0.96 0.96 0.95 0.94 0.89 0.77 0.74 0.80 0.97 1.21 1.42
0.30 0.28 0.28 0.31 0.37 0.46 0.51 0.54 0.63 0.73 0.76 0.80 0.82 0.86 0.85 0.70 0.64 0.53 0.45 0.45 0.45 0.48 0.49 0.56 0.69 0.83 0.97 0.99 0.88 0.95 0.95 0.92 0.93 0.91 0.90 0.93 0.93 0.97 0.87 0.81 0.80 0.83 1.01
0.23 0.28 0.26 0.25 0.28 0.36 0.47 0.59 0.62 0.61 0.62 0.66 0.68 0.66 0.66 0.62 0.54 0.44 0.41 0.41 0.43 0.47 0.48 0.50 0.56 0.64 0.82 0.87 0.78 0.96 0.98 0.99 0.98 0.96 0.97 1.01 1.04 1.01 1.12 1.09 1.00 0.93 0.92
0.15 0.19 0.19 0.18 0.19 0.22 0.25 0.30 0.33 0.34 0.35 0.45 0.53 0.57 0.58 0.54 0.49 0.43 0.48 0.51 0.50 0.49 0.46 0.45 0.47 0.50 0.58 0.67 0.65 0.79 0.93 1.03 1.03 0.93 0.92 0.98 1.02 1.21 1.25 1.17 1.15 1.07 1.01
0.08 0.11 0.14 0.13 0.13 0.14 0.15 0.16 0.18 0.21 0.23 0.29 0.36 0.43 0.49 0.52 0.53 0.63 0.69 0.69 0.64 0.57 0.49 0.45 0.43 0.46 0.48 0.60 0.49 0.61 0.78 0.95 1.07 1.00 0.94 1.09 1.06 1.08 1.03 1.00 1.19 1.17 1.06
0.06 0.07 0.10 0.11 0.12 0.12 0.11 0.13 0.14 0.14 0.14 0.15 0.21 0.31 0.46 0.53 0.61 0.72 0.75 0.71 0.63 0.55 0.51 0.47 0.43 0.43 0.51 0.64 0.58 0.64 0.74 0.87 0.98 1.00 1.01 0.97 1.05 0.88 0.84 0.89 1.04 1.20 1.14
0.06 0.07 0.07 0.08 0.11 0.12 0.10 0.10 0.16 0.15 0.14 0.15 0.19 0.27 0.38 0.49 0.62 0.70 0.67 0.67 0.66 0.59 0.53 0.52 0.49 0.49 0.59 0.66 0.66 0.67 0.73 0.80 0.88 0.88 0.78 0.77 0.84 0.70 0.66 0.65 0.79 0.97 1.01
0.06 0.07 0.08 0.08 0.09 0.10 0.10 0.10 0.12 0.15 0.14 0.15 0.14 0.17 0.25 0.38 0.55 0.61 0.62 0.62 0.64 0.62 0.58 0.53 0.50 0.50 0.56 0.66 0.76 0.66 0.59 0.58 0.66 0.69 0.67 0.59 0.56 0.55 0.51 0.54 0.64 0.72 0.87
0.06 0.05 0.07 0.07 0.08 0.09 0.10 0.12 0.14 0.14 0.13 0.14 0.15 0.14 0.14 0.17 0.25 0.33 0.40 0.47 0.52 0.53 0.53 0.51 0.51 0.53 0.53 0.52 0.58 0.60 0.56 0.51 0.50 0.48 0.40 0.38 0.41 0.47 0.49 0.49 0.51 0.58 0.80
0.06 0.05 0.06 0.07 0.07 0.08 0.08 0.10 0.13 0.14 0.14 0.14 0.14 0.14 0.16 0.17 0.18 0.19 0.24 0.29 0.32 0.39 0.45 0.44 0.46 0.46 0.48 0.47 0.50 0.51 0.52 0.57 0.60 0.61 0.52 0.45 0.43 0.43 0.46 0.49 0.54 0.66 0.77
0.06 0.06 0.07 0.08 0.08 0.08 0.09 0.08 0.09 0.11 0.13 0.14 0.13 0.12 0.12 0.14 0.15 0.16 0.18 0.21 0.22 0.27 0.29 0.30 0.29 0.27 0.33 0.40 0.41 0.42 0.44 0.47 0.55 0.61 0.62 0.61 0.60 0.59 0.58 0.56 0.53 0.54 0.63

GEFSMW_prec_meanprecacc_228.txt.gz
Total_Precipitation_Accumulation
0.56 0.51 0.44 0.48 0.50 0.44 0.43 0.47 0.63 0.80 0.94 1.03 1.17 1.41 1.57 1.67 1.67 1.68 1.73 1.64 1.44 1.53 1.64 1.62 1.84 1.92 1.91 1.91 1.86 1.99 2.03 1.78 1.62 1.94 1.91 1.53 1.24 1.12 1.20 1.28 1.32 1.41 1.43
0.48 0.45 0.37 0.36 0.37 0.35 0.36 0.41 0.56 0.80 1.02 1.21 1.38 1.56 1.88 2.04 2.05 2.12 2.04 1.98 1.86 1.88 1.80 1.88 2.10 2.16 2.28 2.37 2.22 2.36 2.46 2.14 1.85 2.28 2.74 2.32 1.89 1.30 1.08 1.20 1.33 1.47 1.53
0.37 0.39 0.35 0.31 0.27 0.28 0.30 0.33 0.46 0.69 0.98 1.27 1.52 1.71 1.94 2.19 2.29 2.19 2.16 2.18 2.24 2.27 2.16 2.11 2.24 2.27 2.35 2.56 2.61 2.56 2.68 2.61 2.27 2.24 2.71 2.67 2.34 1.94 1.41 1.24 1.30 1.44 1.55
0.36 0.34 0.33 0.33 0.28 0.29 0.30 0.34 0.46 0.62 0.82 1.07 1.39 1.64 1.89 2.20 2.28 2.25 2.24 2.28 2.37 2.44 2.38 2.33 2.40 2.41 2.38 2.51 2.60 2.57 2.80 3.01 2.75 2.47 2.24 2.19 2.24 2.30 1.92 1.50 1.36 1.47 1.54
0.39 0.34 0.33 0.33 0.35 0.34 0.36 0.44 0.56 0.68 0.85 1.07 1.38 1.70 1.87 2.03 2.23 2.26 2.17 2.11 2.18 2.18 2.14 2.25 2.41 2.42 2.41 2.43 2.60 2.71 2.91 2.93 2.86 2.73 2.58 2.42 2.25 1.93 2.01 1.92 1.66 1.61 1.51
0.39 0.39 0.43 0.43 0.42 0.46 0.52 0.60 0.71 0.88 1.01 1.07 1.19 1.35 1.56 1.83 1.96 2.07 2.11 2.13 2.14 2.01 1.91 2.01 2.11 2.20 2.26 2.26 2.31 2.45 2.61 2.81 2.95 2.89 2.70 2.63 2.57 2.39 2.24 1.94 1.79 1.85 1.68
0.49 0.55 0.63 0.59 0.56 0.59 0.70 0.77 0.85 0.91 0.95 0.91 0.95 1.06 1.23 1.45 1.58 1.67 1.86 1.95 1.99 1.95 1.88 1.85 1.90 1.97 2.02 2.12 2.30 2.29 2.33 2.52 2.72 2.73 2.66 2.66 2.51 2.43 2.47 2.24 1.90 1.81 1.69
0.60 0.74 0.84 0.85 0.79 0.80 0.83 0.82 0.84 0.80 0.78 0.79 0.84 0.89 0.95 1.10 1.21 1.29 1.44 1.58 1.58 1.57 1.55 1.59 1.67 1.81 1.90 2.00 2.14 2.20 2.17 2.25 2.32 2.35 2.49 2.57 2.48 2.28 2.23 2.25 2.31 2.06 1.82
0.74 0.91 1.07 1.10 1.01 0.94 0.90 0.88 0.89 0.83 0.75 0.74 0.81 0.86 0.90 0.91 0.93 0.99 0.98 1.07 1.16 1.18 1.21 1.28 1.41 1.60 1.73 1.78 1.88 2.02 2.03 2.09 2.09 2.16 2.23 2.25 2.30 2.18 2.01 1.98 2.08 2.21 2.00
0.95 1.07 1.19 1.18 1.14 1.17 1.13 0.97 0.90 0.90 0.81 0.89 0.89 0.83 0.82 0.79 0.78 0.82 0.87 0.90 0.97 1.06 1.16 1.18 1.24 1.37 1.46 1.55 1.71 1.85 1.94 1.98 1.95 1.93 2.00 2.05 2.11 2.12 2.10 2.06 2.05 2.04 1.98
1.14 1.16 1.24 1.22 1.10 1.10 1.07 1.03 0.97 0.92 0.93 0.94 0.95 0.82 0.81 0.81 0.79 0.77 0.81 0.90 0.97 1.07 1.13 1.17 1.21 1.23 1.31 1.37 1.48 1.62 1.76 1.80 1.81 1.70 1.73 1.84 1.90 2.07 2.12 2.09 2.04 2.01 1.93
1.09 1.13 1.21 1.15 1.00 0.97 0.86 0.89 0.96 0.96 1.03 1.02 0.93 0.84 0.86 0.88 0.91 0.89 0.84 0.88 0.93 0.94 1.03 1.14 1.12 1.12 1.17 1.25 1.36 1.45 1.51 1.62 1.59 1.50 1.51 1.62 1.68 1.82 1.94 2.04 1.95 1.95 1.90
0.87 0.87 0.90 0.98 0.95 0.91 0.81 0.88 0.94 1.00 1.00 1.03 1.02 0.91 0.80 0.82 0.86 0.86 0.81 0.79 0.82 0.86 0.98 1.12 1.24 1.15 1.05 1.15 1.25 1.28 1.32 1.34 1.28 1.27 1.32 1.37 1.43 1.56 1.67 1.77 1.86 1.87 1.80
0.65 0.64 0.61 0.68 0.72 0.75 0.80 0.84 0.95 1.08 1.11 1.09 1.03 0.98 0.91 0.92 0.85 0.76 0.74 0.75 0.73 0.69 0.75 0.89 1.01 1.07 1.04 1.00 1.02 1.05 1.20 1.20 1.12 1.03 1.03 1.05 1.08 1.19 1.32 1.43 1.58 1.74 1.87
0.48 0.49 0.46 0.48 0.52 0.55 0.64 0.70 0.81 0.99 1.10 1.17 1.13 1.04 0.96 0.86 0.78 0.71 0.63 0.64 0.56 0.55 0.62 0.79 0.96 1.02 1.02 1.05 1.04 0.98 1.02 1.08 1.10 1.03 0.92 0.85 0.84 0.94 1.02 1.12 1.38 1.58 1.74
0.35 0.35 0.37 0.38 0.43 0.48 0.55 0.56 0.65 0.81 0.92 0.98 1.01 1.04 0.99 0.83 0.73 0.65 0.56 0.53 0.51 0.51 0.54 0.63 0.79 0.94 0.92 1.08 1.13 1.05 0.96 0.97 0.98 0.98 0.96 0.95 0.90 0.79 0.75 0.81 0.98 1.22 1.43
0.31 0.29 0.30 0.33 0.39 0.47 0.51 0.56 0.64 0.75 0.78 0.82 0.85 0.89 0.88 0.73 0.65 0.54 0.47 0.48 0.48 0.50 0.50 0.57 0.69 0.83 0.97 1.00 0.89 0.97 0.98 0.95 0.95 0.93 0.92 0.94 0.94 0.99 0.88 0.82 0.80 0.84 1.01
0.24 0.29 0.27 0.27 0.30 0.37 0.48 0.61 0.64 0.64 0.64 0.68 0.70 0.69 0.69 0.64 0.57 0.46 0.43 0.43 0.45 0.49 0.50 0.52 0.57 0.64 0.83 0.88 0.78 0.96 1.00 1.01 1.00 0.98 0.99 1.02 1.05 1.02 1.13 1.10 1.00 0.93 0.92
0.15 0.20 0.20 0.20 0.20 0.23 0.26 0.32 0.36 0.38 0.38 0.46 0.53 0.58 0.59 0.56 0.51 0.45 0.50 0.53 0.51 0.49 0.47 0.46 0.48 0.51 0.59 0.69 0.66 0.80 0.94 1.05 1.05 0.95 0.94 0.99 1.03 1.22 1.26 1.17 1.15 1.07 1.01
0.08 0.11 0.14 0.14 0.14 0.15 0.16 0.18 0.20 0.23 0.25 0.30 0.37 0.44 0.50 0.53 0.55 0.65 0.71 0.70 0.66 0.58 0.50 0.46 0.44 0.47 0.49 0.62 0.51 0.63 0.80 0.97 1.09 1.02 0.96 1.11 1.07 1.08 1.04 1.00 1.19 1.17 1.06
0.06 0.08 0.10 0.11 0.12 0.13 0.12 0.14 0.16 0.15 0.16 0.16 0.22 0.32 0.48 0.54 0.62 0.74 0.77 0.73 0.66 0.58 0.53 0.49 0.45 0.44 0.52 0.67 0.60 0.67 0.77 0.90 1.00 1.02 1.02 0.98 1.06 0.89 0.85 0.90 1.05 1.20 1.15
0.07 0.07 0.08 0.09 0.11 0.13 0.10 0.11 0.17 0.16 0.16 0.16 0.20 0.28 0.39 0.50 0.63 0.72 0.70 0.69 0.69 0.63 0.57 0.56 0.52 0.52 0.60 0.67 0.67 0.69 0.74 0.82 0.90 0.89 0.80 0.78 0.85 0.71 0.66 0.66 0.79 0.98 1.01
0.07 0.08 0.09 0.09 0.09 0.10 0.11 0.10 0.13 0.15 0.15 0.16 0.15 0.18 0.26 0.40 0.56 0.63 0.64 0.65 0.67 0.65 0.62 0.59 0.56 0.55 0.60 0.69 0.79 0.69 0.60 0.59 0.67 0.70 0.68 0.61 0.58 0.57 0.52 0.55 0.65 0.73 0.88
0.06 0.06 0.07 0.07 0.08 0.10 0.11 0.13 0.15 0.15 0.14 0.16 0.16 0.15 0.16 0.21 0.28 0.35 0.42 0.49 0.54 0.55 0.55 0.55 0.56 0.57 0.57 0.55 0.61 0.62 0.57 0.52 0.51 0.49 0.42 0.40 0.43 0.49 0.50 0.50 0.52 0.59 0.81
0.07 0.06 0.07 0.07 0.07 0.08 0.09 0.11 0.14 0.15 0.15 0.16 0.17 0.17 0.18 0.21 0.22 0.23 0.27 0.31 0.34 0.41 0.47 0.47 0.49 0.49 0.51 0.50 0.54 0.55 0.55 0.60 0.63 0.64 0.54 0.47 0.44 0.44 0.48 0.50 0.55 0.67 0.79
0.07 0.07 0.08 0.08 0.08 0.09 0.09 0.09 0.10 0.12 0.13 0.14 0.14 0.12 0.14 0.16 0.18 0.20 0.22 0.24 0.25 0.30 0.32 0.33 0.33 0.32 0.38 0.46 0.46 0.47 0.48 0.51 0.59 0.64 0.65 0.63 0.62 0.61 0.59 0.58 0.54 0.55 0.64

GEFSMW_prec_meanprecacc_234.txt.gz
Total_Precipitation_Accumulation
0.57 0.51 0.44 0.49 0.52 0.47 0.47 0.51 0.65 0.82 0.95 1.05 1.18 1.42 1.58 1.68 1.69 1.68 1.73 1.64 1.45 1.53 1.64 1.62 1.85 1.92 1.91 1.92 1.87 2.01 2.05 1.80 1.63 1.95 1.93 1.54 1.25 1.13 1.21 1.30 1.35 1.46 1.46
0.48 0.45 0.37 0.36 0.39 0.39 0.40 0.46 0.59 0.82 1.04 1.23 1.40 1.58 1.89 2.05 2.05 2.12 2.05 1.98 1.86 1.88 1.80 1.88 2.11 2.17 2.29 2.39 2.24 2.38 2.48 2.16 1.86 2.30 2.77 2.34 1.91 1.31 1.09 1.23 1.38 1.55 1.57
0.38 0.39 0.35 0.31 0.28 0.30 0.33 0.39 0.49 0.71 1.00 1.29 1.53 1.73 1.95 2.21 2.29 2.20 2.16 2.18 2.24 2.28 2.16 2.11 2.25 2.28 2.36 2.58 2.62 2.57 2.69 2.63 2.28 2.24 2.74 2.71 2.37 1.96 1.43 1.27 1.34 1.51 1.61
0.37 0.35 0.33 0.34 0.29 0.30 0.34 0.40 0.49 0.63 0.84 1.10 1.41 1.65 1.90 2.22 2.30 2.27 2.25 2.29 2.37 2.44 2.39 2.33 2.40 2.42 2.39 2.53 2.61 2.58 2.81 3.03 2.77 2.49 2.26 2.21 2.26 2.32 1.94 1.52 1.39 1.52 1.60
0.40 0.35 0.34 0.34 0.36 0.36 0.40 0.49 0.58 0.70 0.86 1.09 1.40 1.72 1.89 2.05 2.24 2.27 2.18 2.12 2.19 2.19 2.15 2.25 2.41 2.43 2.42 2.44 2.61 2.72 2.92 2.94 2.88 2.75 2.60 2.43 2.27 1.94 2.02 1.93 1.68 1.64 1.55
0.40 0.41 0.44 0.44 0.43 0.48 0.55 0.66 0.73 0.90 1.03 1.09 1.21 1.37 1.58 1.85 1.97 2.08 2.12 2.14 2.15 2.02 1.92 2.02 2.11 2.20 2.27 2.26 2.31 2.46 2.62 2.82 2.97 2.90 2.72 2.66 2.60 2.41 2.25 1.95 1.81 1.87 1.71
0.50 0.57 0.64 0.60 0.57 0.61 0.72 0.81 0.88 0.94 0.98 0.93 0.96 1.08 1.24 1.47 1.60 1.68 1.88 1.96 2.00 1.95 1.89 1.85 1.91 1.98 2.02 2.12 2.30 2.30 2.34 2.53 2.73 2.74 2.67 2.67 2.52 2.44 2.48 2.25 1.91 1.82 1.71
0.61 0.75 0.85 0.85 0.80 0.81 0.84 0.84 0.87 0.82 0.80 0.82 0.86 0.90 0.96 1.12 1.23 1.31 1.46 1.59 1.58 1.57 1.55 1.60 1.68 1.82 1.91 2.00 2.15 2.21 2.17 2.25 2.32 2.35 2.49 2.58 2.49 2.29 2.24 2.26 2.33 2.08 1.84
0.74 0.92 1.07 1.10 1.01 0.95 0.91 0.90 0.92 0.85 0.77 0.78 0.85 0.87 0.91 0.92 0.94 1.00 1.00 1.08 1.16 1.19 1.22 1.28 1.41 1.61 1.73 1.78 1.89 2.04 2.04 2.09 2.09 2.16 2.23 2.25 2.31 2.18 2.02 1.99 2.09 2.22 2.02
0.96 1.08 1.20 1.19 1.14 1.17 1.13 0.97 0.92 0.93 0.84 0.90 0.91 0.85 0.83 0.79 0.78 0.83 0.88 0.90 0.97 1.06 1.16 1.18 1.25 1.37 1.47 1.56 1.72 1.86 1.95 1.98 1.95 1.94 2.01 2.05 2.11 2.13 2.10 2.06 2.06 2.05 1.99
1.15 1.18 1.25 1.23 1.11 1.11 1.07 1.04 0.98 0.95 0.95 0.96 0.96 0.84 0.82 0.82 0.79 0.78 0.82 0.91 0.98 1.07 1.13 1.17 1.21 1.23 1.32 1.37 1.48 1.63 1.78 1.80 1.81 1.71 1.74 1.84 1.91 2.08 2.12 2.09 2.05 2.02 1.93
1.10 1.14 1.21 1.16 1.02 0.99 0.87 0.89 0.97 0.97 1.04 1.03 0.95 0.86 0.88 0.89 0.92 0.89 0.85 0.89 0.93 0.94 1.03 1.14 1.13 1.12 1.17 1.26 1.36 1.45 1.52 1.63 1.59 1.50 1.52 1.62 1.69 1.83 1.95 2.05 1.96 1.96 1.91
0.87 0.87 0.90 0.99 0.96 0.92 0.84 0.89 0.95 1.01 1.01 1.04 1.04 0.92 0.81 0.83 0.87 0.87 0.81 0.79 0.83 0.86 0.98 1.12 1.24 1.16 1.06 1.16 1.25 1.29 1.32 1.34 1.29 1.27 1.32 1.37 1.44 1.57 1.68 1.78 1.87 1.88 1.81
0.65 0.64 0.61 0.69 0.73 0.76 0.81 0.86 0.96 1.10 1.13 1.11 1.05 0.99 0.92 0.93 0.86 0.78 0.75 0.76 0.74 0.70 0.75 0.89 1.01 1.07 1.04 1.01 1.02 1.05 1.20 1.21 1.12 1.04 1.03 1.06 1.08 1.19 1.33 1.44 1.59 1.75 1.88
0.48 0.49 0.47 0.49 0.53 0.56 0.65 0.72 0.82 1.01 1.12 1.19 1.16 1.07 0.99 0.88 0.80 0.73 0.64 0.65 0.58 0.56 0.63 0.79 0.96 1.02 1.03 1.05 1.05 0.98 1.02 1.08 1.11 1.04 0.93 0.85 0.85 0.94 1.03 1.13 1.39 1.59 1.75
0.36 0.35 0.38 0.39 0.44 0.49 0.56 0.57 0.67 0.83 0.94 1.00 1.03 1.07 1.02 0.85 0.75 0.66 0.58 0.54 0.52 0.52 0.54 0.63 0.79 0.94 0.92 1.08 1.13 1.05 0.96 0.97 0.98 0.98 0.96 0.95 0.91 0.79 0.75 0.82 0.99 1.23 1.44
0.31 0.29 0.30 0.33 0.39 0.48 0.52 0.57 0.66 0.77 0.80 0.85 0.87 0.91 0.89 0.74 0.67 0.56 0.48 0.49 0.49 0.51 0.51 0.57 0.70 0.84 0.98 1.01 0.90 0.97 0.99 0.95 0.96 0.93 0.92 0.95 0.94 0.99 0.89 0.83 0.81 0.85 1.02
0.24 0.29 0.28 0.27 0.30 0.38 0.49 0.62 0.65 0.65 0.65 0.70 0.72 0.71 0.71 0.65 0.57 0.47 0.44 0.44 0.46 0.50 0.51 0.53 0.57 0.65 0.84 0.89 0.79 0.97 1.01 1.01 1.01 0.99 1.00 1.03 1.06 1.02 1.13 1.11 1.01 0.94 0.93
0.15 0.20 0.20 0.20 0.21 0.23 0.27 0.32 0.37 0.39 0.40 0.49 0.56 0.61 0.61 0.57 0.51 0.46 0.51 0.54 0.52 0.50 0.48 0.47 0.48 0.52 0.61 0.70 0.67 0.81 0.96 1.07 1.07 0.97 0.95 1.01 1.03 1.23 1.27 1.18 1.15 1.08 1.02
0.08 0.11 0.15 0.14 0.14 0.15 0.17 0.19 0.21 0.24 0.25 0.31 0.37 0.45 0.51 0.54 0.56 0.66 0.72 0.71 0.66 0.58 0.51 0.46 0.45 0.48 0.51 0.64 0.53 0.64 0.81 0.99 1.12 1.05 0.98 1.13 1.09 1.10 1.05 1.02 1.20 1.18 1.07
0.06 0.08 0.10 0.11 0.13 0.13 0.13 0.15 0.17 0.16 0.17 0.17 0.23 0.33 0.49 0.55 0.63 0.75 0.78 0.74 0.66 0.58 0.53 0.49 0.45 0.45 0.54 0.68 0.61 0.68 0.78 0.91 1.02 1.04 1.04 0.99 1.07 0.91 0.86 0.92 1.06 1.21 1.15
0.07 0.07 0.08 0.09 0.12 0.13 0.11 0.12 0.18 0.17 0.18 0.17 0.21 0.29 0.39 0.51 0.64 0.73 0.71 0.70 0.70 0.63 0.57 0.57 0.53 0.54 0.63 0.69 0.69 0.70 0.76 0.83 0.92 0.92 0.81 0.79 0.86 0.72 0.68 0.67 0.80 0.99 1.02
0.07 0.08 0.09 0.09 0.10 0.10 0.11 0.11 0.14 0.17 0.17 0.17 0.17 0.19 0.27 0.40 0.57 0.64 0.65 0.65 0.68 0.66 0.63 0.60 0.57 0.57 0.62 0.71 0.82 0.71 0.63 0.61 0.69 0.73 0.71 0.62 0.59 0.58 0.53 0.57 0.66 0.73 0.88
0.06 0.06 0.07 0.07 0.08 0.10 0.11 0.14 0.16 0.16 0.15 0.17 0.17 0.16 0.17 0.21 0.29 0.36 0.43 0.50 0.54 0.56 0.56 0.56 0.57 0.59 0.59 0.58 0.63 0.64 0.60 0.54 0.53 0.51 0.44 0.41 0.44 0.50 0.51 0.51 0.53 0.59 0.81
0.08 0.06 0.07 0.08 0.08 0.09 0.09 0.12 0.14 0.16 0.16 0.17 0.18 0.18 0.19 0.21 0.23 0.24 0.28 0.33 0.35 0.43 0.49 0.49 0.51 0.51 0.53 0.54 0.58 0.57 0.58 0.62 0.65 0.66 0.56 0.49 0.47 0.47 0.50 0.51 0.56 0.68 0.79
0.07 0.07 0.08 0.09 0.09 0.10 0.10 0.10 0.11 0.12 0.14 0.14 0.14 0.13 0.14 0.17 0.19 0.21 0.23 0.25 0.26 0.31 0.34 0.35 0.36 0.34 0.41 0.50 0.49 0.50 0.51 0.54 0.62 0.68 0.68 0.67 0.65 0.63 0.61 0.59 0.56 0.57 0.65

GEFSMW_prec_meanprecacc_240.txt.gz
Total_Precipitation_Accumulation
0.58 0.52 0.45 0.50 0.52 0.48 0.48 0.52 0.66 0.82 0.96 1.07 1.19 1.44 1.59 1.69 1.69 1.69 1.74 1.65 1.45 1.53 1.65 1.62 1.85 1.92 1.92 1.93 1.89 2.04 2.09 1.83 1.66 1.98 1.95 1.56 1.27 1.16 1.23 1.32 1.36 1.47 1.48
0.50 0.46 0.37 0.37 0.39 0.39 0.42 0.48 0.60 0.83 1.05 1.25 1.42 1.60 1.91 2.06 2.06 2.13 2.06 1.99 1.87 1.89 1.80 1.88 2.12 2.18 2.30 2.41 2.26 2.41 2.52 2.19 1.90 2.35 2.82 2.39 1.93 1.33 1.11 1.24 1.39 1.56 1.59
0.39 0.40 0.36 0.31 0.28 0.31 0.36 0.42 0.51 0.72 1.01 1.31 1.55 1.74 1.96 2.22 2.31 2.21 2.17 2.19 2.26 2.29 2.17 2.12 2.26 2.29 2.38 2.61 2.65 2.59 2.73 2.68 2.33 2.29 2.81 2.77 2.41 1.98 1.44 1.28 1.35 1.53 1.65
0.38 0.36 0.34 0.34 0.30 0.31 0.36 0.44 0.53 0.65 0.85 1.11 1.42 1.67 1.92 2.24 2.31 2.28 2.26 2.30 2.38 2.45 2.39 2.34 2.41 2.44 2.41 2.55 2.62 2.59 2.85 3.09 2.83 2.54 2.30 2.24 2.29 2.34 1.95 1.54 1.40 1.53 1.63
0.41 0.36 0.34 0.34 0.36 0.37 0.41 0.52 0.62 0.72 0.88 1.10 1.41 1.73 1.92 2.08 2.27 2.28 2.18 2.12 2.19 2.19 2.15 2.26 2.42 2.44 2.43 2.45 2.62 2.74 2.95 2.99 2.94 2.81 2.65 2.46 2.31 1.97 2.04 1.95 1.70 1.65 1.56
0.40 0.42 0.45 0.45 0.44 0.49 0.56 0.68 0.77 0.92 1.04 1.10 1.21 1.38 1.60 1.88 2.00 2.10 2.13 2.15 2.16 2.02 1.92 2.02 2.12 2.21 2.27 2.27 2.33 2.49 2.65 2.85 3.00 2.94 2.77 2.71 2.65 2.45 2.27 1.97 1.82 1.88 1.73
0.50 0.57 0.65 0.60 0.58 0.62 0.74 0.83 0.91 0.96 1.00 0.95 0.97 1.08 1.26 1.50 1.63 1.71 1.90 1.98 2.02 1.98 1.90 1.86 1.91 1.98 2.03 2.13 2.31 2.31 2.36 2.55 2.74 2.76 2.70 2.71 2.56 2.48 2.50 2.27 1.92 1.84 1.73
0.61 0.75 0.85 0.85 0.80 0.82 0.85 0.85 0.90 0.85 0.82 0.84 0.87 0.91 0.97 1.13 1.25 1.33 1.49 1.62 1.62 1.60 1.57 1.61 1.69 1.82 1.91 2.00 2.16 2.22 2.18 2.26 2.33 2.36 2.50 2.60 2.51 2.32 2.26 2.29 2.34 2.09 1.85
0.75 0.93 1.08 1.12 1.02 0.96 0.91 0.91 0.94 0.88 0.79 0.81 0.87 0.89 0.92 0.94 0.96 1.01 1.02 1.10 1.19 1.21 1.23 1.29 1.42 1.61 1.74 1.79 1.89 2.05 2.04 2.10 2.10 2.17 2.24 2.26 2.32 2.19 2.03 2.01 2.11 2.24 2.04
0.97 1.10 1.21 1.20 1.15 1.18 1.14 0.98 0.93 0.95 0.86 0.93 0.95 0.87 0.84 0.80 0.80 0.84 0.89 0.91 0.98 1.07 1.16 1.18 1.25 1.38 1.47 1.56 1.72 1.87 1.95 1.99 1.96 1.95 2.02 2.06 2.12 2.13 2.11 2.08 2.08 2.06 2.00
1.16 1.18 1.26 1.24 1.12 1.11 1.08 1.05 0.99 0.97 0.97 0.98 0.99 0.87 0.83 0.83 0.80 0.79 0.83 0.91 0.98 1.07 1.14 1.18 1.21 1.23 1.32 1.38 1.49 1.63 1.78 1.81 1.82 1.71 1.74 1.85 1.91 2.08 2.13 2.10 2.06 2.03 1.94
1.12 1.14 1.22 1.17 1.03 1.00 0.88 0.91 0.99 0.99 1.06 1.06 0.97 0.88 0.90 0.91 0.93 0.90 0.85 0.89 0.94 0.94 1.03 1.15 1.13 1.12 1.17 1.26 1.36 1.46 1.52 1.63 1.60 1.50 1.52 1.63 1.69 1.83 1.95 2.05 1.96 1.96 1.91
0.89 0.87 0.90 0.99 0.96 0.94 0.85 0.91 0.97 1.02 1.02 1.06 1.07 0.95 0.83 0.85 0.88 0.88 0.82 0.79 0.83 0.87 0.98 1.12 1.24 1.16 1.06 1.16 1.25 1.29 1.32 1.34 1.29 1.28 1.33 1.38 1.44 1.57 1.68 1.78 1.87 1.89 1.81
0.66 0.64 0.62 0.69 0.73 0.76 0.83 0.88 0.99 1.12 1.14 1.12 1.07 1.01 0.94 0.95 0.87 0.78 0.75 0.76 0.74 0.70 0.75 0.90 1.01 1.07 1.04 1.01 1.02 1.06 1.21 1.22 1.13 1.04 1.04 1.06 1.08 1.20 1.33 1.44 1.59 1.76 1.88
0.49 0.49 0.47 0.49 0.53 0.56 0.66 0.73 0.84 1.02 1.14 1.21 1.18 1.09 1.01 0.91 0.82 0.74 0.65 0.66 0.58 0.56 0.63 0.79 0.96 1.03 1.03 1.05 1.05 0.99 1.04 1.10 1.12 1.05 0.93 0.86 0.85 0.95 1.03 1.13 1.39 1.59 1.76
0.36 0.36 0.38 0.39 0.44 0.49 0.57 0.58 0.69 0.85 0.96 1.02 1.05 1.09 1.04 0.87 0.78 0.68 0.59 0.56 0.53 0.53 0.55 0.64 0.79 0.95 0.92 1.08 1.13 1.06 0.98 0.98 0.99 0.99 0.97 0.96 0.91 0.79 0.76 0.82 0.99 1.23 1.44
0.31 0.30 0.30 0.33 0.40 0.48 0.52 0.57 0.67 0.80 0.83 0.87 0.89 0.93 0.91 0.76 0.69 0.57 0.50 0.50 0.51 0.53 0.52 0.58 0.71 0.84 0.98 1.01 0.90 0.97 0.99 0.96 0.97 0.95 0.94 0.96 0.95 0.99 0.89 0.83 0.82 0.85 1.02
0.24 0.29 0.28 0.27 0.30 0.38 0.49 0.62 0.66 0.66 0.67 0.72 0.73 0.72 0.72 0.67 0.59 0.49 0.45 0.45 0.47 0.51 0.51 0.53 0.58 0.66 0.84 0.90 0.79 0.98 1.01 1.02 1.03 1.00 1.01 1.05 1.07 1.03 1.14 1.11 1.01 0.94 0.93
0.15 0.20 0.20 0.20 0.21 0.23 0.27 0.33 0.38 0.40 0.41 0.51 0.58 0.62 0.63 0.59 0.54 0.49 0.53 0.55 0.53 0.51 0.49 0.48 0.49 0.53 0.61 0.71 0.68 0.82 0.97 1.08 1.08 0.98 0.96 1.02 1.04 1.24 1.28 1.19 1.16 1.08 1.02
0.08 0.11 0.15 0.14 0.14 0.16 0.17 0.19 0.22 0.26 0.28 0.33 0.39 0.46 0.52 0.55 0.58 0.68 0.74 0.73 0.68 0.60 0.52 0.48 0.46 0.50 0.52 0.65 0.53 0.65 0.82 1.00 1.13 1.06 0.99 1.14 1.10 1.11 1.06 1.02 1.21 1.18 1.07
0.06 0.08 0.10 0.11 0.13 0.13 0.13 0.16 0.18 0.18 0.19 0.19 0.24 0.34 0.49 0.56 0.65 0.78 0.81 0.76 0.68 0.59 0.54 0.50 0.46 0.47 0.55 0.69 0.63 0.69 0.79 0.92 1.03 1.06 1.05 1.01 1.08 0.92 0.87 0.92 1.06 1.21 1.16
0.07 0.07 0.08 0.09 0.12 0.14 0.11 0.12 0.19 0.18 0.19 0.19 0.23 0.30 0.40 0.52 0.65 0.75 0.74 0.72 0.72 0.65 0.58 0.57 0.54 0.55 0.63 0.70 0.70 0.71 0.77 0.85 0.93 0.93 0.83 0.81 0.88 0.74 0.70 0.69 0.82 1.00 1.03
0.07 0.08 0.09 0.09 0.10 0.11 0.12 0.12 0.15 0.17 0.18 0.18 0.18 0.20 0.28 0.42 0.59 0.67 0.68 0.68 0.70 0.68 0.64 0.61 0.58 0.58 0.63 0.73 0.83 0.72 0.64 0.63 0.71 0.74 0.73 0.65 0.62 0.60 0.56 0.59 0.69 0.75 0.89
0.07 0.06 0.08 0.08 0.09 0.11 0.13 0.16 0.18 0.17 0.16 0.18 0.19 0.17 0.18 0.23 0.32 0.39 0.46 0.53 0.58 0.59 0.59 0.59 0.60 0.61 0.61 0.59 0.65 0.66 0.61 0.55 0.54 0.53 0.46 0.44 0.47 0.53 0.53 0.53 0.55 0.61 0.83
0.08 0.07 0.08 0.08 0.09 0.11 0.11 0.13 0.16 0.18 0.17 0.19 0.20 0.20 0.22 0.25 0.26 0.28 0.32 0.36 0.39 0.46 0.52 0.52 0.54 0.53 0.55 0.55 0.60 0.60 0.60 0.64 0.67 0.68 0.58 0.52 0.50 0.50 0.53 0.54 0.58 0.70 0.81
0.09 0.08 0.09 0.10 0.10 0.11 0.12 0.12 0.13 0.14 0.16 0.17 0.16 0.16 0.17 0.20 0.22 0.23 0.26 0.28 0.29 0.35 0.37 0.38 0.38 0.36 0.42 0.51 0.51 0.52 0.54 0.57 0.65 0.70 0.70 0.69 0.67 0.65 0.64 0.63 0.59 0.60 0.67

GEFSMW_prec_meanprecacc_246.txt.gz
Total_Precipitation_Accumulation
0.60 0.56 0.50 0.54 0.54 0.50 0.49 0.54 0.68 0.84 0.97 1.08 1.21 1.45 1.61 1.71 1.71 1.71 1.75 1.66 1.47 1.54 1.67 1.65 1.88 1.94 1.93 1.95 1.91 2.08 2.12 1.84 1.67 1.99 1.96 1.56 1.27 1.17 1.24 1.33 1.37 1.48 1.49
0.52 0.48 0.39 0.38 0.40 0.40 0.43 0.50 0.63 0.85 1.07 1.27 1.44 1.61 1.92 2.08 2.08 2.14 2.07 2.00 1.88 1.89 1.82 1.91 2.15 2.21 2.32 2.43 2.28 2.43 2.53 2.21 1.91 2.36 2.83 2.40 1.94 1.35 1.12 1.24 1.40 1.57 1.60
0.40 0.41 0.36 0.32 0.29 0.32 0.37 0.44 0.53 0.75 1.04 1.32 1.57 1.75 1.97 2.23 2.31 2.21 2.18 2.19 2.26 2.29 2.17 2.13 2.27 2.31 2.41 2.64 2.68 2.62 2.75 2.69 2.34 2.30 2.82 2.78 2.42 1.99 1.46 1.29 1.37 1.55 1.66
0.38 0.36 0.34 0.35 0.30 0.31 0.36 0.45 0.54 0.67 0.87 1.13 1.44 1.68 1.92 2.25 2.32 2.28 2.26 2.31 2.38 2.45 2.40 2.35 2.43 2.46 2.45 2.58 2.65 2.63 2.88 3.11 2.85 2.55 2.31 2.26 2.31 2.35 1.96 1.55 1.41 1.54 1.65
0.41 0.36 0.34 0.35 0.37 0.38 0.42 0.53 0.63 0.74 0.90 1.13 1.44 1.75 1.92 2.08 2.27 2.29 2.19 2.13 2.19 2.19 2.15 2.26 2.42 2.45 2.46 2.47 2.65 2.77 2.98 3.02 2.97 2.84 2.67 2.48 2.32 1.98 2.05 1.96 1.70 1.66 1.58
0.41 0.42 0.45 0.45 0.44 0.49 0.58 0.70 0.78 0.94 1.06 1.13 1.24 1.40 1.61 1.89 2.01 2.11 2.14 2.16 2.16 2.03 1.93 2.04 2.13 2.22 2.29 2.30 2.35 2.51 2.67 2.88 3.02 2.96 2.79 2.72 2.66 2.46 2.28 1.98 1.83 1.89 1.74
0.51 0.58 0.65 0.61 0.58 0.62 0.75 0.85 0.93 0.98 1.02 0.98 0.99 1.11 1.28 1.51 1.64 1.72 1.91 1.99 2.04 1.99 1.91 1.87 1.92 1.99 2.04 2.14 2.32 2.33 2.39 2.57 2.76 2.78 2.72 2.72 2.57 2.49 2.51 2.28 1.93 1.84 1.73
0.62 0.76 0.86 0.86 0.81 0.82 0.87 0.87 0.91 0.86 0.84 0.87 0.90 0.95 1.00 1.16 1.27 1.34 1.50 1.63 1.63 1.61 1.58 1.61 1.70 1.83 1.92 2.01 2.17 2.23 2.20 2.28 2.34 2.38 2.52 2.62 2.52 2.33 2.27 2.29 2.35 2.10 1.86
0.76 0.94 1.10 1.13 1.04 0.97 0.93 0.92 0.96 0.90 0.81 0.83 0.90 0.93 0.95 0.96 0.98 1.04 1.04 1.12 1.20 1.22 1.24 1.30 1.43 1.62 1.75 1.79 1.90 2.06 2.05 2.11 2.11 2.18 2.25 2.28 2.34 2.21 2.04 2.01 2.11 2.24 2.04
0.98 1.11 1.24 1.24 1.18 1.20 1.16 1.00 0.96 0.98 0.89 0.95 0.97 0.91 0.87 0.83 0.83 0.88 0.93 0.93 1.00 1.08 1.17 1.19 1.25 1.38 1.48 1.56 1.73 1.87 1.96 2.00 1.97 1.96 2.04 2.08 2.13 2.14 2.12 2.09 2.08 2.07 2.01
1.18 1.20 1.28 1.28 1.16 1.15 1.11 1.08 1.03 1.00 1.00 1.00 1.01 0.90 0.87 0.86 0.84 0.83 0.86 0.93 0.99 1.08 1.14 1.18 1.21 1.24 1.33 1.38 1.49 1.63 1.78 1.81 1.82 1.72 1.75 1.87 1.92 2.10 2.14 2.11 2.07 2.04 1.95
1.16 1.16 1.23 1.19 1.06 1.03 0.92 0.96 1.03 1.03 1.10 1.10 1.01 0.92 0.94 0.95 0.97 0.93 0.88 0.90 0.94 0.95 1.04 1.15 1.13 1.12 1.17 1.26 1.36 1.46 1.53 1.64 1.60 1.51 1.53 1.64 1.70 1.84 1.96 2.06 1.98 1.97 1.92
0.94 0.90 0.92 1.00 0.97 0.95 0.88 0.96 1.02 1.08 1.09 1.12 1.11 0.98 0.87 0.88 0.91 0.91 0.83 0.81 0.84 0.87 0.99 1.12 1.24 1.16 1.06 1.16 1.25 1.29 1.32 1.35 1.30 1.28 1.33 1.39 1.45 1.58 1.69 1.79 1.88 1.90 1.82
0.72 0.67 0.63 0.70 0.74 0.77 0.84 0.91 1.03 1.18 1.19 1.18 1.13 1.07 0.97 0.98 0.90 0.81 0.78 0.78 0.75 0.71 0.76 0.90 1.02 1.08 1.04 1.01 1.02 1.06 1.22 1.22 1.13 1.05 1.04 1.07 1.09 1.21 1.34 1.45 1.60 1.77 1.89
0.53 0.53 0.50 0.51 0.54 0.58 0.67 0.74 0.86 1.06 1.18 1.25 1.23 1.15 1.06 0.95 0.86 0.76 0.68 0.69 0.61 0.58 0.64 0.80 0.96 1.03 1.03 1.05 1.05 0.99 1.04 1.10 1.12 1.05 0.94 0.87 0.86 0.96 1.04 1.14 1.40 1.61 1.77
0.38 0.38 0.42 0.42 0.46 0.50 0.57 0.59 0.70 0.87 1.00 1.06 1.09 1.15 1.11 0.93 0.82 0.72 0.62 0.59 0.57 0.56 0.57 0.65 0.80 0.95 0.92 1.08 1.13 1.06 0.98 0.99 1.00 1.00 0.98 0.97 0.92 0.80 0.76 0.83 1.00 1.25 1.46
0.33 0.31 0.32 0.35 0.42 0.50 0.53 0.58 0.68 0.81 0.85 0.91 0.93 0.98 0.98 0.82 0.74 0.63 0.55 0.54 0.53 0.54 0.54 0.60 0.72 0.86 1.00 1.03 0.91 0.98 0.99 0.97 0.98 0.95 0.94 0.97 0.95 1.00 0.90 0.84 0.83 0.86 1.04
0.25 0.30 0.28 0.27 0.31 0.38 0.49 0.63 0.67 0.67 0.69 0.74 0.76 0.76 0.78 0.73 0.65 0.54 0.49 0.48 0.50 0.53 0.53 0.55 0.60 0.68 0.87 0.93 0.81 0.99 1.02 1.03 1.03 1.01 1.02 1.05 1.07 1.03 1.15 1.12 1.02 0.95 0.94
0.15 0.20 0.20 0.20 0.21 0.24 0.27 0.33 0.39 0.42 0.43 0.53 0.60 0.65 0.67 0.64 0.58 0.52 0.56 0.59 0.56 0.54 0.52 0.50 0.52 0.55 0.64 0.73 0.70 0.84 0.98 1.08 1.09 0.98 0.97 1.02 1.05 1.24 1.29 1.19 1.17 1.08 1.03
0.08 0.11 0.15 0.14 0.14 0.16 0.17 0.20 0.24 0.27 0.30 0.35 0.42 0.50 0.57 0.59 0.62 0.71 0.77 0.76 0.70 0.62 0.55 0.50 0.49 0.52 0.54 0.67 0.55 0.66 0.83 1.00 1.13 1.07 1.00 1.15 1.11 1.11 1.07 1.03 1.22 1.18 1.07
0.06 0.08 0.10 0.11 0.13 0.14 0.14 0.16 0.19 0.19 0.22 0.22 0.27 0.37 0.53 0.60 0.69 0.81 0.83 0.78 0.70 0.61 0.56 0.53 0.48 0.48 0.56 0.70 0.64 0.71 0.80 0.93 1.03 1.06 1.05 1.01 1.09 0.92 0.88 0.93 1.07 1.22 1.16
0.07 0.07 0.08 0.09 0.12 0.14 0.12 0.13 0.19 0.19 0.23 0.24 0.25 0.32 0.43 0.55 0.69 0.79 0.77 0.75 0.74 0.67 0.60 0.59 0.56 0.57 0.65 0.71 0.71 0.73 0.78 0.86 0.94 0.94 0.84 0.82 0.91 0.76 0.71 0.71 0.83 1.01 1.04
0.07 0.08 0.09 0.09 0.10 0.11 0.13 0.12 0.15 0.19 0.21 0.23 0.21 0.22 0.30 0.45 0.62 0.70 0.71 0.71 0.72 0.70 0.66 0.62 0.59 0.60 0.64 0.74 0.84 0.73 0.65 0.64 0.72 0.76 0.75 0.68 0.65 0.63 0.58 0.62 0.71 0.77 0.90
0.07 0.07 0.09 0.09 0.09 0.11 0.13 0.16 0.19 0.19 0.19 0.21 0.21 0.19 0.19 0.25 0.35 0.42 0.49 0.56 0.60 0.61 0.61 0.60 0.61 0.63 0.62 0.60 0.66 0.67 0.62 0.57 0.56 0.55 0.48 0.47 0.49 0.55 0.56 0.56 0.57 0.63 0.85
0.08 0.08 0.09 0.10 0.10 0.11 0.12 0.14 0.18 0.20 0.20 0.21 0.22 0.22 0.23 0.26 0.28 0.31 0.34 0.38 0.41 0.49 0.55 0.55 0.56 0.56 0.57 0.57 0.62 0.62 0.61 0.65 0.68 0.69 0.59 0.53 0.51 0.52 0.55 0.57 0.61 0.72 0.83
0.09 0.09 0.10 0.12 0.11 0.12 0.13 0.13 0.14 0.16 0.18 0.19 0.19 0.18 0.20 0.23 0.24 0.26 0.28 0.30 0.31 0.37 0.40 0.40 0.40 0.37 0.44 0.52 0.52 0.54 0.55 0.59 0.66 0.71 0.70 0.70 0.68 0.66 0.66 0.65 0.62 0.63 0.70

GEFSMW_prec_meanprecacc_252.txt.gz
Total_Precipitation_Accumulation
0.64 0.59 0.53 0.55 0.55 0.51 0.51 0.57 0.71 0.86 1.00 1.11 1.22 1.46 1.61 1.72 1.72 1.71 1.75 1.66 1.47 1.55 1.67 1.66 1.89 1.96 1.95 1.97 1.92 2.09 2.15 1.87 1.70 2.02 1.98 1.58 1.29 1.17 1.24 1.33 1.37 1.48 1.50
0.53 0.51 0.42 0.40 0.42 0.43 0.45 0.51 0.65 0.87 1.09 1.30 1.46 1.63 1.93 2.09 2.09 2.15 2.07 2.00 1.88 1.90 1.82 1.91 2.15 2.21 2.33 2.44 2.29 2.45 2.55 2.23 1.93 2.37 2.84 2.41 1.96 1.36 1.13 1.25 1.40 1.57 1.61
0.41 0.42 0.38 0.33 0.30 0.32 0.38 0.46 0.56 0.77 1.06 1.36 1.59 1.77 1.99 2.23 2.32 2.22 2.18 2.20 2.26 2.29 2.17 2.13 2.28 2.32 2.42 2.65 2.69 2.64 2.76 2.70 2.35 2.30 2.83 2.79 2.43 2.01 1.47 1.30 1.37 1.55 1.67
0.39 0.36 0.34 0.35 0.30 0.32 0.37 0.46 0.57 0.70 0.91 1.17 1.48 1.72 1.96 2.27 2.33 2.29 2.27 2.31 2.39 2.45 2.40 2.35 2.43 2.47 2.47 2.59 2.66 2.64 2.89 3.12 2.86 2.56 2.33 2.28 2.32 2.36 1.98 1.56 1.41 1.55 1.65
0.41 0.36 0.35 0.35 0.37 0.38 0.42 0.54 0.65 0.76 0.92 1.16 1.47 1.78 1.96 2.13 2.31 2.31 2.20 2.13 2.20 2.19 2.15 2.27 2.43 2.46 2.47 2.48 2.66 2.78 2.99 3.03 2.98 2.85 2.68 2.50 2.34 1.99 2.06 1.97 1.71 1.66 1.59
0.42 0.43 0.46 0.46 0.45 0.50 0.58 0.71 0.80 0.96 1.08 1.16 1.27 1.43 1.64 1.92 2.04 2.12 2.15 2.17 2.17 2.03 1.93 2.04 2.13 2.23 2.30 2.31 2.37 2.53 2.70 2.90 3.04 2.98 2.81 2.75 2.68 2.47 2.29 2.00 1.84 1.90 1.74
0.52 0.59 0.66 0.62 0.59 0.63 0.76 0.86 0.94 0.99 1.04 1.00 1.01 1.12 1.29 1.53 1.65 1.73 1.92 2.00 2.05 2.00 1.92 1.87 1.93 2.00 2.05 2.16 2.34 2.36 2.42 2.60 2.80 2.82 2.76 2.75 2.60 2.50 2.53 2.30 1.94 1.85 1.74
0.63 0.78 0.88 0.88 0.82 0.84 0.88 0.88 0.92 0.87 0.87 0.89 0.91 0.96 1.02 1.17 1.29 1.35 1.51 1.64 1.65 1.63 1.59 1.62 1.70 1.84 1.93 2.02 2.17 2.25 2.23 2.31 2.37 2.40 2.56 2.66 2.56 2.36 2.31 2.32 2.37 2.11 1.87
0.77 0.95 1.11 1.15 1.06 0.99 0.94 0.94 0.98 0.92 0.84 0.87 0.94 0.96 0.97 0.98 1.00 1.06 1.06 1.13 1.22 1.23 1.25 1.30 1.44 1.63 1.75 1.80 1.90 2.07 2.06 2.12 2.12 2.19 2.26 2.30 2.37 2.25 2.09 2.06 2.16 2.27 2.06
0.98 1.12 1.24 1.25 1.20 1.22 1.18 1.02 0.98 1.01 0.93 1.01 1.02 0.94 0.90 0.86 0.86 0.90 0.95 0.95 1.02 1.11 1.19 1.20 1.26 1.39 1.49 1.57 1.73 1.88 1.96 2.00 1.97 1.97 2.05 2.10 2.15 2.16 2.15 2.12 2.12 2.10 2.03
1.20 1.21 1.29 1.28 1.18 1.16 1.12 1.10 1.05 1.02 1.04 1.05 1.07 0.95 0.91 0.90 0.87 0.86 0.89 0.97 1.03 1.13 1.17 1.21 1.24 1.26 1.35 1.40 1.50 1.64 1.79 1.82 1.83 1.72 1.76 1.88 1.94 2.12 2.17 2.15 2.11 2.08 1.99
1.19 1.18 1.24 1.20 1.07 1.04 0.93 0.97 1.04 1.05 1.12 1.13 1.05 0.97 1.01 1.01 1.02 0.98 0.92 0.95 0.99 0.99 1.07 1.18 1.15 1.15 1.19 1.27 1.38 1.47 1.54 1.64 1.61 1.51 1.53 1.64 1.71 1.85 1.97 2.08 1.99 2.00 1.96
0.98 0.92 0.94 1.01 0.98 0.96 0.89 0.97 1.04 1.10 1.10 1.14 1.14 1.03 0.94 0.95 0.98 0.97 0.89 0.85 0.88 0.91 1.02 1.15 1.27 1.18 1.08 1.17 1.26 1.30 1.33 1.35 1.30 1.29 1.34 1.40 1.47 1.60 1.72 1.82 1.91 1.93 1.86
0.76 0.69 0.66 0.71 0.74 0.78 0.85 0.92 1.04 1.19 1.22 1.21 1.16 1.10 1.03 1.04 0.96 0.87 0.83 0.82 0.78 0.73 0.79 0.93 1.05 1.10 1.06 1.02 1.03 1.06 1.22 1.22 1.14 1.05 1.04 1.07 1.11 1.24 1.38 1.49 1.64 1.80 1.92
0.54 0.55 0.53 0.53 0.55 0.59 0.67 0.75 0.87 1.07 1.19 1.28 1.26 1.17 1.09 1.00 0.91 0.82 0.73 0.73 0.64 0.62 0.69 0.84 1.00 1.05 1.04 1.06 1.06 1.00 1.04 1.10 1.12 1.06 0.94 0.87 0.87 0.97 1.06 1.16 1.42 1.63 1.79
0.38 0.39 0.42 0.43 0.48 0.52 0.59 0.60 0.71 0.88 1.00 1.08 1.11 1.17 1.13 0.96 0.85 0.75 0.66 0.64 0.62 0.61 0.61 0.69 0.84 0.98 0.94 1.10 1.14 1.06 0.98 0.99 1.00 1.00 0.99 0.97 0.92 0.80 0.77 0.84 1.01 1.25 1.47
0.34 0.32 0.32 0.36 0.43 0.51 0.55 0.59 0.70 0.82 0.86 0.91 0.94 0.99 0.99 0.84 0.77 0.66 0.59 0.57 0.57 0.58 0.57 0.64 0.76 0.89 1.03 1.06 0.93 0.99 1.00 0.97 0.98 0.95 0.95 0.98 0.96 1.01 0.90 0.85 0.83 0.87 1.05
0.25 0.30 0.28 0.28 0.32 0.39 0.50 0.64 0.68 0.68 0.69 0.75 0.77 0.77 0.79 0.74 0.67 0.57 0.54 0.54 0.56 0.59 0.59 0.60 0.65 0.73 0.92 0.97 0.85 1.02 1.04 1.05 1.04 1.02 1.02 1.07 1.09 1.04 1.16 1.13 1.03 0.96 0.95
0.16 0.20 0.20 0.20 0.22 0.24 0.28 0.34 0.39 0.43 0.45 0.54 0.62 0.66 0.68 0.65 0.60 0.54 0.60 0.64 0.61 0.60 0.58 0.55 0.56 0.59 0.68 0.78 0.74 0.87 1.00 1.11 1.11 0.99 0.98 1.04 1.06 1.25 1.30 1.20 1.17 1.09 1.04
0.08 0.12 0.15 0.14 0.14 0.16 0.17 0.20 0.24 0.28 0.31 0.37 0.45 0.52 0.59 0.61 0.63 0.73 0.80 0.80 0.76 0.67 0.59 0.54 0.53 0.54 0.56 0.69 0.58 0.68 0.85 1.02 1.15 1.08 1.01 1.16 1.12 1.12 1.08 1.04 1.22 1.19 1.08
0.07 0.08 0.11 0.12 0.13 0.14 0.14 0.16 0.19 0.19 0.22 0.23 0.29 0.40 0.56 0.64 0.71 0.83 0.86 0.83 0.76 0.65 0.58 0.55 0.51 0.49 0.57 0.71 0.66 0.72 0.80 0.94 1.04 1.07 1.07 1.03 1.11 0.94 0.90 0.95 1.08 1.23 1.18
0.07 0.08 0.09 0.09 0.12 0.14 0.12 0.13 0.20 0.20 0.24 0.25 0.26 0.34 0.45 0.58 0.72 0.81 0.79 0.78 0.79 0.71 0.62 0.61 0.58 0.58 0.66 0.72 0.72 0.74 0.79 0.87 0.94 0.94 0.84 0.83 0.92 0.78 0.74 0.73 0.85 1.03 1.06
0.07 0.09 0.09 0.10 0.10 0.11 0.13 0.13 0.16 0.20 0.23 0.25 0.21 0.23 0.32 0.46 0.64 0.72 0.73 0.74 0.76 0.73 0.69 0.64 0.60 0.61 0.66 0.75 0.85 0.74 0.66 0.64 0.72 0.76 0.76 0.69 0.66 0.65 0.60 0.63 0.73 0.79 0.92
0.07 0.07 0.09 0.09 0.10 0.11 0.13 0.16 0.19 0.20 0.20 0.22 0.22 0.21 0.21 0.27 0.36 0.44 0.50 0.58 0.63 0.63 0.63 0.63 0.63 0.64 0.64 0.61 0.67 0.67 0.63 0.57 0.56 0.55 0.49 0.47 0.50 0.55 0.57 0.57 0.58 0.64 0.86
0.08 0.08 0.09 0.11 0.10 0.12 0.12 0.15 0.19 0.21 0.21 0.22 0.24 0.24 0.25 0.28 0.29 0.32 0.35 0.39 0.43 0.51 0.58 0.57 0.60 0.58 0.59 0.59 0.63 0.63 0.62 0.66 0.69 0.70 0.59 0.53 0.51 0.52 0.55 0.57 0.61 0.73 0.84
0.09 0.09 0.11 0.12 0.12 0.12 0.14 0.14 0.15 0.17 0.19 0.20 0.21 0.20 0.21 0.24 0.25 0.27 0.29 0.32 0.32 0.39 0.43 0.43 0.43 0.41 0.47 0.55 0.54 0.55 0.56 0.60 0.68 0.73 0.71 0.70 0.69 0.67 0.66 0.66 0.63 0.64 0.72

GEFSMW_prec_meanprecacc_258.txt.gz
Total_Precipitation_Accumulation
0.65 0.62 0.56 0.60 0.60 0.56 0.54 0.60 0.73 0.88 1.02 1.13 1.24 1.47 1.63 1.73 1.72 1.71 1.76 1.67 1.47 1.55 1.68 1.66 1.90 1.96 1.95 1.98 1.93 2.10 2.16 1.88 1.73 2.08 2.02 1.60 1.31 1.19 1.25 1.33 1.38 1.49 1.51
0.54 0.52 0.43 0.42 0.45 0.47 0.49 0.56 0.70 0.92 1.13 1.32 1.48 1.65 1.96 2.11 2.10 2.15 2.07 2.00 1.88 1.90 1.83 1.92 2.16 2.22 2.34 2.45 2.30 2.46 2.56 2.25 1.95 2.40 2.87 2.43 1.97 1.38 1.14 1.25 1.41 1.58 1.62
0.41 0.43 0.38 0.34 0.31 0.33 0.39 0.48 0.59 0.81 1.12 1.41 1.63 1.80 2.01 2.25 2.33 2.23 2.19 2.20 2.26 2.30 2.18 2.14 2.28 2.33 2.43 2.66 2.70 2.65 2.78 2.72 2.36 2.32 2.86 2.83 2.46 2.03 1.49 1.31 1.38 1.56 1.68
0.39 0.37 0.35 0.35 0.31 0.33 0.37 0.46 0.58 0.72 0.94 1.22 1.53 1.78 2.03 2.31 2.36 2.31 2.29 2.32 2.40 2.46 2.40 2.35 2.44 2.48 2.48 2.61 2.67 2.65 2.91 3.14 2.88 2.57 2.34 2.30 2.34 2.38 1.99 1.57 1.42 1.56 1.67
0.42 0.37 0.35 0.35 0.38 0.39 0.44 0.55 0.67 0.77 0.94 1.18 1.50 1.82 2.01 2.19 2.37 2.36 2.24 2.17 2.22 2.21 2.16 2.28 2.44 2.47 2.48 2.50 2.67 2.79 3.00 3.04 3.00 2.86 2.69 2.51 2.35 2.00 2.08 1.99 1.72 1.67 1.60
0.42 0.44 0.46 0.46 0.46 0.50 0.59 0.71 0.81 0.97 1.09 1.17 1.29 1.45 1.65 1.94 2.08 2.19 2.20 2.20 2.18 2.05 1.95 2.05 2.14 2.24 2.32 2.32 2.38 2.54 2.71 2.92 3.06 3.00 2.83 2.77 2.70 2.48 2.31 2.01 1.85 1.91 1.75
0.52 0.59 0.67 0.63 0.60 0.63 0.77 0.87 0.96 1.00 1.04 1.01 1.03 1.14 1.31 1.54 1.67 1.77 1.97 2.03 2.07 2.02 1.94 1.90 1.95 2.02 2.07 2.17 2.36 2.38 2.45 2.64 2.84 2.85 2.79 2.77 2.62 2.53 2.55 2.32 1.95 1.86 1.74
0.64 0.78 0.89 0.90 0.84 0.85 0.88 0.89 0.93 0.88 0.87 0.90 0.92 0.98 1.03 1.19 1.31 1.39 1.55 1.68 1.68 1.66 1.62 1.65 1.72 1.85 1.95 2.03 2.19 2.27 2.25 2.33 2.40 2.44 2.60 2.69 2.58 2.39 2.32 2.34 2.39 2.13 1.88
0.78 0.96 1.12 1.16 1.07 1.00 0.95 0.95 0.99 0.93 0.85 0.88 0.96 0.98 0.99 1.00 1.02 1.08 1.08 1.16 1.24 1.25 1.27 1.33 1.46 1.64 1.77 1.82 1.92 2.09 2.08 2.14 2.14 2.20 2.28 2.32 2.39 2.28 2.11 2.08 2.18 2.30 2.09
1.00 1.13 1.25 1.25 1.21 1.23 1.19 1.03 0.99 1.02 0.94 1.02 1.03 0.97 0.92 0.88 0.89 0.93 0.98 1.00 1.07 1.16 1.23 1.24 1.30 1.42 1.51 1.59 1.75 1.89 1.98 2.02 2.00 1.98 2.05 2.11 2.16 2.17 2.16 2.13 2.14 2.12 2.06
1.21 1.23 1.30 1.29 1.18 1.17 1.13 1.11 1.06 1.03 1.05 1.06 1.07 0.96 0.93 0.93 0.91 0.89 0.92 1.00 1.07 1.17 1.22 1.26 1.28 1.29 1.37 1.43 1.53 1.66 1.80 1.83 1.85 1.74 1.77 1.89 1.95 2.13 2.19 2.16 2.13 2.10 2.01
1.21 1.20 1.27 1.20 1.07 1.05 0.94 0.98 1.05 1.06 1.13 1.14 1.05 0.98 1.02 1.03 1.05 1.01 0.95 0.99 1.03 1.03 1.11 1.21 1.18 1.17 1.22 1.31 1.41 1.50 1.56 1.66 1.62 1.53 1.54 1.66 1.72 1.87 1.99 2.09 2.01 2.01 1.98
0.99 0.93 0.96 1.03 0.99 0.96 0.90 0.97 1.05 1.11 1.11 1.15 1.15 1.03 0.94 0.96 0.99 0.98 0.91 0.87 0.89 0.92 1.03 1.17 1.29 1.20 1.10 1.20 1.29 1.32 1.35 1.37 1.31 1.30 1.35 1.40 1.48 1.61 1.73 1.83 1.92 1.94 1.87
0.77 0.70 0.68 0.75 0.76 0.79 0.85 0.92 1.05 1.20 1.22 1.22 1.17 1.11 1.03 1.05 0.97 0.88 0.84 0.83 0.79 0.74 0.80 0.94 1.06 1.11 1.07 1.04 1.05 1.08 1.24 1.24 1.15 1.06 1.05 1.08 1.12 1.25 1.39 1.50 1.65 1.81 1.93
0.55 0.56 0.54 0.55 0.56 0.60 0.68 0.75 0.87 1.07 1.20 1.29 1.27 1.17 1.10 1.00 0.92 0.84 0.75 0.75 0.66 0.63 0.70 0.85 1.00 1.06 1.06 1.08 1.08 1.02 1.06 1.12 1.14 1.07 0.95 0.88 0.88 0.98 1.07 1.17 1.43 1.64 1.80
0.38 0.39 0.43 0.44 0.48 0.52 0.59 0.60 0.71 0.88 1.01 1.09 1.12 1.18 1.14 0.96 0.86 0.76 0.68 0.65 0.64 0.62 0.63 0.71 0.85 0.99 0.95 1.12 1.16 1.08 1.00 1.00 1.01 1.01 0.99 0.98 0.93 0.82 0.78 0.84 1.01 1.26 1.47
0.34 0.32 0.32 0.36 0.43 0.52 0.55 0.60 0.70 0.83 0.86 0.92 0.95 1.00 1.00 0.85 0.78 0.67 0.60 0.59 0.58 0.60 0.60 0.66 0.78 0.91 1.04 1.08 0.95 1.01 1.02 0.98 0.99 0.96 0.95 0.99 0.97 1.02 0.91 0.85 0.84 0.87 1.06
0.26 0.30 0.28 0.28 0.32 0.39 0.50 0.64 0.68 0.69 0.70 0.76 0.77 0.77 0.80 0.75 0.68 0.58 0.55 0.56 0.58 0.62 0.62 0.64 0.68 0.76 0.95 1.02 0.89 1.06 1.07 1.07 1.06 1.03 1.03 1.08 1.10 1.06 1.18 1.14 1.04 0.97 0.96
0.16 0.20 0.21 0.21 0.22 0.25 0.28 0.34 0.39 0.43 0.45 0.55 0.62 0.66 0.68 0.66 0.61 0.55 0.61 0.66 0.64 0.64 0.63 0.60 0.59 0.62 0.72 0.83 0.79 0.92 1.05 1.15 1.14 1.03 1.00 1.06 1.08 1.27 1.32 1.21 1.18 1.10 1.04
0.09 0.13 0.16 0.15 0.15 0.16 0.17 0.20 0.24 0.28 0.31 0.37 0.45 0.53 0.59 0.62 0.65 0.74 0.82 0.83 0.79 0.71 0.62 0.58 0.56 0.57 0.59 0.73 0.61 0.71 0.87 1.05 1.18 1.12 1.05 1.19 1.15 1.15 1.10 1.06 1.23 1.20 1.09
0.07 0.09 0.12 0.12 0.13 0.14 0.14 0.16 0.20 0.20 0.22 0.23 0.29 0.40 0.57 0.65 0.74 0.87 0.89 0.86 0.80 0.68 0.61 0.58 0.55 0.53 0.60 0.75 0.68 0.74 0.82 0.95 1.06 1.09 1.08 1.04 1.12 0.96 0.91 0.96 1.09 1.24 1.19
0.08 0.08 0.09 0.10 0.13 0.14 0.12 0.13 0.21 0.21 0.25 0.25 0.26 0.34 0.46 0.60 0.76 0.87 0.85 0.83 0.83 0.75 0.65 0.62 0.60 0.62 0.70 0.76 0.75 0.76 0.80 0.88 0.95 0.95 0.85 0.84 0.93 0.79 0.75 0.73 0.86 1.04 1.07
0.08 0.09 0.10 0.10 0.11 0.12 0.13 0.13 0.17 0.21 0.23 0.25 0.22 0.24 0.32 0.47 0.65 0.75 0.77 0.77 0.78 0.76 0.71 0.65 0.62 0.63 0.70 0.80 0.90 0.77 0.67 0.65 0.73 0.77 0.77 0.69 0.66 0.65 0.60 0.64 0.75 0.80 0.93
0.07 0.08 0.09 0.09 0.10 0.12 0.13 0.16 0.19 0.20 0.21 0.23 0.23 0.22 0.22 0.27 0.37 0.44 0.51 0.59 0.64 0.64 0.65 0.65 0.65 0.66 0.66 0.65 0.72 0.73 0.66 0.59 0.57 0.56 0.50 0.48 0.51 0.56 0.57 0.58 0.59 0.65 0.87
0.09 0.08 0.09 0.11 0.11 0.12 0.12 0.15 0.19 0.22 0.22 0.22 0.24 0.25 0.26 0.29 0.30 0.33 0.36 0.40 0.43 0.53 0.59 0.60 0.63 0.60 0.61 0.62 0.69 0.69 0.68 0.70 0.71 0.72 0.61 0.55 0.54 0.55 0.58 0.59 0.63 0.74 0.85
0.09 0.09 0.11 0.13 0.12 0.13 0.14 0.14 0.15 0.18 0.19 0.21 0.21 0.20 0.21 0.25 0.26 0.28 0.30 0.33 0.33 0.40 0.43 0.45 0.45 0.42 0.49 0.58 0.58 0.59 0.61 0.65 0.71 0.74 0.72 0.71 0.69 0.68 0.67 0.66 0.64 0.65 0.73

GEFSMW_prec_meanprecacc_264.txt.gz
Total_Precipitation_Accumulation
0.66 0.62 0.57 0.61 0.61 0.57 0.55 0.62 0.75 0.89 1.03 1.15 1.26 1.50 1.66 1.75 1.75 1.73 1.78 1.70 1.49 1.56 1.69 1.68 1.91 1.98 1.97 2.00 1.95 2.12 2.17 1.89 1.74 2.10 2.04 1.63 1.32 1.20 1.26 1.35 1.39 1.51 1.53
0.54 0.52 0.43 0.43 0.46 0.48 0.51 0.57 0.71 0.93 1.15 1.34 1.49 1.66 1.99 2.14 2.12 2.17 2.09 2.02 1.90 1.91 1.83 1.93 2.18 2.24 2.36 2.47 2.32 2.47 2.58 2.27 1.97 2.43 2.91 2.47 2.00 1.39 1.15 1.27 1.42 1.61 1.64
0.42 0.44 0.39 0.34 0.31 0.34 0.40 0.49 0.60 0.82 1.13 1.43 1.64 1.82 2.04 2.29 2.38 2.26 2.22 2.22 2.27 2.31 2.19 2.14 2.29 2.34 2.45 2.68 2.72 2.67 2.81 2.75 2.38 2.35 2.92 2.90 2.50 2.07 1.51 1.32 1.40 1.59 1.71
0.40 0.38 0.36 0.36 0.32 0.34 0.38 0.47 0.59 0.74 0.96 1.22 1.54 1.79 2.06 2.36 2.40 2.34 2.32 2.34 2.40 2.46 2.41 2.36 2.44 2.50 2.50 2.62 2.68 2.67 2.94 3.18 2.91 2.60 2.37 2.33 2.37 2.41 2.02 1.59 1.45 1.59 1.70
0.42 0.37 0.35 0.36 0.38 0.41 0.45 0.56 0.69 0.79 0.95 1.19 1.52 1.83 2.03 2.22 2.39 2.38 2.27 2.19 2.24 2.22 2.17 2.28 2.45 2.48 2.50 2.51 2.68 2.80 3.02 3.07 3.03 2.90 2.73 2.54 2.37 2.02 2.09 2.01 1.74 1.69 1.62
0.42 0.44 0.47 0.47 0.46 0.51 0.60 0.73 0.82 0.98 1.10 1.19 1.31 1.46 1.67 1.96 2.12 2.25 2.24 2.22 2.20 2.08 1.97 2.07 2.16 2.26 2.34 2.34 2.40 2.56 2.73 2.95 3.10 3.04 2.87 2.80 2.73 2.50 2.32 2.03 1.87 1.93 1.78
0.53 0.60 0.67 0.64 0.61 0.63 0.77 0.87 0.96 1.00 1.05 1.02 1.04 1.16 1.32 1.56 1.70 1.82 1.99 2.05 2.09 2.04 1.97 1.92 1.97 2.04 2.10 2.21 2.39 2.41 2.48 2.67 2.87 2.89 2.83 2.82 2.65 2.55 2.57 2.34 1.97 1.88 1.78
0.64 0.79 0.89 0.90 0.85 0.85 0.89 0.89 0.94 0.88 0.88 0.91 0.94 1.00 1.06 1.21 1.33 1.41 1.57 1.69 1.69 1.67 1.63 1.66 1.74 1.88 1.98 2.06 2.21 2.30 2.28 2.36 2.42 2.46 2.62 2.72 2.61 2.40 2.34 2.36 2.41 2.15 1.90
0.79 0.97 1.13 1.17 1.08 1.01 0.95 0.95 0.99 0.93 0.85 0.88 0.96 0.98 1.01 1.01 1.03 1.09 1.09 1.17 1.25 1.27 1.28 1.34 1.48 1.67 1.79 1.84 1.94 2.12 2.10 2.16 2.16 2.21 2.29 2.34 2.41 2.29 2.13 2.10 2.20 2.33 2.12
1.00 1.14 1.26 1.26 1.22 1.24 1.19 1.03 1.00 1.02 0.95 1.02 1.04 0.97 0.93 0.89 0.90 0.95 0.99 1.01 1.09 1.17 1.24 1.25 1.31 1.44 1.53 1.61 1.77 1.91 2.00 2.03 2.02 2.00 2.07 2.12 2.17 2.18 2.17 2.15 2.16 2.15 2.09
1.22 1.24 1.31 1.30 1.19 1.17 1.14 1.11 1.06 1.04 1.05 1.06 1.08 0.96 0.94 0.93 0.92 0.90 0.94 1.02 1.09 1.18 1.23 1.27 1.30 1.31 1.39 1.45 1.54 1.67 1.82 1.85 1.86 1.76 1.78 1.90 1.97 2.15 2.20 2.18 2.14 2.12 2.03
1.21 1.20 1.27 1.21 1.09 1.06 0.95 0.99 1.06 1.07 1.14 1.14 1.06 0.99 1.03 1.04 1.06 1.02 0.96 0.99 1.04 1.03 1.12 1.22 1.19 1.18 1.23 1.32 1.42 1.51 1.57 1.67 1.63 1.54 1.55 1.67 1.74 1.89 2.01 2.11 2.03 2.03 1.99
0.99 0.93 0.97 1.04 1.00 0.98 0.91 0.98 1.05 1.11 1.12 1.16 1.15 1.04 0.95 0.97 1.00 0.99 0.92 0.87 0.90 0.93 1.04 1.18 1.29 1.21 1.11 1.20 1.30 1.33 1.36 1.37 1.32 1.31 1.36 1.42 1.50 1.63 1.75 1.85 1.94 1.95 1.88
0.77 0.70 0.68 0.75 0.77 0.79 0.86 0.93 1.06 1.21 1.23 1.22 1.18 1.11 1.04 1.06 0.98 0.89 0.86 0.84 0.79 0.75 0.80 0.95 1.07 1.12 1.08 1.05 1.06 1.09 1.25 1.25 1.16 1.07 1.06 1.09 1.13 1.26 1.40 1.51 1.66 1.82 1.94
0.55 0.56 0.55 0.55 0.56 0.60 0.68 0.76 0.88 1.08 1.20 1.29 1.28 1.18 1.11 1.01 0.93 0.85 0.76 0.77 0.68 0.65 0.71 0.87 1.02 1.07 1.07 1.10 1.10 1.03 1.07 1.13 1.14 1.07 0.96 0.89 0.89 0.99 1.08 1.18 1.44 1.65 1.81
0.39 0.39 0.43 0.44 0.49 0.52 0.60 0.61 0.72 0.89 1.01 1.09 1.13 1.19 1.15 0.98 0.87 0.77 0.69 0.66 0.65 0.64 0.64 0.73 0.87 1.00 0.97 1.14 1.19 1.11 1.02 1.02 1.02 1.02 1.01 0.99 0.95 0.83 0.79 0.85 1.02 1.27 1.49
0.34 0.32 0.33 0.36 0.43 0.52 0.56 0.60 0.71 0.84 0.87 0.93 0.96 1.01 1.01 0.86 0.79 0.68 0.61 0.59 0.59 0.61 0.61 0.67 0.80 0.93 1.06 1.10 0.97 1.05 1.06 1.01 1.01 0.98 0.97 1.01 0.99 1.03 0.92 0.87 0.85 0.88 1.06
0.26 0.30 0.29 0.29 0.32 0.40 0.51 0.65 0.69 0.70 0.71 0.77 0.78 0.79 0.81 0.76 0.69 0.59 0.56 0.57 0.59 0.63 0.63 0.65 0.69 0.77 0.97 1.04 0.92 1.09 1.10 1.10 1.09 1.05 1.05 1.10 1.12 1.07 1.19 1.16 1.05 0.98 0.97
0.17 0.21 0.21 0.21 0.22 0.25 0.28 0.34 0.40 0.44 0.45 0.55 0.63 0.67 0.69 0.67 0.62 0.56 0.62 0.67 0.65 0.66 0.64 0.60 0.60 0.63 0.73 0.84 0.81 0.94 1.07 1.17 1.17 1.06 1.04 1.09 1.10 1.30 1.34 1.23 1.19 1.11 1.05
0.10 0.13 0.17 0.16 0.15 0.16 0.17 0.20 0.24 0.28 0.31 0.37 0.45 0.54 0.60 0.63 0.65 0.75 0.82 0.84 0.79 0.71 0.63 0.60 0.57 0.58 0.60 0.74 0.62 0.73 0.88 1.07 1.20 1.14 1.07 1.22 1.18 1.19 1.14 1.09 1.26 1.21 1.10
0.08 0.10 0.12 0.13 0.14 0.15 0.14 0.17 0.20 0.21 0.23 0.23 0.29 0.41 0.58 0.67 0.76 0.88 0.91 0.88 0.81 0.69 0.62 0.59 0.57 0.55 0.61 0.77 0.70 0.75 0.83 0.97 1.08 1.11 1.10 1.06 1.15 0.98 0.94 0.99 1.12 1.26 1.21
0.08 0.08 0.09 0.10 0.13 0.15 0.13 0.15 0.22 0.22 0.26 0.26 0.27 0.35 0.47 0.61 0.77 0.88 0.86 0.84 0.84 0.76 0.67 0.64 0.63 0.64 0.73 0.78 0.78 0.77 0.82 0.89 0.97 0.96 0.87 0.86 0.95 0.81 0.76 0.75 0.88 1.07 1.10
0.08 0.09 0.10 0.10 0.11 0.12 0.14 0.15 0.18 0.22 0.24 0.27 0.23 0.25 0.33 0.48 0.66 0.76 0.77 0.78 0.79 0.76 0.73 0.67 0.64 0.65 0.71 0.82 0.93 0.80 0.69 0.68 0.75 0.79 0.79 0.72 0.69 0.67 0.62 0.66 0.76 0.83 0.96
0.08 0.08 0.09 0.10 0.10 0.12 0.14 0.17 0.20 0.20 0.21 0.23 0.24 0.22 0.23 0.28 0.37 0.45 0.52 0.60 0.64 0.65 0.66 0.66 0.66 0.67 0.67 0.66 0.75 0.77 0.68 0.61 0.60 0.59 0.53 0.51 0.54 0.59 0.59 0.60 0.61 0.67 0.89
0.09 0.08 0.10 0.12 0.11 0.13 0.12 0.15 0.19 0.22 0.22 0.23 0.24 0.25 0.26 0.29 0.31 0.34 0.37 0.41 0.44 0.54 0.61 0.61 0.63 0.61 0.61 0.63 0.71 0.71 0.71 0.73 0.74 0.74 0.63 0.57 0.56 0.57 0.59 0.61 0.64 0.75 0.87
0.10 0.10 0.12 0.13 0.13 0.13 0.14 0.14 0.16 0.18 0.20 0.21 0.21 0.20 0.22 0.25 0.26 0.29 0.31 0.34 0.34 0.41 0.45 0.46 0.46 0.44 0.51 0.60 0.60 0.62 0.64 0.68 0.74 0.77 0.74 0.73 0.72 0.70 0.69 0.67 0.65 0.66 0.74

GEFSMW_prec_meanprecacc_270.txt.gz
Total_Precipitation_Accumulation
0.68 0.64 0.59 0.63 0.62 0.58 0.56 0.62 0.75 0.90 1.04 1.16 1.28 1.51 1.67 1.76 1.75 1.74 1.80 1.71 1.50 1.57 1.69 1.68 1.91 1.98 1.97 2.00 1.96 2.13 2.18 1.90 1.76 2.11 2.06 1.64 1.33 1.21 1.27 1.35 1.40 1.52 1.55
0.56 0.54 0.45 0.43 0.46 0.49 0.52 0.57 0.71 0.94 1.15 1.35 1.51 1.68 2.00 2.16 2.15 2.19 2.11 2.04 1.91 1.92 1.84 1.93 2.18 2.25 2.37 2.47 2.32 2.48 2.59 2.28 1.98 2.44 2.93 2.50 2.01 1.40 1.16 1.27 1.44 1.62 1.66
0.44 0.45 0.40 0.35 0.32 0.35 0.42 0.50 0.61 0.83 1.14 1.43 1.65 1.83 2.06 2.31 2.41 2.29 2.24 2.24 2.29 2.32 2.20 2.15 2.30 2.35 2.45 2.68 2.73 2.68 2.81 2.76 2.39 2.36 2.93 2.92 2.52 2.08 1.52 1.34 1.41 1.61 1.73
0.41 0.39 0.37 0.37 0.33 0.35 0.41 0.50 0.61 0.75 0.97 1.23 1.54 1.80 2.07 2.37 2.42 2.36 2.34 2.37 2.44 2.48 2.42 2.37 2.45 2.50 2.51 2.63 2.69 2.67 2.94 3.18 2.92 2.61 2.39 2.35 2.38 2.42 2.04 1.61 1.47 1.62 1.73
0.44 0.39 0.36 0.36 0.39 0.42 0.46 0.58 0.70 0.80 0.96 1.21 1.54 1.84 2.03 2.22 2.40 2.40 2.29 2.21 2.28 2.25 2.19 2.30 2.46 2.50 2.51 2.53 2.70 2.81 3.03 3.08 3.03 2.91 2.74 2.56 2.38 2.03 2.10 2.02 1.76 1.71 1.64
0.44 0.45 0.48 0.48 0.47 0.51 0.61 0.73 0.83 0.98 1.11 1.20 1.32 1.47 1.67 1.96 2.12 2.25 2.25 2.23 2.23 2.11 2.01 2.10 2.18 2.29 2.36 2.35 2.41 2.58 2.74 2.96 3.11 3.05 2.87 2.81 2.74 2.51 2.33 2.04 1.88 1.94 1.80
0.54 0.61 0.68 0.65 0.62 0.64 0.78 0.88 0.96 1.01 1.06 1.03 1.05 1.17 1.33 1.56 1.71 1.83 2.00 2.06 2.09 2.07 2.04 1.96 2.00 2.06 2.12 2.22 2.42 2.44 2.52 2.71 2.90 2.92 2.84 2.83 2.67 2.57 2.59 2.35 1.98 1.89 1.79
0.65 0.80 0.90 0.92 0.86 0.86 0.89 0.90 0.94 0.89 0.89 0.92 0.95 1.02 1.08 1.23 1.35 1.43 1.58 1.70 1.69 1.68 1.65 1.68 1.77 1.91 2.00 2.07 2.24 2.33 2.33 2.39 2.46 2.48 2.64 2.74 2.64 2.43 2.36 2.38 2.42 2.16 1.92
0.80 0.97 1.15 1.18 1.09 1.02 0.96 0.96 1.01 0.95 0.87 0.90 0.98 1.00 1.03 1.03 1.04 1.10 1.10 1.18 1.26 1.27 1.29 1.35 1.49 1.69 1.81 1.86 1.97 2.15 2.13 2.18 2.17 2.23 2.30 2.35 2.43 2.31 2.15 2.12 2.22 2.34 2.13
1.01 1.15 1.28 1.28 1.24 1.26 1.21 1.05 1.03 1.05 0.98 1.05 1.07 0.99 0.95 0.91 0.93 0.98 1.01 1.02 1.10 1.18 1.24 1.26 1.33 1.46 1.55 1.63 1.79 1.93 2.02 2.05 2.03 2.01 2.08 2.13 2.18 2.20 2.18 2.16 2.17 2.16 2.11
1.23 1.25 1.33 1.31 1.21 1.20 1.17 1.15 1.10 1.07 1.08 1.09 1.10 0.97 0.95 0.96 0.96 0.94 0.97 1.04 1.11 1.21 1.25 1.29 1.31 1.32 1.40 1.46 1.56 1.69 1.83 1.85 1.87 1.77 1.79 1.91 1.98 2.17 2.21 2.19 2.16 2.14 2.05
1.22 1.22 1.29 1.23 1.11 1.09 0.99 1.02 1.09 1.09 1.17 1.18 1.09 1.01 1.04 1.06 1.09 1.04 1.00 1.03 1.07 1.06 1.14 1.24 1.21 1.20 1.25 1.33 1.43 1.53 1.58 1.67 1.64 1.54 1.56 1.67 1.75 1.90 2.01 2.12 2.03 2.04 2.00
1.00 0.94 0.99 1.06 1.02 1.00 0.94 1.02 1.09 1.14 1.16 1.19 1.19 1.07 0.97 0.99 1.02 1.01 0.94 0.90 0.92 0.95 1.06 1.20 1.31 1.22 1.12 1.21 1.30 1.34 1.36 1.38 1.33 1.31 1.37 1.42 1.51 1.64 1.75 1.85 1.94 1.96 1.89
0.78 0.72 0.70 0.77 0.79 0.81 0.88 0.95 1.09 1.24 1.26 1.25 1.20 1.13 1.06 1.08 1.00 0.92 0.89 0.87 0.82 0.77 0.82 0.98 1.09 1.13 1.09 1.06 1.07 1.11 1.26 1.26 1.17 1.08 1.07 1.09 1.13 1.27 1.41 1.52 1.67 1.82 1.95
0.56 0.57 0.56 0.57 0.58 0.62 0.70 0.77 0.89 1.10 1.23 1.31 1.30 1.21 1.14 1.05 0.97 0.87 0.79 0.80 0.70 0.67 0.73 0.89 1.04 1.08 1.08 1.11 1.11 1.05 1.09 1.15 1.16 1.08 0.97 0.89 0.89 1.00 1.09 1.18 1.45 1.65 1.82
0.39 0.40 0.45 0.47 0.51 0.54 0.61 0.62 0.73 0.90 1.03 1.11 1.14 1.21 1.18 1.01 0.90 0.80 0.71 0.69 0.67 0.65 0.66 0.75 0.90 1.02 0.98 1.16 1.21 1.13 1.04 1.04 1.04 1.03 1.01 1.00 0.95 0.84 0.80 0.86 1.03 1.28 1.49
0.35 0.34 0.34 0.38 0.46 0.54 0.57 0.61 0.72 0.85 0.89 0.95 0.97 1.02 1.03 0.88 0.81 0.70 0.63 0.62 0.62 0.63 0.63 0.69 0.82 0.96 1.09 1.13 1.00 1.07 1.07 1.03 1.03 0.99 0.99 1.02 1.00 1.05 0.93 0.87 0.86 0.89 1.07
0.27 0.32 0.30 0.30 0.34 0.41 0.52 0.65 0.70 0.71 0.72 0.78 0.79 0.80 0.82 0.78 0.71 0.61 0.58 0.59 0.62 0.66 0.66 0.68 0.73 0.81 1.01 1.08 0.94 1.12 1.13 1.11 1.10 1.07 1.07 1.11 1.14 1.09 1.21 1.17 1.06 0.98 0.97
0.18 0.22 0.23 0.23 0.24 0.27 0.29 0.35 0.41 0.45 0.48 0.57 0.64 0.68 0.70 0.68 0.63 0.58 0.65 0.69 0.67 0.67 0.67 0.63 0.64 0.67 0.77 0.88 0.83 0.96 1.08 1.18 1.18 1.07 1.05 1.10 1.12 1.32 1.37 1.25 1.20 1.12 1.06
0.10 0.14 0.18 0.17 0.16 0.17 0.18 0.21 0.26 0.30 0.34 0.40 0.46 0.55 0.61 0.64 0.66 0.77 0.84 0.85 0.81 0.74 0.66 0.62 0.60 0.60 0.62 0.78 0.65 0.74 0.90 1.08 1.20 1.14 1.08 1.24 1.19 1.21 1.17 1.10 1.27 1.22 1.10
0.08 0.10 0.13 0.14 0.15 0.16 0.16 0.18 0.22 0.22 0.25 0.24 0.31 0.43 0.60 0.68 0.77 0.90 0.93 0.90 0.83 0.72 0.65 0.62 0.58 0.56 0.63 0.80 0.73 0.77 0.84 0.97 1.09 1.11 1.11 1.07 1.16 0.99 0.95 1.00 1.13 1.28 1.22
0.09 0.09 0.10 0.11 0.14 0.16 0.15 0.16 0.24 0.25 0.29 0.28 0.29 0.37 0.50 0.64 0.79 0.90 0.89 0.87 0.87 0.79 0.69 0.66 0.64 0.65 0.73 0.79 0.81 0.80 0.83 0.91 0.99 0.97 0.88 0.87 0.96 0.82 0.78 0.76 0.89 1.08 1.11
0.08 0.09 0.10 0.11 0.12 0.13 0.16 0.17 0.20 0.24 0.26 0.29 0.25 0.27 0.36 0.50 0.68 0.77 0.79 0.80 0.80 0.77 0.74 0.68 0.65 0.66 0.73 0.83 0.96 0.83 0.72 0.69 0.76 0.80 0.80 0.74 0.70 0.69 0.63 0.67 0.78 0.84 0.97
0.08 0.08 0.10 0.11 0.12 0.13 0.16 0.19 0.23 0.24 0.24 0.26 0.27 0.25 0.25 0.31 0.40 0.48 0.54 0.62 0.67 0.67 0.67 0.67 0.67 0.68 0.69 0.68 0.77 0.80 0.72 0.64 0.61 0.60 0.54 0.52 0.55 0.59 0.60 0.60 0.62 0.68 0.90
0.10 0.09 0.11 0.13 0.13 0.14 0.15 0.17 0.21 0.24 0.25 0.26 0.28 0.29 0.30 0.33 0.35 0.37 0.41 0.45 0.48 0.58 0.64 0.63 0.65 0.64 0.63 0.65 0.73 0.73 0.72 0.74 0.75 0.75 0.64 0.58 0.57 0.57 0.60 0.61 0.66 0.77 0.88
0.11 0.12 0.14 0.15 0.15 0.15 0.16 0.16 0.18 0.20 0.22 0.24 0.24 0.24 0.25 0.29 0.30 0.32 0.36 0.39 0.40 0.46 0.49 0.49 0.49 0.46 0.52 0.61 0.61 0.62 0.65 0.70 0.76 0.78 0.75 0.74 0.73 0.71 0.70 0.69 0.66 0.67 0.75

GEFSMW_prec_meanprecacc_276.txt.gz
Total_Precipitation_Accumulation
0.70 0.66 0.61 0.66 0.66 0.60 0.58 0.63 0.76 0.91 1.06 1.18 1.30 1.53 1.68 1.78 1.78 1.77 1.81 1.71 1.51 1.57 1.70 1.69 1.92 1.98 1.97 2.01 1.97 2.15 2.20 1.92 1.78 2.13 2.08 1.67 1.35 1.23 1.30 1.39 1.44 1.56 1.58
0.57 0.56 0.48 0.46 0.49 0.51 0.53 0.58 0.72 0.95 1.16 1.36 1.53 1.70 2.02 2.18 2.17 2.23 2.13 2.05 1.92 1.93 1.85 1.94 2.19 2.25 2.37 2.47 2.33 2.49 2.60 2.30 2.01 2.46 2.95 2.52 2.03 1.41 1.18 1.30 1.47 1.64 1.68
0.46 0.47 0.41 0.37 0.34 0.38 0.44 0.52 0.62 0.84 1.15 1.44 1.67 1.85 2.08 2.34 2.45 2.34 2.28 2.27 2.31 2.34 2.21 2.15 2.30 2.35 2.46 2.68 2.73 2.69 2.82 2.77 2.42 2.38 2.96 2.94 2.53 2.09 1.53 1.35 1.43 1.63 1.75
0.44 0.42 0.39 0.38 0.35 0.38 0.43 0.53 0.62 0.77 0.98 1.24 1.55 1.81 2.08 2.39 2.45 2.40 2.38 2.41 2.47 2.51 2.44 2.38 2.46 2.51 2.52 2.64 2.70 2.69 2.96 3.19 2.93 2.63 2.41 2.37 2.39 2.43 2.05 1.63 1.48 1.63 1.76
0.46 0.41 0.40 0.39 0.42 0.44 0.49 0.60 0.71 0.82 0.99 1.24 1.55 1.85 2.04 2.23 2.41 2.41 2.31 2.24 2.31 2.28 2.20 2.30 2.47 2.51 2.53 2.53 2.71 2.82 3.06 3.10 3.04 2.92 2.76 2.56 2.39 2.03 2.11 2.04 1.77 1.71 1.65
0.46 0.48 0.51 0.50 0.49 0.53 0.63 0.76 0.85 1.00 1.13 1.22 1.33 1.47 1.68 1.97 2.13 2.26 2.25 2.24 2.24 2.13 2.03 2.11 2.20 2.30 2.38 2.36 2.42 2.59 2.76 2.98 3.12 3.06 2.88 2.82 2.75 2.52 2.34 2.05 1.89 1.96 1.82
0.56 0.64 0.71 0.67 0.63 0.66 0.79 0.90 0.98 1.03 1.08 1.05 1.06 1.17 1.34 1.57 1.72 1.83 2.00 2.06 2.11 2.08 2.06 1.99 2.03 2.08 2.15 2.25 2.44 2.46 2.53 2.72 2.91 2.92 2.85 2.84 2.68 2.58 2.60 2.36 2.00 1.91 1.81
0.68 0.83 0.93 0.94 0.87 0.87 0.91 0.92 0.98 0.93 0.93 0.95 0.97 1.04 1.10 1.25 1.36 1.44 1.59 1.70 1.70 1.69 1.67 1.72 1.82 1.95 2.04 2.12 2.28 2.37 2.37 2.43 2.49 2.51 2.67 2.76 2.66 2.45 2.38 2.39 2.44 2.18 1.93
0.82 0.99 1.16 1.19 1.10 1.03 0.97 0.98 1.05 0.99 0.91 0.94 1.02 1.04 1.06 1.05 1.05 1.11 1.11 1.19 1.26 1.28 1.31 1.38 1.52 1.72 1.84 1.89 2.00 2.18 2.18 2.24 2.22 2.26 2.33 2.36 2.44 2.32 2.16 2.13 2.23 2.36 2.15
1.03 1.17 1.29 1.29 1.25 1.27 1.22 1.07 1.07 1.10 1.02 1.10 1.12 1.04 1.01 0.96 0.96 1.00 1.02 1.03 1.11 1.19 1.26 1.28 1.35 1.48 1.56 1.65 1.81 1.94 2.03 2.08 2.05 2.03 2.09 2.14 2.19 2.21 2.19 2.16 2.18 2.17 2.11
1.25 1.27 1.35 1.34 1.23 1.21 1.18 1.17 1.13 1.12 1.13 1.14 1.14 1.01 0.99 1.01 1.00 0.98 0.99 1.05 1.12 1.22 1.26 1.30 1.33 1.34 1.42 1.47 1.57 1.70 1.84 1.86 1.88 1.77 1.81 1.92 2.00 2.19 2.23 2.20 2.17 2.15 2.05
1.24 1.24 1.32 1.27 1.15 1.12 1.02 1.07 1.14 1.14 1.21 1.23 1.14 1.05 1.09 1.11 1.13 1.09 1.04 1.07 1.10 1.09 1.16 1.26 1.22 1.21 1.25 1.34 1.44 1.53 1.59 1.68 1.65 1.55 1.57 1.68 1.76 1.91 2.02 2.13 2.04 2.04 2.01
1.01 0.96 1.01 1.09 1.06 1.04 0.97 1.05 1.13 1.18 1.20 1.25 1.25 1.12 1.02 1.04 1.06 1.06 0.99 0.96 0.97 1.00 1.11 1.22 1.32 1.23 1.12 1.22 1.31 1.35 1.37 1.38 1.33 1.32 1.37 1.43 1.51 1.64 1.75 1.86 1.95 1.96 1.90
0.79 0.73 0.71 0.79 0.80 0.83 0.90 0.97 1.11 1.27 1.29 1.30 1.26 1.20 1.13 1.15 1.07 0.99 0.95 0.92 0.88 0.82 0.88 1.02 1.13 1.16 1.11 1.07 1.08 1.11 1.27 1.26 1.17 1.08 1.07 1.10 1.14 1.27 1.41 1.53 1.67 1.83 1.95
0.57 0.58 0.56 0.58 0.60 0.64 0.73 0.80 0.91 1.12 1.25 1.35 1.34 1.25 1.18 1.09 1.01 0.92 0.85 0.85 0.76 0.71 0.77 0.93 1.08 1.12 1.12 1.13 1.13 1.06 1.10 1.16 1.17 1.09 0.97 0.90 0.91 1.01 1.10 1.19 1.46 1.66 1.82
0.40 0.41 0.45 0.47 0.52 0.56 0.64 0.65 0.75 0.92 1.05 1.13 1.17 1.23 1.20 1.04 0.92 0.82 0.75 0.72 0.70 0.70 0.70 0.78 0.93 1.05 1.01 1.18 1.23 1.15 1.05 1.06 1.05 1.05 1.03 1.02 0.97 0.85 0.81 0.87 1.04 1.29 1.50
0.36 0.34 0.35 0.39 0.47 0.55 0.58 0.63 0.74 0.87 0.91 0.98 1.01 1.05 1.05 0.90 0.83 0.73 0.66 0.64 0.64 0.67 0.66 0.72 0.84 0.98 1.12 1.17 1.03 1.11 1.11 1.05 1.06 1.02 1.02 1.04 1.01 1.05 0.94 0.88 0.87 0.90 1.08
0.27 0.32 0.30 0.31 0.35 0.42 0.53 0.67 0.72 0.73 0.74 0.81 0.84 0.83 0.84 0.80 0.74 0.63 0.60 0.61 0.64 0.68 0.69 0.72 0.77 0.85 1.07 1.15 1.01 1.19 1.20 1.18 1.15 1.11 1.11 1.14 1.16 1.10 1.22 1.18 1.07 0.99 0.98
0.18 0.23 0.23 0.23 0.25 0.27 0.30 0.37 0.43 0.48 0.51 0.62 0.69 0.72 0.74 0.71 0.67 0.61 0.68 0.72 0.70 0.70 0.69 0.67 0.67 0.70 0.81 0.92 0.88 1.01 1.13 1.23 1.23 1.11 1.09 1.13 1.14 1.34 1.39 1.26 1.21 1.13 1.07
0.11 0.14 0.18 0.18 0.17 0.18 0.19 0.23 0.29 0.34 0.38 0.45 0.51 0.58 0.65 0.68 0.71 0.82 0.89 0.90 0.85 0.76 0.68 0.64 0.61 0.62 0.64 0.80 0.67 0.76 0.91 1.10 1.23 1.17 1.10 1.27 1.22 1.24 1.19 1.12 1.28 1.24 1.12
0.09 0.11 0.13 0.14 0.16 0.17 0.16 0.20 0.25 0.27 0.29 0.29 0.35 0.46 0.62 0.71 0.80 0.94 0.96 0.93 0.87 0.76 0.67 0.63 0.60 0.58 0.65 0.81 0.75 0.79 0.86 0.99 1.10 1.12 1.12 1.08 1.18 1.02 0.98 1.02 1.15 1.30 1.24
0.10 0.09 0.10 0.11 0.14 0.17 0.16 0.18 0.26 0.28 0.32 0.33 0.34 0.40 0.52 0.67 0.83 0.95 0.93 0.92 0.91 0.83 0.73 0.69 0.66 0.67 0.76 0.82 0.83 0.82 0.85 0.93 1.00 0.98 0.89 0.88 0.97 0.83 0.79 0.78 0.91 1.10 1.13
0.11 0.10 0.11 0.11 0.12 0.14 0.17 0.19 0.22 0.26 0.28 0.31 0.29 0.30 0.38 0.53 0.71 0.80 0.82 0.83 0.85 0.81 0.77 0.72 0.67 0.68 0.75 0.86 0.99 0.86 0.75 0.71 0.78 0.81 0.81 0.74 0.71 0.69 0.64 0.68 0.79 0.85 0.98
0.09 0.09 0.11 0.12 0.12 0.14 0.17 0.21 0.25 0.25 0.25 0.27 0.28 0.28 0.28 0.33 0.43 0.52 0.58 0.66 0.70 0.70 0.70 0.71 0.70 0.71 0.71 0.71 0.81 0.85 0.76 0.66 0.63 0.62 0.55 0.53 0.55 0.60 0.60 0.61 0.63 0.69 0.92
0.11 0.10 0.12 0.14 0.14 0.16 0.17 0.19 0.23 0.26 0.26 0.27 0.29 0.30 0.33 0.36 0.39 0.42 0.45 0.50 0.53 0.62 0.68 0.67 0.70 0.69 0.68 0.70 0.78 0.78 0.76 0.77 0.77 0.77 0.66 0.59 0.57 0.58 0.60 0.62 0.66 0.77 0.89
0.12 0.14 0.15 0.17 0.16 0.17 0.18 0.17 0.19 0.21 0.23 0.25 0.26 0.25 0.28 0.32 0.34 0.38 0.41 0.45 0.45 0.53 0.55 0.55 0.54 0.51 0.58 0.66 0.65 0.66 0.68 0.72 0.78 0.79 0.75 0.74 0.73 0.72 0.70 0.69 0.67 0.67 0.76

GEFSMW_prec_meanprecacc_282.txt.gz
Total_Precipitation_Accumulation
0.70 0.67 0.64 0.70 0.69 0.62 0.60 0.66 0.80 0.94 1.08 1.21 1.33 1.55 1.70 1.80 1.80 1.79 1.83 1.73 1.52 1.58 1.71 1.70 1.93 1.99 1.98 2.02 1.99 2.16 2.23 1.95 1.80 2.16 2.12 1.72 1.40 1.26 1.33 1.41 1.46 1.58 1.60
0.58 0.57 0.49 0.49 0.52 0.54 0.57 0.63 0.76 0.98 1.18 1.38 1.55 1.72 2.04 2.19 2.18 2.24 2.15 2.07 1.94 1.94 1.86 1.95 2.20 2.26 2.38 2.48 2.34 2.52 2.64 2.33 2.03 2.49 2.99 2.58 2.10 1.45 1.21 1.32 1.49 1.67 1.71
0.46 0.48 0.42 0.39 0.38 0.42 0.49 0.58 0.69 0.89 1.17 1.46 1.68 1.87 2.10 2.35 2.46 2.35 2.30 2.29 2.33 2.37 2.23 2.18 2.32 2.36 2.47 2.70 2.74 2.70 2.84 2.80 2.44 2.41 2.99 2.99 2.59 2.13 1.56 1.38 1.46 1.65 1.78
0.45 0.43 0.40 0.41 0.39 0.43 0.49 0.60 0.69 0.82 1.01 1.26 1.57 1.83 2.09 2.40 2.46 2.41 2.39 2.42 2.50 2.54 2.47 2.41 2.48 2.52 2.53 2.65 2.71 2.70 2.98 3.21 2.97 2.66 2.43 2.40 2.43 2.46 2.08 1.65 1.51 1.65 1.78
0.47 0.43 0.42 0.42 0.45 0.48 0.54 0.68 0.79 0.87 1.02 1.27 1.57 1.86 2.06 2.24 2.42 2.42 2.32 2.25 2.33 2.30 2.22 2.32 2.48 2.52 2.54 2.55 2.72 2.84 3.09 3.15 3.07 2.95 2.78 2.60 2.43 2.06 2.14 2.06 1.80 1.74 1.68
0.47 0.49 0.53 0.52 0.51 0.56 0.66 0.80 0.91 1.05 1.17 1.26 1.36 1.49 1.69 1.98 2.13 2.27 2.26 2.24 2.25 2.14 2.03 2.12 2.22 2.33 2.40 2.38 2.43 2.60 2.79 3.04 3.18 3.09 2.90 2.84 2.77 2.54 2.36 2.07 1.91 1.99 1.86
0.57 0.65 0.72 0.68 0.65 0.68 0.82 0.94 1.03 1.07 1.11 1.08 1.09 1.19 1.35 1.58 1.73 1.85 2.01 2.07 2.11 2.09 2.07 2.00 2.05 2.14 2.19 2.28 2.46 2.47 2.55 2.75 2.95 2.96 2.88 2.87 2.70 2.60 2.61 2.37 2.01 1.92 1.84
0.69 0.84 0.95 0.95 0.89 0.88 0.92 0.94 1.01 0.96 0.95 0.97 1.00 1.06 1.12 1.26 1.37 1.46 1.59 1.71 1.70 1.70 1.68 1.73 1.83 1.99 2.08 2.15 2.31 2.40 2.40 2.46 2.52 2.55 2.71 2.81 2.70 2.49 2.42 2.42 2.45 2.19 1.96
0.83 1.00 1.17 1.20 1.12 1.05 0.99 1.01 1.08 1.02 0.94 0.96 1.04 1.06 1.08 1.07 1.06 1.13 1.12 1.19 1.26 1.28 1.32 1.38 1.53 1.74 1.87 1.91 2.02 2.21 2.21 2.27 2.27 2.33 2.39 2.42 2.48 2.35 2.18 2.15 2.24 2.37 2.18
1.03 1.18 1.30 1.30 1.26 1.29 1.24 1.09 1.09 1.13 1.05 1.13 1.15 1.07 1.02 0.97 0.97 1.02 1.03 1.04 1.11 1.19 1.26 1.29 1.36 1.49 1.58 1.67 1.83 1.96 2.06 2.12 2.09 2.05 2.12 2.17 2.22 2.23 2.20 2.17 2.19 2.19 2.14
1.26 1.28 1.36 1.34 1.24 1.22 1.19 1.18 1.14 1.14 1.15 1.17 1.18 1.04 1.01 1.03 1.02 1.00 1.02 1.07 1.14 1.23 1.27 1.31 1.34 1.35 1.43 1.48 1.58 1.72 1.86 1.88 1.90 1.79 1.82 1.94 2.02 2.20 2.24 2.21 2.17 2.16 2.06
1.25 1.24 1.32 1.27 1.16 1.14 1.04 1.09 1.16 1.16 1.24 1.26 1.17 1.09 1.12 1.14 1.15 1.11 1.07 1.09 1.12 1.11 1.17 1.28 1.24 1.23 1.27 1.34 1.44 1.54 1.60 1.69 1.65 1.56 1.59 1.71 1.78 1.92 2.04 2.14 2.05 2.05 2.01
1.02 0.96 1.01 1.09 1.06 1.05 0.98 1.07 1.14 1.20 1.22 1.27 1.27 1.15 1.06 1.08 1.11 1.10 1.03 0.99 1.00 1.03 1.13 1.25 1.34 1.24 1.13 1.22 1.31 1.35 1.38 1.39 1.34 1.33 1.38 1.45 1.52 1.65 1.76 1.86 1.95 1.97 1.90
0.79 0.73 0.72 0.79 0.81 0.84 0.91 0.99 1.12 1.28 1.30 1.31 1.27 1.22 1.14 1.17 1.10 1.02 0.98 0.96 0.91 0.86 0.92 1.05 1.15 1.17 1.12 1.08 1.09 1.12 1.27 1.27 1.17 1.08 1.07 1.10 1.14 1.28 1.42 1.53 1.68 1.83 1.96
0.57 0.59 0.57 0.59 0.61 0.65 0.74 0.81 0.92 1.13 1.26 1.36 1.35 1.26 1.20 1.11 1.03 0.94 0.87 0.88 0.79 0.77 0.82 0.97 1.12 1.16 1.14 1.15 1.15 1.08 1.11 1.16 1.17 1.09 0.98 0.90 0.91 1.02 1.10 1.19 1.46 1.67 1.83
0.40 0.41 0.46 0.48 0.53 0.57 0.64 0.66 0.76 0.94 1.07 1.14 1.18 1.25 1.23 1.06 0.95 0.84 0.77 0.74 0.72 0.71 0.71 0.80 0.95 1.08 1.05 1.21 1.25 1.17 1.07 1.07 1.07 1.06 1.04 1.02 0.98 0.86 0.81 0.88 1.05 1.30 1.51
0.36 0.34 0.35 0.39 0.47 0.56 0.59 0.64 0.75 0.88 0.93 0.99 1.03 1.08 1.08 0.93 0.86 0.76 0.67 0.66 0.66 0.69 0.67 0.73 0.86 1.00 1.16 1.21 1.07 1.15 1.13 1.07 1.07 1.04 1.04 1.06 1.04 1.07 0.95 0.89 0.87 0.90 1.08
0.27 0.32 0.30 0.31 0.35 0.43 0.53 0.67 0.72 0.74 0.76 0.83 0.87 0.87 0.87 0.81 0.76 0.65 0.62 0.63 0.67 0.71 0.71 0.75 0.80 0.88 1.11 1.19 1.06 1.25 1.24 1.21 1.18 1.14 1.14 1.19 1.21 1.15 1.26 1.20 1.08 1.00 0.99
0.18 0.23 0.23 0.23 0.25 0.27 0.31 0.37 0.44 0.49 0.52 0.63 0.71 0.74 0.75 0.73 0.68 0.63 0.70 0.74 0.73 0.72 0.72 0.71 0.71 0.73 0.85 0.97 0.91 1.05 1.17 1.28 1.28 1.15 1.12 1.16 1.17 1.36 1.41 1.29 1.24 1.15 1.09
0.11 0.14 0.18 0.18 0.17 0.18 0.19 0.24 0.30 0.36 0.40 0.46 0.53 0.60 0.67 0.69 0.73 0.84 0.92 0.93 0.88 0.80 0.72 0.68 0.65 0.65 0.67 0.84 0.72 0.82 0.95 1.14 1.27 1.21 1.14 1.29 1.24 1.26 1.21 1.14 1.30 1.25 1.14
0.09 0.11 0.13 0.14 0.16 0.17 0.17 0.20 0.25 0.27 0.30 0.30 0.37 0.48 0.64 0.73 0.84 0.99 1.02 0.97 0.91 0.80 0.71 0.66 0.63 0.61 0.67 0.85 0.79 0.83 0.89 1.02 1.13 1.15 1.15 1.11 1.21 1.04 1.00 1.05 1.16 1.31 1.26
0.11 0.10 0.10 0.11 0.15 0.17 0.16 0.18 0.26 0.28 0.33 0.34 0.36 0.41 0.54 0.69 0.86 1.00 0.99 0.97 0.96 0.88 0.77 0.73 0.69 0.69 0.78 0.84 0.86 0.85 0.88 0.96 1.02 1.00 0.90 0.90 0.99 0.84 0.81 0.80 0.93 1.12 1.15
0.12 0.12 0.11 0.11 0.12 0.14 0.18 0.19 0.23 0.27 0.29 0.33 0.30 0.31 0.39 0.54 0.72 0.82 0.85 0.87 0.89 0.85 0.80 0.75 0.70 0.71 0.78 0.89 1.02 0.89 0.77 0.73 0.79 0.83 0.83 0.76 0.73 0.71 0.66 0.69 0.81 0.87 1.00
0.10 0.10 0.12 0.12 0.13 0.15 0.18 0.22 0.26 0.27 0.26 0.28 0.29 0.28 0.29 0.34 0.44 0.53 0.60 0.68 0.72 0.71 0.72 0.72 0.71 0.73 0.73 0.73 0.84 0.88 0.79 0.68 0.64 0.63 0.57 0.56 0.58 0.62 0.63 0.63 0.65 0.71 0.93
0.11 0.11 0.12 0.15 0.15 0.16 0.17 0.20 0.24 0.27 0.27 0.28 0.30 0.31 0.33 0.36 0.39 0.42 0.46 0.51 0.54 0.64 0.71 0.70 0.73 0.71 0.70 0.71 0.80 0.81 0.78 0.79 0.79 0.79 0.68 0.62 0.60 0.60 0.63 0.64 0.68 0.79 0.91
0.13 0.15 0.16 0.17 0.17 0.17 0.18 0.18 0.20 0.22 0.24 0.26 0.27 0.27 0.29 0.33 0.34 0.38 0.42 0.46 0.47 0.55 0.58 0.58 0.57 0.54 0.60 0.68 0.67 0.68 0.70 0.74 0.80 0.81 0.77 0.76 0.75 0.73 0.71 0.70 0.68 0.68 0.77

GEFSMW_prec_meanprecacc_288.txt.gz
Total_Precipitation_Accumulation
0.71 0.68 0.65 0.72 0.72 0.65 0.63 0.70 0.84 0.97 1.09 1.23 1.38 1.59 1.73 1.82 1.83 1.81 1.84 1.75 1.54 1.60 1.73 1.72 1.94 2.00 1.99 2.03 2.00 2.18 2.24 1.96 1.81 2.18 2.14 1.74 1.41 1.27 1.34 1.43 1.47 1.59 1.61
0.58 0.57 0.49 0.51 0.54 0.56 0.60 0.66 0.81 1.02 1.20 1.41 1.58 1.74 2.06 2.21 2.21 2.26 2.17 2.09 1.95 1.95 1.88 1.99 2.23 2.28 2.39 2.50 2.36 2.53 2.66 2.34 2.05 2.51 3.02 2.61 2.13 1.48 1.23 1.34 1.50 1.68 1.72
0.47 0.49 0.43 0.40 0.39 0.44 0.51 0.61 0.72 0.93 1.21 1.49 1.71 1.88 2.12 2.38 2.49 2.37 2.33 2.31 2.35 2.38 2.25 2.22 2.38 2.42 2.51 2.72 2.76 2.71 2.86 2.83 2.47 2.43 3.02 3.03 2.64 2.17 1.60 1.41 1.48 1.67 1.79
0.46 0.44 0.42 0.42 0.40 0.44 0.52 0.63 0.74 0.88 1.06 1.30 1.60 1.86 2.13 2.44 2.48 2.42 2.40 2.43 2.50 2.55 2.48 2.44 2.52 2.57 2.56 2.67 2.72 2.71 3.00 3.24 3.02 2.69 2.46 2.44 2.47 2.51 2.13 1.71 1.55 1.67 1.79
0.48 0.44 0.43 0.44 0.46 0.49 0.55 0.70 0.82 0.94 1.10 1.34 1.62 1.92 2.10 2.28 2.45 2.45 2.33 2.26 2.34 2.31 2.22 2.33 2.49 2.53 2.56 2.57 2.73 2.85 3.11 3.17 3.11 2.99 2.81 2.63 2.46 2.10 2.18 2.11 1.84 1.77 1.70
0.48 0.51 0.54 0.53 0.52 0.57 0.67 0.82 0.95 1.09 1.22 1.32 1.42 1.56 1.75 2.02 2.17 2.31 2.29 2.26 2.27 2.16 2.05 2.13 2.25 2.35 2.42 2.39 2.44 2.62 2.81 3.07 3.20 3.12 2.93 2.87 2.80 2.58 2.39 2.09 1.94 2.01 1.88
0.58 0.66 0.73 0.70 0.66 0.69 0.83 0.96 1.06 1.12 1.16 1.13 1.16 1.25 1.40 1.63 1.77 1.89 2.06 2.11 2.14 2.12 2.10 2.02 2.07 2.16 2.21 2.30 2.48 2.49 2.57 2.77 2.98 2.98 2.92 2.91 2.75 2.65 2.64 2.39 2.02 1.94 1.86
0.69 0.84 0.96 0.98 0.91 0.90 0.94 0.96 1.04 1.00 0.99 1.02 1.05 1.12 1.17 1.32 1.42 1.49 1.62 1.74 1.73 1.72 1.70 1.75 1.85 2.01 2.09 2.19 2.36 2.44 2.45 2.50 2.56 2.58 2.74 2.84 2.74 2.53 2.45 2.44 2.47 2.21 1.99
0.83 1.00 1.19 1.23 1.14 1.07 1.02 1.04 1.11 1.06 0.98 1.00 1.08 1.10 1.11 1.10 1.09 1.15 1.14 1.21 1.28 1.30 1.33 1.40 1.54 1.75 1.88 1.93 2.07 2.26 2.26 2.31 2.32 2.38 2.45 2.48 2.54 2.41 2.22 2.18 2.28 2.41 2.23
1.04 1.19 1.32 1.33 1.28 1.31 1.27 1.12 1.11 1.16 1.08 1.17 1.19 1.11 1.05 1.00 0.99 1.04 1.06 1.05 1.13 1.22 1.29 1.30 1.36 1.50 1.59 1.68 1.84 1.99 2.09 2.15 2.12 2.09 2.16 2.21 2.24 2.26 2.23 2.20 2.21 2.22 2.19
1.26 1.30 1.38 1.37 1.26 1.24 1.22 1.21 1.16 1.15 1.17 1.19 1.21 1.08 1.06 1.08 1.06 1.02 1.04 1.10 1.16 1.25 1.28 1.33 1.35 1.36 1.44 1.49 1.59 1.73 1.87 1.90 1.92 1.81 1.84 1.97 2.04 2.23 2.26 2.23 2.19 2.18 2.10
1.26 1.25 1.34 1.30 1.18 1.16 1.06 1.11 1.18 1.18 1.26 1.28 1.20 1.12 1.16 1.18 1.20 1.16 1.11 1.12 1.15 1.14 1.20 1.30 1.25 1.23 1.27 1.35 1.46 1.56 1.61 1.70 1.67 1.58 1.60 1.73 1.79 1.95 2.06 2.16 2.07 2.07 2.04
1.02 0.97 1.03 1.12 1.09 1.07 0.99 1.08 1.15 1.21 1.23 1.29 1.29 1.18 1.09 1.12 1.15 1.16 1.08 1.04 1.04 1.07 1.16 1.27 1.36 1.26 1.16 1.25 1.34 1.37 1.39 1.40 1.35 1.34 1.40 1.47 1.54 1.67 1.79 1.89 1.97 1.99 1.93
0.79 0.74 0.73 0.81 0.83 0.86 0.92 0.99 1.13 1.29 1.31 1.32 1.29 1.25 1.19 1.22 1.15 1.07 1.02 0.99 0.95 0.89 0.94 1.08 1.18 1.21 1.16 1.11 1.11 1.14 1.29 1.28 1.18 1.09 1.09 1.11 1.16 1.29 1.44 1.55 1.71 1.87 1.99
0.58 0.59 0.58 0.60 0.62 0.66 0.75 0.82 0.93 1.14 1.27 1.37 1.37 1.29 1.23 1.16 1.11 1.02 0.92 0.92 0.83 0.80 0.85 1.00 1.15 1.19 1.18 1.19 1.19 1.11 1.15 1.20 1.19 1.11 0.99 0.92 0.92 1.03 1.12 1.21 1.48 1.69 1.85
0.40 0.41 0.46 0.48 0.53 0.57 0.65 0.66 0.78 0.95 1.08 1.15 1.20 1.28 1.26 1.10 1.00 0.91 0.82 0.78 0.75 0.74 0.73 0.81 0.96 1.10 1.07 1.25 1.29 1.21 1.11 1.11 1.10 1.09 1.06 1.04 1.00 0.89 0.84 0.90 1.07 1.31 1.52
0.36 0.35 0.36 0.40 0.47 0.56 0.59 0.64 0.75 0.89 0.94 1.01 1.04 1.10 1.11 0.97 0.90 0.80 0.72 0.70 0.69 0.71 0.69 0.74 0.87 1.01 1.19 1.26 1.10 1.17 1.16 1.10 1.10 1.06 1.06 1.09 1.06 1.10 0.98 0.92 0.90 0.92 1.09
0.27 0.32 0.30 0.31 0.35 0.43 0.54 0.67 0.72 0.74 0.76 0.84 0.88 0.88 0.89 0.85 0.80 0.70 0.68 0.69 0.71 0.74 0.74 0.77 0.82 0.89 1.13 1.23 1.08 1.26 1.26 1.23 1.20 1.16 1.17 1.22 1.23 1.17 1.28 1.23 1.10 1.01 1.00
0.19 0.23 0.23 0.23 0.25 0.28 0.31 0.37 0.44 0.49 0.53 0.64 0.71 0.75 0.77 0.76 0.72 0.68 0.76 0.80 0.78 0.77 0.76 0.75 0.75 0.77 0.88 1.01 0.95 1.07 1.18 1.30 1.30 1.17 1.14 1.18 1.19 1.39 1.45 1.31 1.25 1.16 1.10
0.11 0.15 0.18 0.18 0.17 0.18 0.20 0.24 0.30 0.36 0.40 0.47 0.54 0.61 0.68 0.70 0.75 0.88 0.98 1.01 0.95 0.85 0.78 0.74 0.70 0.70 0.72 0.89 0.78 0.86 0.98 1.16 1.31 1.26 1.18 1.33 1.28 1.29 1.25 1.16 1.32 1.27 1.15
0.09 0.11 0.13 0.14 0.16 0.17 0.17 0.20 0.26 0.27 0.31 0.31 0.38 0.49 0.64 0.74 0.85 1.01 1.05 1.03 0.97 0.85 0.75 0.70 0.67 0.65 0.72 0.91 0.86 0.89 0.92 1.04 1.16 1.19 1.20 1.16 1.27 1.09 1.05 1.08 1.18 1.33 1.28
0.11 0.10 0.10 0.11 0.15 0.17 0.16 0.18 0.27 0.29 0.34 0.35 0.37 0.43 0.54 0.69 0.87 1.01 1.02 1.03 1.02 0.93 0.80 0.75 0.72 0.73 0.83 0.90 0.93 0.92 0.94 0.99 1.05 1.03 0.94 0.94 1.05 0.91 0.87 0.85 0.98 1.16 1.18
0.13 0.13 0.12 0.12 0.13 0.14 0.18 0.20 0.24 0.28 0.31 0.34 0.31 0.32 0.40 0.54 0.73 0.83 0.87 0.92 0.97 0.93 0.87 0.80 0.75 0.76 0.82 0.93 1.08 0.97 0.85 0.81 0.84 0.86 0.87 0.80 0.78 0.77 0.71 0.74 0.86 0.92 1.04
0.13 0.12 0.13 0.13 0.13 0.15 0.18 0.22 0.27 0.28 0.28 0.29 0.30 0.29 0.30 0.34 0.44 0.53 0.61 0.70 0.76 0.78 0.78 0.78 0.76 0.77 0.77 0.76 0.87 0.93 0.85 0.75 0.71 0.68 0.62 0.61 0.63 0.66 0.66 0.67 0.69 0.75 0.97
0.14 0.13 0.14 0.16 0.16 0.17 0.18 0.20 0.24 0.28 0.28 0.29 0.31 0.31 0.33 0.37 0.40 0.43 0.47 0.52 0.56 0.67 0.74 0.74 0.77 0.75 0.73 0.74 0.84 0.84 0.82 0.83 0.85 0.85 0.73 0.66 0.63 0.62 0.65 0.66 0.70 0.82 0.94
0.14 0.16 0.18 0.19 0.17 0.18 0.19 0.19 0.20 0.23 0.25 0.27 0.27 0.27 0.29 0.33 0.35 0.38 0.42 0.47 0.48 0.56 0.59 0.60 0.61 0.58 0.64 0.72 0.70 0.70 0.73 0.78 0.85 0.89 0.84 0.82 0.79 0.77 0.74 0.73 0.70 0.71 0.80

GEFSMW_prec_meanprecacc_294.txt.gz
Total_Precipitation_Accumulation
0.74 0.71 0.69 0.76 0.75 0.68 0.66 0.74 0.89 1.03 1.16 1.28 1.43 1.63 1.77 1.84 1.84 1.82 1.85 1.75 1.55 1.61 1.74 1.73 1.95 2.01 2.00 2.04 2.01 2.18 2.25 1.97 1.82 2.20 2.16 1.75 1.42 1.28 1.35 1.44 1.49 1.61 1.63
0.61 0.61 0.55 0.55 0.57 0.59 0.63 0.71 0.87 1.09 1.28 1.47 1.64 1.79 2.10 2.24 2.23 2.27 2.18 2.10 1.96 1.97 1.89 2.00 2.24 2.29 2.40 2.51 2.37 2.54 2.67 2.35 2.06 2.52 3.03 2.62 2.14 1.49 1.24 1.36 1.52 1.70 1.74
0.51 0.53 0.48 0.44 0.42 0.46 0.54 0.64 0.76 0.97 1.27 1.57 1.81 1.96 2.18 2.44 2.53 2.40 2.34 2.33 2.36 2.39 2.26 2.22 2.38 2.43 2.52 2.73 2.77 2.72 2.87 2.84 2.49 2.45 3.03 3.04 2.65 2.19 1.62 1.44 1.50 1.70 1.81
0.51 0.49 0.46 0.46 0.44 0.48 0.56 0.67 0.77 0.92 1.11 1.36 1.70 1.97 2.23 2.56 2.58 2.47 2.43 2.47 2.53 2.56 2.49 2.44 2.53 2.57 2.57 2.67 2.73 2.73 3.02 3.26 3.03 2.72 2.47 2.45 2.48 2.53 2.17 1.75 1.60 1.72 1.83
0.53 0.49 0.48 0.48 0.51 0.54 0.60 0.74 0.86 0.98 1.14 1.39 1.69 2.01 2.20 2.39 2.53 2.51 2.39 2.33 2.39 2.34 2.24 2.33 2.50 2.53 2.56 2.58 2.74 2.86 3.13 3.19 3.12 3.01 2.84 2.65 2.48 2.11 2.20 2.15 1.90 1.83 1.76
0.51 0.54 0.58 0.58 0.57 0.62 0.72 0.85 0.98 1.13 1.26 1.38 1.50 1.66 1.85 2.10 2.23 2.35 2.34 2.33 2.35 2.24 2.11 2.17 2.26 2.36 2.42 2.40 2.46 2.63 2.82 3.08 3.21 3.13 2.96 2.90 2.81 2.59 2.41 2.12 1.97 2.07 1.94
0.59 0.68 0.75 0.73 0.71 0.73 0.87 0.99 1.09 1.16 1.21 1.19 1.25 1.35 1.49 1.70 1.83 1.94 2.09 2.14 2.18 2.18 2.17 2.08 2.11 2.17 2.22 2.31 2.49 2.50 2.58 2.79 2.99 3.01 2.95 2.93 2.76 2.67 2.65 2.40 2.05 1.99 1.92
0.71 0.86 0.97 1.00 0.94 0.92 0.96 0.98 1.07 1.05 1.05 1.08 1.13 1.19 1.25 1.38 1.47 1.53 1.66 1.76 1.75 1.75 1.73 1.78 1.89 2.03 2.11 2.19 2.36 2.45 2.46 2.52 2.58 2.60 2.78 2.87 2.76 2.55 2.46 2.45 2.50 2.25 2.03
0.84 1.01 1.20 1.24 1.15 1.09 1.04 1.06 1.15 1.10 1.02 1.05 1.14 1.17 1.18 1.16 1.15 1.22 1.20 1.25 1.31 1.33 1.36 1.42 1.56 1.76 1.89 1.94 2.07 2.27 2.28 2.35 2.35 2.41 2.48 2.50 2.56 2.43 2.24 2.20 2.30 2.44 2.26
1.05 1.20 1.32 1.33 1.29 1.32 1.30 1.15 1.14 1.19 1.12 1.21 1.24 1.17 1.12 1.07 1.07 1.10 1.11 1.11 1.17 1.25 1.31 1.33 1.38 1.52 1.60 1.69 1.85 2.00 2.10 2.18 2.14 2.12 2.19 2.24 2.27 2.29 2.25 2.22 2.23 2.24 2.22
1.27 1.31 1.38 1.37 1.27 1.26 1.24 1.23 1.19 1.17 1.19 1.22 1.24 1.12 1.11 1.14 1.12 1.08 1.10 1.16 1.21 1.30 1.32 1.36 1.38 1.39 1.45 1.50 1.61 1.76 1.90 1.92 1.93 1.83 1.87 1.99 2.06 2.25 2.28 2.24 2.21 2.20 2.13
1.27 1.27 1.35 1.32 1.21 1.18 1.08 1.13 1.20 1.20 1.28 1.31 1.23 1.16 1.22 1.25 1.29 1.25 1.20 1.21 1.22 1.20 1.26 1.35 1.29 1.26 1.29 1.37 1.48 1.58 1.64 1.72 1.68 1.59 1.61 1.75 1.82 1.97 2.08 2.18 2.09 2.09 2.07
1.03 0.98 1.04 1.13 1.11 1.09 1.01 1.09 1.16 1.22 1.25 1.32 1.33 1.21 1.13 1.17 1.22 1.25 1.20 1.16 1.14 1.15 1.23 1.34 1.41 1.29 1.19 1.28 1.36 1.39 1.43 1.43 1.38 1.36 1.41 1.48 1.55 1.69 1.80 1.90 1.98 2.00 1.94
0.80 0.74 0.74 0.82 0.84 0.86 0.93 1.00 1.14 1.29 1.32 1.34 1.32 1.29 1.23 1.27 1.21 1.15 1.12 1.09 1.05 0.99 1.03 1.15 1.24 1.26 1.20 1.15 1.14 1.16 1.32 1.31 1.21 1.11 1.10 1.13 1.17 1.31 1.45 1.56 1.71 1.88 2.00
0.58 0.59 0.58 0.60 0.63 0.68 0.77 0.85 0.94 1.14 1.28 1.38 1.38 1.30 1.26 1.21 1.18 1.11 1.02 1.01 0.93 0.90 0.95 1.08 1.21 1.26 1.23 1.23 1.23 1.14 1.17 1.22 1.22 1.13 1.01 0.93 0.94 1.04 1.13 1.22 1.49 1.70 1.86
0.41 0.42 0.47 0.49 0.54 0.58 0.66 0.68 0.79 0.96 1.09 1.16 1.20 1.28 1.27 1.12 1.04 0.98 0.97 0.93 0.87 0.85 0.85 0.92 1.04 1.16 1.12 1.30 1.34 1.25 1.13 1.13 1.12 1.10 1.08 1.06 1.02 0.90 0.86 0.92 1.08 1.32 1.52
0.37 0.35 0.36 0.40 0.47 0.56 0.59 0.64 0.76 0.89 0.95 1.02 1.05 1.11 1.12 0.99 0.93 0.84 0.80 0.82 0.81 0.83 0.82 0.87 0.99 1.11 1.28 1.35 1.18 1.26 1.22 1.14 1.13 1.08 1.08 1.11 1.08 1.12 1.00 0.95 0.92 0.94 1.11
0.29 0.33 0.31 0.31 0.35 0.43 0.54 0.67 0.73 0.75 0.77 0.85 0.89 0.89 0.90 0.87 0.82 0.72 0.71 0.74 0.79 0.83 0.84 0.87 0.92 0.99 1.23 1.33 1.16 1.34 1.33 1.28 1.24 1.19 1.20 1.24 1.25 1.20 1.31 1.26 1.14 1.04 1.02
0.20 0.24 0.24 0.24 0.25 0.28 0.31 0.37 0.44 0.49 0.53 0.64 0.73 0.77 0.79 0.77 0.73 0.69 0.77 0.82 0.81 0.83 0.84 0.83 0.85 0.87 0.96 1.11 1.04 1.16 1.26 1.35 1.33 1.21 1.19 1.22 1.21 1.42 1.47 1.34 1.29 1.19 1.12
0.13 0.17 0.20 0.19 0.18 0.19 0.20 0.24 0.30 0.36 0.40 0.47 0.55 0.63 0.70 0.72 0.77 0.89 0.98 1.02 0.97 0.89 0.82 0.80 0.79 0.79 0.81 0.99 0.87 0.97 1.05 1.22 1.35 1.30 1.22 1.37 1.30 1.31 1.27 1.18 1.34 1.29 1.17
0.11 0.14 0.16 0.15 0.16 0.17 0.17 0.20 0.26 0.28 0.31 0.32 0.40 0.51 0.67 0.76 0.87 1.02 1.06 1.04 0.99 0.88 0.78 0.75 0.74 0.73 0.80 0.99 0.96 1.00 1.02 1.12 1.22 1.24 1.23 1.19 1.31 1.14 1.10 1.11 1.20 1.35 1.30
0.14 0.13 0.12 0.12 0.15 0.17 0.16 0.19 0.27 0.29 0.34 0.36 0.39 0.45 0.57 0.71 0.89 1.03 1.03 1.03 1.02 0.94 0.83 0.81 0.79 0.81 0.91 0.98 1.02 1.01 1.03 1.10 1.14 1.10 0.99 0.99 1.11 0.97 0.93 0.91 1.01 1.19 1.21
0.17 0.16 0.13 0.12 0.13 0.15 0.18 0.20 0.25 0.29 0.31 0.35 0.32 0.34 0.42 0.57 0.75 0.85 0.88 0.92 0.97 0.94 0.89 0.84 0.81 0.83 0.89 1.01 1.17 1.04 0.93 0.89 0.92 0.93 0.94 0.87 0.84 0.84 0.77 0.80 0.91 0.96 1.07
0.16 0.15 0.15 0.14 0.14 0.16 0.19 0.23 0.28 0.29 0.28 0.30 0.31 0.30 0.31 0.36 0.46 0.55 0.62 0.71 0.77 0.78 0.79 0.80 0.80 0.83 0.84 0.83 0.94 0.99 0.91 0.82 0.77 0.74 0.67 0.66 0.68 0.72 0.72 0.72 0.73 0.78 0.99
0.17 0.17 0.17 0.18 0.17 0.18 0.19 0.22 0.26 0.29 0.29 0.30 0.31 0.32 0.34 0.37 0.40 0.43 0.47 0.53 0.56 0.68 0.75 0.76 0.78 0.77 0.76 0.78 0.88 0.88 0.86 0.88 0.89 0.89 0.79 0.71 0.68 0.67 0.69 0.69 0.73 0.84 0.96
0.18 0.19 0.21 0.22 0.20 0.20 0.20 0.20 0.22 0.25 0.26 0.27 0.28 0.27 0.29 0.33 0.35 0.39 0.43 0.47 0.48 0.56 0.60 0.61 0.62 0.59 0.65 0.74 0.73 0.73 0.75 0.81 0.89 0.92 0.87 0.87 0.85 0.82 0.80 0.77 0.73 0.73 0.82

GEFSMW_prec_meanprecacc_300.txt.gz
Total_Precipitation_Accumulation
0.75 0.72 0.72 0.79 0.79 0.72 0.70 0.79 0.96 1.13 1.31 1.44 1.57 1.71 1.83 1.88 1.85 1.82 1.86 1.76 1.56 1.62 1.75 1.74 1.96 2.01 2.00 2.04 2.01 2.19 2.25 1.98 1.85 2.22 2.17 1.76 1.43 1.28 1.36 1.45 1.50 1.61 1.63
0.63 0.63 0.57 0.57 0.60 0.63 0.65 0.74 0.91 1.16 1.37 1.56 1.77 1.91 2.22 2.33 2.29 2.31 2.19 2.11 1.97 1.98 1.90 2.01 2.25 2.29 2.41 2.51 2.38 2.55 2.68 2.36 2.07 2.54 3.05 2.64 2.16 1.50 1.25 1.36 1.53 1.71 1.74
0.52 0.55 0.49 0.47 0.44 0.48 0.57 0.68 0.79 1.01 1.33 1.65 1.91 2.09 2.29 2.52 2.59 2.44 2.37 2.35 2.38 2.41 2.28 2.24 2.39 2.43 2.53 2.73 2.77 2.73 2.89 2.86 2.51 2.47 3.05 3.07 2.67 2.21 1.63 1.45 1.52 1.71 1.82
0.52 0.51 0.48 0.48 0.46 0.51 0.59 0.70 0.80 0.94 1.15 1.41 1.77 2.07 2.33 2.62 2.62 2.50 2.45 2.50 2.56 2.58 2.51 2.46 2.54 2.58 2.57 2.67 2.73 2.73 3.03 3.27 3.06 2.75 2.50 2.47 2.50 2.55 2.19 1.77 1.62 1.74 1.84
0.55 0.51 0.49 0.49 0.53 0.56 0.62 0.76 0.88 1.00 1.17 1.42 1.74 2.08 2.29 2.47 2.60 2.56 2.42 2.37 2.43 2.36 2.26 2.35 2.50 2.54 2.57 2.58 2.74 2.87 3.14 3.20 3.14 3.03 2.88 2.69 2.50 2.12 2.21 2.17 1.93 1.87 1.79
0.53 0.56 0.59 0.59 0.59 0.62 0.73 0.87 1.00 1.14 1.28 1.41 1.55 1.71 1.91 2.18 2.31 2.42 2.39 2.38 2.39 2.26 2.14 2.20 2.28 2.36 2.43 2.40 2.46 2.64 2.83 3.08 3.23 3.15 2.98 2.95 2.86 2.63 2.43 2.13 2.00 2.11 2.00
0.60 0.68 0.76 0.74 0.72 0.73 0.88 1.00 1.11 1.17 1.23 1.22 1.29 1.41 1.57 1.79 1.91 2.00 2.13 2.18 2.23 2.21 2.20 2.13 2.15 2.20 2.23 2.31 2.49 2.50 2.59 2.80 3.01 3.03 2.97 2.96 2.80 2.71 2.69 2.43 2.08 2.02 1.96
0.71 0.86 0.98 1.01 0.94 0.93 0.97 0.99 1.09 1.07 1.07 1.11 1.17 1.26 1.36 1.52 1.59 1.64 1.76 1.83 1.80 1.79 1.78 1.84 1.94 2.07 2.13 2.21 2.37 2.47 2.47 2.53 2.59 2.62 2.81 2.92 2.80 2.59 2.51 2.49 2.54 2.29 2.07
0.85 1.02 1.20 1.24 1.16 1.09 1.05 1.07 1.16 1.12 1.05 1.09 1.18 1.24 1.28 1.30 1.29 1.33 1.29 1.32 1.38 1.39 1.42 1.48 1.63 1.82 1.94 1.98 2.10 2.29 2.29 2.36 2.37 2.44 2.50 2.53 2.60 2.47 2.28 2.23 2.34 2.47 2.28
1.05 1.20 1.33 1.34 1.29 1.33 1.31 1.16 1.15 1.20 1.14 1.23 1.27 1.23 1.20 1.17 1.17 1.17 1.18 1.18 1.26 1.33 1.38 1.39 1.44 1.57 1.65 1.75 1.90 2.04 2.13 2.20 2.16 2.14 2.20 2.25 2.30 2.32 2.28 2.24 2.26 2.27 2.25
1.28 1.31 1.39 1.38 1.27 1.27 1.25 1.24 1.19 1.18 1.20 1.23 1.26 1.15 1.16 1.20 1.18 1.13 1.16 1.23 1.29 1.38 1.40 1.43 1.45 1.45 1.51 1.55 1.65 1.80 1.95 1.96 1.96 1.85 1.88 2.01 2.08 2.28 2.31 2.28 2.23 2.22 2.14
1.28 1.28 1.36 1.34 1.25 1.21 1.10 1.15 1.22 1.21 1.29 1.32 1.24 1.17 1.24 1.30 1.34 1.30 1.26 1.27 1.28 1.27 1.32 1.42 1.36 1.33 1.35 1.42 1.53 1.63 1.68 1.74 1.71 1.62 1.65 1.77 1.84 1.99 2.10 2.21 2.12 2.12 2.09
1.04 0.99 1.06 1.17 1.15 1.10 1.03 1.13 1.19 1.23 1.26 1.33 1.34 1.23 1.14 1.19 1.26 1.29 1.25 1.22 1.21 1.22 1.31 1.41 1.48 1.37 1.26 1.33 1.40 1.43 1.45 1.45 1.39 1.38 1.45 1.52 1.59 1.71 1.82 1.93 2.02 2.05 1.99
0.80 0.75 0.74 0.83 0.85 0.87 0.94 1.02 1.16 1.31 1.33 1.35 1.34 1.30 1.25 1.28 1.22 1.16 1.15 1.14 1.10 1.05 1.10 1.22 1.32 1.35 1.29 1.23 1.20 1.21 1.35 1.34 1.23 1.13 1.13 1.16 1.21 1.34 1.47 1.59 1.75 1.91 2.03
0.59 0.60 0.59 0.61 0.63 0.68 0.78 0.86 0.96 1.16 1.29 1.39 1.39 1.31 1.27 1.22 1.19 1.13 1.05 1.04 0.96 0.94 0.99 1.15 1.29 1.34 1.32 1.31 1.30 1.20 1.22 1.27 1.26 1.17 1.05 0.96 0.97 1.08 1.16 1.25 1.52 1.72 1.88
0.42 0.42 0.47 0.49 0.54 0.59 0.67 0.71 0.81 0.98 1.10 1.17 1.21 1.29 1.28 1.13 1.05 1.00 0.99 0.95 0.90 0.88 0.89 0.97 1.10 1.23 1.20 1.39 1.44 1.33 1.19 1.18 1.17 1.17 1.13 1.10 1.06 0.94 0.89 0.95 1.11 1.34 1.54
0.37 0.35 0.36 0.40 0.48 0.57 0.60 0.65 0.77 0.90 0.96 1.03 1.06 1.12 1.12 0.99 0.94 0.86 0.82 0.83 0.82 0.85 0.85 0.91 1.05 1.19 1.37 1.44 1.26 1.33 1.28 1.20 1.18 1.14 1.13 1.15 1.11 1.15 1.03 0.97 0.94 0.96 1.14
0.29 0.34 0.31 0.32 0.36 0.44 0.55 0.69 0.74 0.76 0.78 0.86 0.89 0.90 0.91 0.88 0.84 0.74 0.72 0.75 0.80 0.85 0.86 0.90 0.99 1.06 1.30 1.40 1.22 1.41 1.41 1.35 1.30 1.25 1.26 1.30 1.30 1.23 1.34 1.29 1.15 1.05 1.04
0.21 0.25 0.25 0.25 0.26 0.29 0.33 0.40 0.46 0.51 0.54 0.65 0.73 0.78 0.80 0.79 0.75 0.71 0.79 0.83 0.82 0.84 0.85 0.84 0.86 0.89 1.00 1.15 1.10 1.23 1.33 1.41 1.39 1.27 1.25 1.28 1.27 1.48 1.53 1.37 1.30 1.21 1.14
0.13 0.17 0.20 0.19 0.19 0.20 0.21 0.25 0.32 0.37 0.41 0.48 0.56 0.64 0.72 0.74 0.79 0.92 1.01 1.04 0.99 0.90 0.83 0.80 0.79 0.80 0.83 1.02 0.92 1.03 1.11 1.26 1.39 1.34 1.27 1.43 1.36 1.38 1.33 1.22 1.36 1.30 1.18
0.12 0.14 0.16 0.16 0.17 0.18 0.18 0.21 0.27 0.28 0.32 0.32 0.40 0.52 0.68 0.77 0.89 1.04 1.08 1.05 1.00 0.89 0.79 0.75 0.74 0.74 0.82 1.02 0.99 1.06 1.08 1.17 1.26 1.29 1.29 1.24 1.36 1.20 1.17 1.17 1.24 1.37 1.32
0.14 0.14 0.13 0.13 0.16 0.18 0.18 0.20 0.28 0.30 0.36 0.37 0.39 0.45 0.58 0.72 0.90 1.04 1.04 1.05 1.04 0.95 0.84 0.81 0.79 0.81 0.93 1.01 1.04 1.05 1.08 1.14 1.18 1.14 1.03 1.02 1.15 1.03 0.99 0.97 1.07 1.24 1.26
0.17 0.16 0.14 0.13 0.14 0.16 0.20 0.22 0.26 0.30 0.33 0.37 0.34 0.36 0.44 0.59 0.76 0.86 0.89 0.94 0.98 0.94 0.89 0.84 0.81 0.83 0.90 1.03 1.19 1.07 0.96 0.93 0.96 0.96 0.98 0.92 0.89 0.88 0.82 0.84 0.96 1.02 1.13
0.17 0.16 0.15 0.15 0.15 0.17 0.20 0.24 0.29 0.30 0.30 0.32 0.33 0.32 0.33 0.37 0.47 0.55 0.62 0.71 0.77 0.79 0.80 0.81 0.81 0.83 0.84 0.84 0.95 1.01 0.92 0.84 0.80 0.78 0.71 0.71 0.74 0.77 0.76 0.76 0.77 0.83 1.05
0.19 0.17 0.18 0.20 0.19 0.19 0.20 0.24 0.28 0.31 0.31 0.32 0.34 0.34 0.35 0.38 0.40 0.43 0.47 0.53 0.57 0.68 0.76 0.76 0.79 0.77 0.77 0.79 0.90 0.90 0.88 0.90 0.93 0.93 0.83 0.76 0.73 0.73 0.74 0.74 0.78 0.90 1.02
0.19 0.21 0.22 0.24 0.22 0.21 0.22 0.22 0.23 0.26 0.29 0.30 0.29 0.28 0.30 0.34 0.35 0.39 0.43 0.48 0.48 0.56 0.60 0.62 0.63 0.60 0.66 0.75 0.74 0.75 0.77 0.83 0.92 0.96 0.91 0.92 0.89 0.87 0.86 0.83 0.79 0.79 0.88

GEFSMW_prec_meanprecacc_306.txt.gz
Total_Precipitation_Accumulation
0.76 0.73 0.73 0.82 0.82 0.74 0.72 0.81 0.97 1.15 1.34 1.48 1.63 1.82 1.93 1.95 1.90 1.86 1.88 1.78 1.57 1.64 1.78 1.77 1.98 2.03 2.02 2.06 2.04 2.21 2.27 2.01 1.88 2.24 2.19 1.77 1.44 1.30 1.37 1.46 1.51 1.62 1.65
0.64 0.64 0.58 0.58 0.61 0.64 0.67 0.76 0.92 1.17 1.39 1.59 1.80 1.97 2.30 2.41 2.36 2.36 2.22 2.13 2.00 2.00 1.92 2.02 2.27 2.31 2.42 2.53 2.39 2.57 2.70 2.39 2.10 2.58 3.08 2.67 2.18 1.51 1.26 1.37 1.54 1.72 1.75
0.54 0.56 0.51 0.48 0.45 0.49 0.57 0.69 0.81 1.02 1.34 1.67 1.94 2.12 2.33 2.56 2.64 2.50 2.42 2.39 2.41 2.44 2.31 2.26 2.41 2.45 2.54 2.75 2.78 2.74 2.91 2.88 2.53 2.50 3.09 3.10 2.70 2.23 1.65 1.46 1.53 1.72 1.83
0.53 0.51 0.48 0.49 0.47 0.52 0.59 0.71 0.81 0.95 1.16 1.42 1.79 2.11 2.38 2.68 2.67 2.54 2.50 2.54 2.60 2.61 2.53 2.48 2.56 2.59 2.59 2.69 2.74 2.74 3.04 3.29 3.08 2.77 2.52 2.49 2.52 2.56 2.20 1.79 1.63 1.75 1.85
0.55 0.51 0.50 0.50 0.54 0.56 0.63 0.77 0.88 1.01 1.18 1.43 1.75 2.10 2.33 2.53 2.64 2.59 2.46 2.39 2.47 2.40 2.28 2.37 2.52 2.55 2.58 2.59 2.75 2.88 3.15 3.22 3.15 3.05 2.90 2.70 2.51 2.13 2.22 2.19 1.96 1.89 1.81
0.53 0.56 0.60 0.60 0.59 0.63 0.73 0.87 1.00 1.16 1.29 1.42 1.56 1.73 1.93 2.21 2.34 2.44 2.42 2.41 2.43 2.30 2.16 2.21 2.30 2.38 2.44 2.42 2.47 2.66 2.85 3.10 3.25 3.17 3.00 2.97 2.89 2.66 2.45 2.15 2.02 2.15 2.03
0.61 0.69 0.76 0.75 0.73 0.74 0.88 1.00 1.11 1.18 1.23 1.22 1.30 1.42 1.59 1.81 1.93 2.02 2.16 2.21 2.26 2.25 2.23 2.15 2.17 2.21 2.25 2.33 2.51 2.52 2.61 2.82 3.02 3.05 2.98 2.97 2.82 2.74 2.72 2.45 2.10 2.05 2.00
0.72 0.87 0.98 1.01 0.95 0.93 0.97 1.00 1.09 1.08 1.08 1.13 1.19 1.27 1.38 1.53 1.60 1.67 1.79 1.87 1.84 1.83 1.81 1.86 1.97 2.09 2.15 2.23 2.39 2.48 2.49 2.56 2.62 2.64 2.83 2.93 2.82 2.62 2.54 2.53 2.57 2.32 2.11
0.86 1.03 1.21 1.25 1.16 1.09 1.06 1.08 1.17 1.14 1.06 1.11 1.23 1.26 1.30 1.32 1.33 1.38 1.34 1.36 1.41 1.43 1.46 1.51 1.65 1.84 1.96 2.00 2.12 2.31 2.30 2.37 2.39 2.46 2.52 2.54 2.62 2.50 2.32 2.27 2.38 2.51 2.32
1.06 1.21 1.33 1.34 1.30 1.33 1.31 1.16 1.16 1.21 1.16 1.26 1.32 1.27 1.23 1.20 1.22 1.23 1.23 1.22 1.30 1.37 1.43 1.45 1.48 1.60 1.68 1.78 1.93 2.05 2.15 2.21 2.18 2.16 2.23 2.28 2.32 2.34 2.30 2.27 2.29 2.31 2.30
1.29 1.32 1.40 1.39 1.28 1.27 1.25 1.25 1.21 1.20 1.22 1.27 1.31 1.19 1.19 1.22 1.21 1.17 1.20 1.27 1.33 1.43 1.45 1.48 1.50 1.51 1.56 1.60 1.69 1.82 1.97 1.98 1.99 1.87 1.90 2.03 2.11 2.30 2.34 2.30 2.26 2.25 2.17
1.28 1.29 1.37 1.35 1.25 1.22 1.11 1.16 1.24 1.25 1.34 1.35 1.27 1.21 1.28 1.32 1.36 1.33 1.30 1.31 1.32 1.30 1.35 1.45 1.40 1.38 1.41 1.47 1.57 1.67 1.71 1.77 1.73 1.64 1.67 1.79 1.87 2.03 2.13 2.23 2.14 2.15 2.12
1.04 1.00 1.07 1.18 1.17 1.13 1.05 1.14 1.20 1.26 1.29 1.36 1.38 1.26 1.17 1.23 1.28 1.31 1.28 1.25 1.25 1.26 1.34 1.44 1.52 1.42 1.32 1.38 1.44 1.48 1.48 1.48 1.41 1.40 1.47 1.54 1.62 1.75 1.86 1.96 2.05 2.07 2.01
0.80 0.75 0.75 0.84 0.87 0.89 0.96 1.04 1.18 1.33 1.36 1.38 1.36 1.34 1.29 1.31 1.25 1.19 1.17 1.17 1.14 1.10 1.14 1.27 1.37 1.40 1.34 1.27 1.25 1.24 1.38 1.36 1.26 1.16 1.16 1.19 1.24 1.37 1.50 1.61 1.78 1.94 2.06
0.59 0.60 0.59 0.62 0.64 0.69 0.79 0.87 0.98 1.18 1.32 1.41 1.41 1.34 1.30 1.25 1.21 1.15 1.07 1.07 0.99 0.98 1.03 1.19 1.34 1.39 1.36 1.36 1.34 1.23 1.25 1.30 1.30 1.21 1.08 1.00 1.01 1.12 1.20 1.28 1.55 1.75 1.91
0.42 0.43 0.48 0.50 0.55 0.59 0.68 0.71 0.83 1.00 1.12 1.19 1.24 1.31 1.30 1.15 1.07 1.02 1.01 0.98 0.92 0.91 0.92 1.01 1.15 1.29 1.25 1.42 1.47 1.36 1.22 1.21 1.21 1.20 1.17 1.14 1.11 0.98 0.93 0.99 1.15 1.38 1.57
0.38 0.36 0.36 0.40 0.48 0.57 0.61 0.66 0.78 0.92 0.98 1.05 1.09 1.15 1.16 1.02 0.96 0.87 0.83 0.84 0.84 0.87 0.88 0.95 1.09 1.24 1.42 1.48 1.30 1.36 1.31 1.22 1.21 1.17 1.16 1.19 1.16 1.21 1.07 1.01 0.99 1.00 1.18
0.30 0.34 0.31 0.32 0.36 0.44 0.56 0.70 0.75 0.77 0.80 0.89 0.93 0.93 0.94 0.90 0.85 0.75 0.73 0.76 0.81 0.87 0.89 0.95 1.03 1.11 1.35 1.45 1.26 1.44 1.44 1.38 1.33 1.27 1.27 1.32 1.34 1.28 1.39 1.34 1.20 1.09 1.06
0.21 0.25 0.25 0.25 0.27 0.30 0.34 0.40 0.47 0.53 0.56 0.67 0.75 0.80 0.82 0.80 0.76 0.72 0.80 0.85 0.84 0.86 0.88 0.87 0.89 0.91 1.02 1.18 1.12 1.26 1.35 1.45 1.43 1.30 1.28 1.30 1.29 1.52 1.59 1.43 1.35 1.24 1.16
0.13 0.17 0.20 0.20 0.19 0.20 0.21 0.26 0.33 0.38 0.42 0.50 0.57 0.65 0.72 0.75 0.80 0.92 1.02 1.06 1.01 0.91 0.84 0.82 0.80 0.81 0.83 1.03 0.93 1.04 1.13 1.28 1.42 1.38 1.30 1.46 1.40 1.42 1.39 1.29 1.43 1.36 1.22
0.12 0.14 0.16 0.16 0.18 0.18 0.18 0.21 0.27 0.29 0.33 0.34 0.41 0.53 0.69 0.78 0.89 1.05 1.08 1.06 1.01 0.90 0.79 0.75 0.75 0.74 0.82 1.02 1.00 1.08 1.10 1.19 1.28 1.31 1.32 1.29 1.42 1.25 1.21 1.21 1.28 1.42 1.37
0.14 0.14 0.13 0.13 0.16 0.19 0.18 0.21 0.29 0.31 0.37 0.39 0.40 0.46 0.58 0.73 0.91 1.05 1.05 1.05 1.04 0.96 0.84 0.81 0.79 0.82 0.93 1.01 1.05 1.06 1.10 1.17 1.20 1.16 1.05 1.05 1.18 1.05 1.02 1.00 1.10 1.29 1.31
0.17 0.16 0.14 0.13 0.14 0.17 0.20 0.22 0.26 0.31 0.34 0.39 0.35 0.37 0.46 0.60 0.78 0.88 0.91 0.95 0.99 0.95 0.90 0.85 0.81 0.84 0.91 1.03 1.20 1.08 0.98 0.96 0.99 0.99 1.01 0.94 0.92 0.91 0.84 0.87 1.00 1.06 1.18
0.18 0.16 0.16 0.15 0.15 0.17 0.21 0.25 0.31 0.32 0.32 0.33 0.35 0.35 0.35 0.38 0.47 0.56 0.63 0.72 0.78 0.79 0.80 0.81 0.81 0.84 0.85 0.85 0.96 1.01 0.93 0.86 0.82 0.80 0.74 0.73 0.76 0.80 0.78 0.78 0.80 0.85 1.09
0.20 0.18 0.18 0.20 0.19 0.20 0.21 0.25 0.30 0.33 0.34 0.34 0.36 0.37 0.37 0.39 0.41 0.44 0.47 0.53 0.57 0.68 0.76 0.77 0.79 0.78 0.77 0.79 0.90 0.90 0.88 0.91 0.93 0.94 0.84 0.78 0.74 0.75 0.76 0.76 0.80 0.92 1.05
0.21 0.23 0.24 0.25 0.23 0.22 0.23 0.24 0.25 0.29 0.31 0.33 0.33 0.31 0.32 0.35 0.35 0.39 0.43 0.48 0.49 0.57 0.61 0.62 0.63 0.60 0.66 0.75 0.75 0.75 0.77 0.83 0.93 0.97 0.92 0.93 0.91 0.89 0.88 0.85 0.81 0.82 0.92

GEFSMW_prec_meanprecacc_312.txt.gz
Total_Precipitation_Accumulation
0.78 0.74 0.75 0.85 0.84 0.75 0.73 0.83 1.00 1.17 1.35 1.50 1.65 1.85 1.97 2.01 1.95 1.90 1.92 1.80 1.59 1.66 1.80 1.79 2.00 2.05 2.03 2.07 2.05 2.23 2.29 2.04 1.91 2.28 2.22 1.79 1.45 1.31 1.39 1.48 1.52 1.63 1.66
0.65 0.66 0.59 0.60 0.63 0.65 0.68 0.77 0.94 1.20 1.41 1.61 1.82 1.99 2.35 2.48 2.41 2.39 2.26 2.16 2.03 2.03 1.95 2.04 2.29 2.32 2.43 2.53 2.40 2.59 2.73 2.42 2.14 2.62 3.12 2.70 2.20 1.53 1.27 1.38 1.55 1.74 1.77
0.55 0.58 0.53 0.50 0.47 0.49 0.58 0.70 0.83 1.05 1.37 1.69 1.96 2.16 2.37 2.62 2.69 2.53 2.45 2.41 2.44 2.47 2.35 2.30 2.45 2.48 2.56 2.77 2.80 2.76 2.93 2.91 2.56 2.52 3.13 3.15 2.75 2.26 1.67 1.48 1.54 1.74 1.86
0.54 0.53 0.50 0.50 0.48 0.52 0.60 0.72 0.82 0.97 1.18 1.45 1.83 2.16 2.42 2.73 2.73 2.58 2.53 2.56 2.61 2.63 2.56 2.52 2.60 2.62 2.61 2.70 2.75 2.76 3.06 3.32 3.10 2.79 2.55 2.52 2.56 2.60 2.23 1.81 1.64 1.76 1.86
0.55 0.52 0.51 0.51 0.54 0.57 0.63 0.77 0.89 1.02 1.18 1.44 1.77 2.14 2.38 2.59 2.71 2.65 2.51 2.43 2.50 2.42 2.30 2.40 2.56 2.58 2.60 2.60 2.76 2.89 3.18 3.24 3.18 3.07 2.92 2.72 2.54 2.16 2.25 2.22 1.98 1.91 1.82
0.54 0.57 0.60 0.61 0.60 0.64 0.74 0.87 1.00 1.16 1.29 1.43 1.58 1.75 1.97 2.27 2.40 2.50 2.48 2.46 2.47 2.33 2.18 2.24 2.32 2.41 2.47 2.44 2.49 2.68 2.87 3.13 3.27 3.20 3.02 3.00 2.92 2.70 2.49 2.18 2.06 2.18 2.05
0.61 0.69 0.76 0.75 0.73 0.75 0.89 1.01 1.11 1.18 1.23 1.23 1.31 1.44 1.63 1.87 1.99 2.08 2.21 2.25 2.31 2.29 2.27 2.19 2.20 2.24 2.27 2.35 2.54 2.55 2.63 2.84 3.05 3.08 3.01 3.00 2.86 2.79 2.75 2.47 2.12 2.07 2.02
0.73 0.87 0.99 1.02 0.95 0.94 0.98 1.00 1.10 1.08 1.08 1.13 1.20 1.30 1.41 1.57 1.64 1.70 1.83 1.90 1.87 1.87 1.86 1.92 2.02 2.13 2.19 2.25 2.41 2.50 2.51 2.57 2.64 2.67 2.86 2.97 2.86 2.66 2.56 2.54 2.59 2.35 2.13
0.88 1.04 1.21 1.25 1.16 1.10 1.06 1.08 1.18 1.14 1.07 1.12 1.25 1.31 1.34 1.36 1.35 1.41 1.36 1.38 1.44 1.46 1.48 1.53 1.68 1.87 2.00 2.03 2.15 2.33 2.32 2.39 2.40 2.47 2.55 2.57 2.65 2.54 2.34 2.29 2.40 2.54 2.35
1.10 1.23 1.34 1.35 1.30 1.33 1.31 1.16 1.16 1.22 1.17 1.27 1.34 1.30 1.27 1.24 1.24 1.25 1.25 1.24 1.31 1.38 1.45 1.49 1.51 1.62 1.70 1.80 1.95 2.08 2.17 2.22 2.19 2.18 2.25 2.31 2.36 2.37 2.32 2.29 2.31 2.33 2.32
1.30 1.35 1.42 1.40 1.28 1.27 1.25 1.25 1.21 1.20 1.23 1.28 1.33 1.24 1.23 1.25 1.24 1.20 1.23 1.29 1.35 1.45 1.47 1.51 1.54 1.54 1.59 1.63 1.72 1.86 2.01 2.01 2.02 1.89 1.92 2.05 2.14 2.34 2.37 2.33 2.29 2.27 2.20
1.29 1.30 1.39 1.36 1.26 1.22 1.11 1.17 1.25 1.25 1.34 1.37 1.30 1.24 1.33 1.36 1.40 1.36 1.33 1.33 1.34 1.33 1.38 1.48 1.43 1.41 1.45 1.52 1.62 1.71 1.75 1.80 1.77 1.67 1.70 1.82 1.90 2.06 2.17 2.27 2.17 2.17 2.15
1.05 1.01 1.09 1.21 1.18 1.13 1.05 1.14 1.20 1.26 1.29 1.37 1.40 1.29 1.21 1.27 1.32 1.35 1.32 1.28 1.27 1.28 1.36 1.47 1.56 1.46 1.37 1.44 1.50 1.54 1.54 1.52 1.45 1.43 1.50 1.58 1.65 1.78 1.89 1.99 2.08 2.10 2.05
0.82 0.76 0.76 0.87 0.89 0.90 0.98 1.05 1.18 1.33 1.36 1.39 1.37 1.36 1.31 1.34 1.28 1.21 1.20 1.19 1.16 1.12 1.17 1.30 1.41 1.44 1.38 1.33 1.31 1.29 1.42 1.40 1.28 1.18 1.18 1.22 1.27 1.40 1.54 1.65 1.81 1.97 2.10
0.61 0.62 0.61 0.63 0.65 0.70 0.80 0.88 0.99 1.20 1.33 1.42 1.43 1.35 1.31 1.27 1.24 1.18 1.09 1.09 1.02 0.99 1.04 1.21 1.37 1.43 1.41 1.41 1.38 1.27 1.28 1.33 1.32 1.24 1.11 1.01 1.04 1.17 1.26 1.35 1.61 1.81 1.98
0.43 0.44 0.48 0.51 0.56 0.60 0.68 0.72 0.84 1.01 1.13 1.20 1.25 1.33 1.31 1.16 1.09 1.04 1.03 1.01 0.96 0.93 0.94 1.03 1.17 1.32 1.29 1.47 1.50 1.39 1.24 1.23 1.24 1.23 1.19 1.16 1.13 1.03 0.98 1.06 1.23 1.48 1.68
0.38 0.36 0.37 0.41 0.49 0.58 0.61 0.66 0.78 0.93 0.99 1.07 1.10 1.17 1.18 1.05 0.98 0.90 0.85 0.88 0.87 0.90 0.90 0.97 1.11 1.26 1.45 1.52 1.34 1.40 1.33 1.25 1.23 1.20 1.19 1.21 1.18 1.24 1.09 1.04 1.03 1.06 1.25
0.31 0.35 0.32 0.33 0.37 0.45 0.56 0.70 0.76 0.78 0.81 0.89 0.94 0.95 0.96 0.93 0.87 0.77 0.75 0.79 0.84 0.89 0.91 0.97 1.06 1.14 1.39 1.48 1.29 1.47 1.47 1.41 1.36 1.30 1.31 1.36 1.38 1.31 1.42 1.37 1.23 1.11 1.10
0.23 0.26 0.26 0.26 0.27 0.30 0.34 0.40 0.47 0.53 0.57 0.68 0.76 0.80 0.83 0.82 0.78 0.74 0.82 0.86 0.85 0.87 0.90 0.89 0.91 0.93 1.05 1.20 1.14 1.28 1.37 1.48 1.46 1.33 1.31 1.34 1.33 1.56 1.64 1.49 1.40 1.28 1.19
0.14 0.17 0.20 0.20 0.19 0.20 0.21 0.26 0.33 0.39 0.43 0.50 0.58 0.65 0.73 0.76 0.81 0.94 1.05 1.08 1.03 0.94 0.87 0.83 0.81 0.83 0.86 1.06 0.94 1.06 1.14 1.31 1.45 1.41 1.34 1.51 1.44 1.46 1.43 1.32 1.46 1.40 1.27
0.12 0.14 0.17 0.17 0.18 0.19 0.18 0.22 0.27 0.29 0.34 0.34 0.42 0.53 0.69 0.78 0.90 1.06 1.10 1.08 1.03 0.92 0.81 0.78 0.77 0.76 0.84 1.05 1.02 1.09 1.11 1.21 1.31 1.35 1.36 1.32 1.46 1.30 1.26 1.26 1.31 1.44 1.40
0.15 0.14 0.14 0.13 0.16 0.19 0.18 0.21 0.29 0.31 0.37 0.40 0.41 0.47 0.59 0.74 0.91 1.05 1.05 1.06 1.06 0.97 0.86 0.83 0.81 0.83 0.94 1.03 1.07 1.08 1.12 1.19 1.23 1.18 1.08 1.09 1.22 1.09 1.06 1.04 1.14 1.32 1.34
0.18 0.17 0.15 0.14 0.15 0.17 0.20 0.23 0.27 0.31 0.35 0.40 0.37 0.38 0.47 0.61 0.79 0.89 0.92 0.96 1.00 0.96 0.91 0.86 0.82 0.84 0.91 1.04 1.21 1.09 1.00 0.98 1.00 1.00 1.02 0.96 0.94 0.94 0.87 0.91 1.04 1.10 1.22
0.18 0.17 0.16 0.16 0.16 0.18 0.21 0.26 0.31 0.33 0.33 0.34 0.37 0.36 0.37 0.40 0.49 0.58 0.64 0.73 0.79 0.80 0.81 0.82 0.82 0.84 0.85 0.85 0.97 1.02 0.94 0.86 0.83 0.81 0.75 0.74 0.77 0.81 0.81 0.81 0.82 0.89 1.12
0.22 0.20 0.19 0.20 0.19 0.20 0.21 0.25 0.30 0.34 0.35 0.35 0.38 0.39 0.40 0.41 0.43 0.45 0.49 0.54 0.58 0.69 0.77 0.78 0.80 0.79 0.78 0.81 0.91 0.91 0.89 0.91 0.94 0.95 0.85 0.78 0.75 0.75 0.77 0.77 0.82 0.95 1.09
0.23 0.24 0.24 0.25 0.24 0.23 0.24 0.25 0.26 0.29 0.32 0.34 0.34 0.33 0.35 0.38 0.38 0.41 0.45 0.50 0.50 0.58 0.62 0.63 0.65 0.61 0.68 0.77 0.76 0.76 0.78 0.84 0.93 0.97 0.92 0.93 0.92 0.90 0.88 0.86 0.82 0.84 0.94

GEFSMW_prec_meanprecacc_318.txt.gz
Total_Precipitation_Accumulation
0.82 0.77 0.76 0.86 0.85 0.76 0.74 0.85 1.05 1.25 1.40 1.54 1.71 1.89 2.00 2.04 1.98 1.92 1.94 1.83 1.62 1.70 1.84 1.82 2.03 2.08 2.05 2.09 2.07 2.24 2.31 2.05 1.92 2.29 2.23 1.80 1.47 1.33 1.40 1.50 1.55 1.65 1.68
0.69 0.68 0.60 0.62 0.64 0.66 0.69 0.79 0.96 1.25 1.46 1.64 1.86 2.05 2.39 2.52 2.44 2.41 2.28 2.18 2.06 2.07 1.99 2.09 2.33 2.36 2.46 2.55 2.41 2.60 2.75 2.43 2.14 2.63 3.13 2.72 2.22 1.55 1.29 1.40 1.57 1.76 1.80
0.57 0.60 0.54 0.51 0.48 0.50 0.59 0.72 0.84 1.07 1.39 1.73 2.01 2.20 2.43 2.68 2.75 2.57 2.48 2.43 2.46 2.49 2.38 2.34 2.50 2.54 2.62 2.81 2.82 2.78 2.95 2.92 2.57 2.53 3.14 3.16 2.77 2.29 1.69 1.50 1.57 1.77 1.88
0.56 0.55 0.51 0.51 0.48 0.53 0.62 0.73 0.84 0.98 1.20 1.47 1.86 2.22 2.49 2.82 2.83 2.64 2.57 2.59 2.64 2.65 2.58 2.54 2.64 2.68 2.66 2.76 2.80 2.79 3.09 3.35 3.14 2.82 2.58 2.54 2.58 2.63 2.27 1.84 1.67 1.78 1.87
0.57 0.53 0.52 0.51 0.54 0.58 0.65 0.79 0.90 1.03 1.20 1.45 1.78 2.16 2.43 2.66 2.82 2.75 2.57 2.48 2.54 2.45 2.32 2.42 2.58 2.61 2.63 2.65 2.81 2.93 3.21 3.28 3.22 3.12 2.96 2.75 2.56 2.18 2.27 2.25 2.01 1.94 1.84
0.55 0.58 0.61 0.62 0.61 0.65 0.75 0.89 1.02 1.17 1.31 1.44 1.58 1.76 1.98 2.29 2.45 2.58 2.56 2.53 2.53 2.37 2.21 2.26 2.34 2.43 2.49 2.47 2.52 2.71 2.90 3.16 3.31 3.23 3.06 3.02 2.94 2.72 2.51 2.20 2.09 2.21 2.08
0.63 0.70 0.78 0.77 0.76 0.76 0.91 1.03 1.14 1.19 1.25 1.24 1.31 1.45 1.64 1.89 2.01 2.12 2.26 2.33 2.38 2.34 2.31 2.22 2.23 2.26 2.30 2.39 2.57 2.58 2.66 2.86 3.08 3.11 3.05 3.04 2.89 2.81 2.78 2.50 2.14 2.10 2.03
0.76 0.89 1.00 1.03 0.97 0.96 1.00 1.03 1.12 1.10 1.10 1.15 1.21 1.30 1.42 1.59 1.66 1.73 1.86 1.95 1.94 1.92 1.91 1.96 2.06 2.16 2.22 2.30 2.46 2.53 2.54 2.60 2.66 2.69 2.89 3.01 2.89 2.69 2.59 2.58 2.62 2.36 2.15
0.92 1.07 1.23 1.27 1.18 1.11 1.07 1.10 1.19 1.16 1.08 1.13 1.26 1.32 1.36 1.37 1.37 1.43 1.40 1.42 1.50 1.52 1.53 1.56 1.72 1.91 2.03 2.08 2.20 2.36 2.35 2.42 2.43 2.50 2.57 2.60 2.68 2.57 2.38 2.33 2.43 2.56 2.36
1.12 1.25 1.36 1.36 1.31 1.35 1.32 1.18 1.18 1.23 1.18 1.28 1.35 1.32 1.28 1.25 1.25 1.26 1.27 1.27 1.36 1.44 1.50 1.52 1.54 1.65 1.73 1.84 1.99 2.11 2.20 2.25 2.22 2.20 2.27 2.33 2.39 2.40 2.35 2.33 2.35 2.36 2.34
1.32 1.37 1.43 1.41 1.29 1.28 1.27 1.26 1.23 1.22 1.24 1.29 1.34 1.26 1.25 1.27 1.25 1.21 1.25 1.32 1.39 1.48 1.51 1.54 1.57 1.57 1.63 1.68 1.77 1.89 2.03 2.04 2.04 1.91 1.93 2.07 2.16 2.37 2.40 2.35 2.32 2.31 2.24
1.31 1.33 1.42 1.37 1.27 1.23 1.13 1.18 1.26 1.27 1.35 1.38 1.31 1.25 1.34 1.38 1.42 1.41 1.37 1.37 1.37 1.36 1.40 1.51 1.46 1.44 1.49 1.56 1.67 1.75 1.79 1.85 1.81 1.70 1.73 1.84 1.92 2.07 2.19 2.29 2.20 2.20 2.18
1.06 1.03 1.12 1.23 1.21 1.16 1.07 1.16 1.22 1.27 1.30 1.38 1.40 1.29 1.21 1.28 1.34 1.40 1.36 1.33 1.32 1.32 1.39 1.50 1.58 1.48 1.38 1.46 1.54 1.59 1.60 1.59 1.51 1.49 1.55 1.62 1.69 1.80 1.91 2.01 2.10 2.11 2.07
0.83 0.77 0.78 0.90 0.91 0.93 0.99 1.06 1.20 1.34 1.37 1.39 1.38 1.36 1.31 1.35 1.30 1.23 1.22 1.23 1.22 1.18 1.21 1.33 1.43 1.46 1.40 1.34 1.33 1.34 1.49 1.48 1.38 1.26 1.25 1.29 1.32 1.44 1.57 1.68 1.84 1.99 2.11
0.62 0.63 0.61 0.64 0.67 0.72 0.81 0.89 1.00 1.20 1.33 1.43 1.43 1.36 1.32 1.28 1.25 1.19 1.11 1.11 1.04 1.02 1.08 1.23 1.39 1.45 1.43 1.43 1.41 1.31 1.34 1.40 1.41 1.34 1.21 1.10 1.10 1.24 1.32 1.40 1.65 1.85 2.00
0.43 0.44 0.49 0.52 0.57 0.61 0.70 0.73 0.84 1.02 1.14 1.21 1.26 1.34 1.32 1.17 1.09 1.05 1.04 1.01 0.96 0.94 0.95 1.04 1.18 1.32 1.30 1.48 1.53 1.42 1.28 1.27 1.29 1.29 1.27 1.25 1.19 1.07 1.04 1.12 1.28 1.53 1.72
0.39 0.37 0.38 0.43 0.49 0.58 0.62 0.67 0.79 0.93 1.00 1.07 1.11 1.18 1.19 1.06 0.99 0.90 0.86 0.88 0.87 0.91 0.91 0.99 1.13 1.28 1.47 1.54 1.36 1.43 1.37 1.29 1.29 1.24 1.24 1.27 1.24 1.29 1.13 1.08 1.08 1.10 1.29
0.31 0.35 0.33 0.33 0.37 0.45 0.56 0.71 0.76 0.79 0.82 0.91 0.95 0.96 0.97 0.94 0.88 0.78 0.76 0.79 0.85 0.91 0.94 1.01 1.10 1.18 1.41 1.50 1.31 1.50 1.52 1.48 1.42 1.36 1.37 1.41 1.42 1.35 1.46 1.40 1.26 1.15 1.13
0.23 0.26 0.26 0.26 0.27 0.30 0.34 0.40 0.48 0.54 0.57 0.69 0.77 0.81 0.83 0.82 0.78 0.74 0.83 0.87 0.86 0.89 0.92 0.92 0.95 0.97 1.08 1.24 1.18 1.32 1.44 1.54 1.53 1.41 1.37 1.39 1.38 1.60 1.68 1.53 1.44 1.32 1.23
0.14 0.17 0.20 0.20 0.19 0.20 0.22 0.26 0.33 0.39 0.43 0.50 0.58 0.66 0.73 0.76 0.81 0.95 1.06 1.09 1.04 0.94 0.87 0.84 0.83 0.85 0.90 1.10 0.99 1.12 1.19 1.35 1.50 1.48 1.41 1.56 1.48 1.51 1.48 1.36 1.51 1.45 1.31
0.12 0.15 0.17 0.17 0.18 0.19 0.19 0.22 0.28 0.30 0.35 0.35 0.42 0.54 0.70 0.79 0.91 1.07 1.11 1.09 1.04 0.93 0.82 0.79 0.79 0.79 0.88 1.10 1.07 1.13 1.14 1.24 1.34 1.39 1.40 1.36 1.50 1.34 1.30 1.30 1.35 1.48 1.46
0.15 0.15 0.15 0.14 0.17 0.20 0.19 0.22 0.30 0.31 0.38 0.41 0.42 0.48 0.60 0.75 0.92 1.07 1.07 1.08 1.07 0.98 0.87 0.84 0.82 0.85 0.97 1.06 1.09 1.11 1.15 1.21 1.24 1.21 1.10 1.12 1.25 1.13 1.09 1.07 1.17 1.36 1.38
0.19 0.17 0.15 0.15 0.16 0.18 0.21 0.23 0.27 0.32 0.35 0.40 0.37 0.39 0.48 0.62 0.80 0.90 0.93 0.97 1.00 0.97 0.92 0.87 0.83 0.85 0.93 1.07 1.24 1.11 1.01 1.00 1.01 1.01 1.03 0.97 0.96 0.96 0.89 0.92 1.06 1.13 1.25
0.19 0.18 0.17 0.17 0.16 0.18 0.21 0.26 0.31 0.33 0.33 0.35 0.37 0.37 0.38 0.41 0.50 0.59 0.65 0.74 0.80 0.81 0.82 0.83 0.83 0.85 0.86 0.87 0.99 1.04 0.95 0.88 0.84 0.82 0.75 0.75 0.77 0.81 0.81 0.81 0.84 0.90 1.14
0.23 0.20 0.20 0.21 0.20 0.21 0.22 0.26 0.30 0.34 0.35 0.37 0.40 0.41 0.42 0.44 0.45 0.47 0.50 0.56 0.59 0.71 0.79 0.79 0.82 0.81 0.80 0.82 0.94 0.94 0.90 0.92 0.94 0.96 0.86 0.79 0.75 0.75 0.77 0.77 0.83 0.96 1.10
0.24 0.24 0.25 0.26 0.25 0.25 0.25 0.26 0.28 0.31 0.33 0.35 0.36 0.35 0.37 0.39 0.40 0.43 0.47 0.52 0.52 0.60 0.63 0.65 0.66 0.63 0.70 0.79 0.79 0.79 0.81 0.86 0.95 0.98 0.93 0.94 0.92 0.90 0.89 0.86 0.82 0.84 0.95

GEFSMW_prec_meanprecacc_324.txt.gz
Total_Precipitation_Accumulation
0.83 0.79 0.78 0.87 0.86 0.77 0.75 0.85 1.05 1.25 1.41 1.56 1.75 1.92 2.05 2.10 2.02 1.95 1.97 1.85 1.65 1.73 1.87 1.86 2.08 2.13 2.11 2.16 2.12 2.28 2.34 2.09 1.95 2.32 2.25 1.82 1.48 1.34 1.42 1.51 1.57 1.68 1.71
0.70 0.70 0.63 0.64 0.66 0.66 0.69 0.79 0.97 1.25 1.47 1.65 1.88 2.08 2.43 2.57 2.50 2.46 2.31 2.21 2.08 2.10 2.02 2.12 2.37 2.40 2.51 2.60 2.46 2.65 2.79 2.47 2.18 2.67 3.17 2.75 2.24 1.57 1.32 1.43 1.59 1.79 1.83
0.58 0.61 0.57 0.54 0.49 0.51 0.59 0.72 0.85 1.07 1.40 1.73 2.01 2.22 2.45 2.72 2.80 2.66 2.57 2.49 2.49 2.52 2.40 2.37 2.53 2.57 2.65 2.84 2.86 2.83 3.01 2.97 2.62 2.58 3.18 3.19 2.80 2.33 1.73 1.54 1.61 1.80 1.91
0.57 0.56 0.53 0.53 0.50 0.54 0.62 0.74 0.85 0.99 1.21 1.47 1.86 2.22 2.50 2.84 2.86 2.71 2.69 2.69 2.69 2.67 2.60 2.56 2.66 2.69 2.68 2.78 2.83 2.82 3.14 3.40 3.20 2.88 2.63 2.58 2.61 2.67 2.32 1.89 1.72 1.82 1.91
0.58 0.55 0.54 0.54 0.57 0.59 0.66 0.80 0.91 1.04 1.21 1.46 1.79 2.17 2.43 2.67 2.84 2.80 2.64 2.56 2.61 2.49 2.36 2.44 2.60 2.63 2.65 2.66 2.83 2.95 3.24 3.30 3.25 3.16 3.01 2.80 2.61 2.22 2.31 2.29 2.05 1.98 1.87
0.57 0.59 0.64 0.65 0.64 0.67 0.76 0.90 1.03 1.18 1.32 1.46 1.59 1.76 1.99 2.30 2.46 2.60 2.61 2.59 2.60 2.43 2.24 2.29 2.36 2.45 2.52 2.49 2.54 2.73 2.93 3.18 3.33 3.26 3.10 3.07 3.00 2.78 2.56 2.25 2.13 2.26 2.12
0.66 0.73 0.81 0.80 0.77 0.78 0.92 1.04 1.15 1.21 1.27 1.26 1.33 1.46 1.65 1.89 2.02 2.13 2.28 2.35 2.42 2.39 2.35 2.25 2.25 2.28 2.33 2.42 2.62 2.64 2.71 2.91 3.11 3.14 3.07 3.07 2.92 2.85 2.84 2.56 2.20 2.14 2.07
0.80 0.92 1.02 1.05 0.98 0.97 1.02 1.05 1.14 1.12 1.12 1.17 1.24 1.32 1.44 1.60 1.67 1.75 1.88 1.97 1.97 1.96 1.95 2.00 2.09 2.18 2.23 2.31 2.47 2.56 2.59 2.65 2.71 2.73 2.93 3.04 2.92 2.72 2.64 2.64 2.69 2.41 2.18
0.94 1.09 1.24 1.28 1.20 1.14 1.11 1.13 1.22 1.18 1.10 1.15 1.29 1.35 1.38 1.39 1.38 1.44 1.41 1.43 1.51 1.54 1.56 1.59 1.75 1.94 2.05 2.09 2.21 2.38 2.38 2.47 2.49 2.56 2.63 2.65 2.73 2.60 2.41 2.38 2.50 2.63 2.41
1.14 1.27 1.38 1.38 1.33 1.37 1.35 1.20 1.20 1.24 1.19 1.30 1.37 1.34 1.30 1.26 1.26 1.27 1.29 1.29 1.37 1.47 1.53 1.55 1.57 1.68 1.77 1.86 2.01 2.13 2.21 2.27 2.25 2.25 2.33 2.38 2.43 2.44 2.38 2.35 2.39 2.42 2.40
1.34 1.39 1.45 1.42 1.31 1.30 1.28 1.27 1.24 1.23 1.25 1.30 1.35 1.27 1.26 1.28 1.26 1.23 1.27 1.35 1.42 1.51 1.53 1.56 1.59 1.60 1.67 1.72 1.80 1.91 2.05 2.05 2.06 1.94 1.97 2.12 2.21 2.41 2.44 2.39 2.34 2.33 2.27
1.32 1.34 1.43 1.39 1.28 1.25 1.14 1.19 1.28 1.29 1.37 1.40 1.32 1.27 1.35 1.39 1.43 1.42 1.38 1.39 1.39 1.37 1.41 1.52 1.47 1.46 1.51 1.59 1.71 1.79 1.82 1.87 1.82 1.72 1.75 1.87 1.95 2.11 2.23 2.34 2.23 2.23 2.21
1.07 1.04 1.14 1.25 1.22 1.17 1.08 1.17 1.23 1.28 1.32 1.40 1.42 1.31 1.23 1.29 1.36 1.41 1.38 1.35 1.33 1.33 1.40 1.51 1.59 1.49 1.39 1.48 1.56 1.63 1.63 1.61 1.53 1.51 1.57 1.64 1.72 1.83 1.94 2.04 2.12 2.14 2.10
0.84 0.78 0.80 0.92 0.93 0.94 1.00 1.07 1.20 1.35 1.38 1.41 1.39 1.38 1.34 1.38 1.32 1.27 1.25 1.25 1.24 1.19 1.22 1.35 1.45 1.47 1.41 1.36 1.35 1.36 1.51 1.50 1.40 1.29 1.28 1.31 1.35 1.47 1.61 1.72 1.87 2.02 2.14
0.63 0.64 0.63 0.68 0.70 0.73 0.82 0.89 1.00 1.22 1.35 1.44 1.45 1.38 1.34 1.31 1.28 1.23 1.14 1.13 1.05 1.04 1.09 1.25 1.40 1.46 1.44 1.44 1.42 1.33 1.36 1.42 1.43 1.37 1.25 1.13 1.14 1.28 1.37 1.43 1.68 1.88 2.04
0.46 0.47 0.52 0.55 0.59 0.63 0.70 0.73 0.85 1.03 1.15 1.22 1.28 1.37 1.35 1.20 1.13 1.09 1.08 1.03 0.97 0.95 0.96 1.05 1.19 1.33 1.31 1.50 1.55 1.44 1.30 1.30 1.31 1.32 1.31 1.30 1.24 1.12 1.09 1.16 1.33 1.57 1.76
0.40 0.37 0.39 0.44 0.51 0.60 0.63 0.69 0.80 0.95 1.02 1.09 1.13 1.20 1.21 1.08 1.01 0.94 0.90 0.91 0.88 0.92 0.92 1.00 1.14 1.28 1.47 1.55 1.37 1.44 1.38 1.31 1.32 1.28 1.28 1.30 1.27 1.32 1.17 1.13 1.14 1.15 1.33
0.31 0.35 0.33 0.33 0.37 0.46 0.58 0.73 0.78 0.80 0.84 0.94 0.98 0.97 0.99 0.95 0.91 0.82 0.81 0.84 0.88 0.92 0.95 1.02 1.10 1.19 1.42 1.51 1.32 1.51 1.52 1.49 1.43 1.38 1.40 1.44 1.45 1.37 1.48 1.43 1.31 1.19 1.17
0.23 0.26 0.26 0.26 0.27 0.30 0.34 0.41 0.49 0.55 0.59 0.71 0.78 0.82 0.85 0.84 0.81 0.79 0.88 0.92 0.91 0.93 0.95 0.94 0.96 0.98 1.10 1.26 1.19 1.34 1.45 1.54 1.53 1.42 1.38 1.41 1.40 1.62 1.71 1.55 1.47 1.35 1.27
0.14 0.17 0.21 0.20 0.19 0.20 0.22 0.26 0.33 0.40 0.44 0.52 0.60 0.67 0.74 0.77 0.83 0.98 1.10 1.13 1.07 0.97 0.90 0.87 0.85 0.87 0.91 1.12 1.02 1.14 1.21 1.36 1.51 1.49 1.43 1.59 1.50 1.53 1.51 1.38 1.54 1.48 1.34
0.12 0.15 0.17 0.17 0.18 0.19 0.19 0.22 0.28 0.30 0.36 0.38 0.44 0.55 0.71 0.80 0.92 1.09 1.15 1.13 1.07 0.95 0.85 0.81 0.82 0.82 0.90 1.12 1.09 1.16 1.18 1.26 1.36 1.40 1.41 1.37 1.52 1.36 1.33 1.33 1.38 1.52 1.49
0.15 0.15 0.15 0.14 0.17 0.20 0.19 0.22 0.31 0.33 0.40 0.43 0.44 0.49 0.61 0.75 0.93 1.08 1.10 1.10 1.09 1.01 0.89 0.87 0.85 0.88 0.99 1.07 1.12 1.14 1.19 1.25 1.27 1.23 1.13 1.14 1.28 1.16 1.13 1.11 1.20 1.40 1.43
0.19 0.18 0.16 0.15 0.16 0.18 0.22 0.24 0.28 0.33 0.37 0.42 0.40 0.41 0.49 0.64 0.81 0.91 0.95 0.99 1.02 0.99 0.94 0.88 0.85 0.88 0.96 1.10 1.27 1.16 1.06 1.04 1.04 1.04 1.06 1.01 0.99 0.99 0.93 0.96 1.10 1.16 1.29
0.19 0.18 0.18 0.17 0.17 0.18 0.22 0.27 0.33 0.34 0.34 0.36 0.39 0.39 0.39 0.43 0.52 0.61 0.67 0.76 0.82 0.83 0.84 0.85 0.85 0.88 0.90 0.90 1.02 1.08 1.00 0.92 0.88 0.85 0.78 0.78 0.80 0.84 0.83 0.83 0.86 0.92 1.17
0.24 0.21 0.20 0.22 0.21 0.21 0.22 0.27 0.32 0.36 0.37 0.38 0.41 0.42 0.43 0.45 0.47 0.49 0.53 0.58 0.62 0.74 0.82 0.82 0.84 0.83 0.83 0.85 0.97 0.98 0.94 0.97 0.99 1.00 0.89 0.82 0.78 0.78 0.79 0.79 0.84 0.97 1.12
0.24 0.25 0.25 0.27 0.26 0.26 0.26 0.27 0.29 0.33 0.35 0.37 0.37 0.36 0.37 0.40 0.41 0.44 0.49 0.54 0.54 0.62 0.66 0.68 0.69 0.65 0.71 0.81 0.81 0.82 0.86 0.91 1.01 1.03 0.97 0.97 0.95 0.92 0.91 0.88 0.84 0.86 0.96

GEFSMW_prec_meanprecacc_330.txt.gz
Total_Precipitation_Accumulation
0.84 0.79 0.79 0.89 0.87 0.78 0.75 0.85 1.06 1.26 1.41 1.56 1.75 1.93 2.05 2.10 2.03 1.96 1.97 1.86 1.66 1.74 1.89 1.87 2.10 2.15 2.14 2.18 2.13 2.30 2.37 2.12 1.99 2.35 2.27 1.84 1.50 1.36 1.44 1.53 1.59 1.70 1.73
0.70 0.71 0.64 0.66 0.67 0.67 0.70 0.79 0.97 1.26 1.47 1.65 1.88 2.08 2.43 2.57 2.50 2.46 2.32 2.21 2.09 2.11 2.03 2.14 2.39 2.42 2.53 2.61 2.47 2.66 2.80 2.48 2.20 2.70 3.20 2.77 2.26 1.59 1.33 1.44 1.61 1.81 1.85
0.58 0.61 0.57 0.55 0.51 0.52 0.60 0.73 0.85 1.07 1.40 1.73 2.01 2.23 2.46 2.73 2.80 2.66 2.57 2.49 2.50 2.52 2.41 2.38 2.54 2.58 2.66 2.85 2.87 2.85 3.03 2.99 2.64 2.61 3.22 3.23 2.84 2.36 1.76 1.58 1.65 1.85 1.95
0.58 0.57 0.54 0.54 0.51 0.55 0.63 0.76 0.85 1.00 1.21 1.47 1.86 2.23 2.51 2.85 2.87 2.72 2.69 2.69 2.69 2.68 2.60 2.57 2.66 2.70 2.69 2.79 2.84 2.83 3.16 3.43 3.23 2.92 2.67 2.63 2.65 2.71 2.37 1.93 1.76 1.87 1.96
0.59 0.56 0.55 0.54 0.57 0.60 0.66 0.81 0.92 1.05 1.22 1.47 1.80 2.17 2.44 2.68 2.85 2.80 2.65 2.57 2.61 2.49 2.36 2.45 2.61 2.63 2.65 2.66 2.83 2.95 3.25 3.32 3.27 3.19 3.04 2.84 2.65 2.26 2.35 2.33 2.09 2.02 1.91
0.58 0.61 0.64 0.66 0.64 0.67 0.77 0.91 1.03 1.19 1.34 1.47 1.60 1.77 1.99 2.31 2.47 2.61 2.61 2.59 2.60 2.43 2.24 2.29 2.37 2.45 2.52 2.50 2.55 2.74 2.93 3.19 3.35 3.29 3.13 3.11 3.05 2.83 2.60 2.28 2.16 2.29 2.16
0.67 0.74 0.81 0.81 0.78 0.78 0.93 1.05 1.15 1.22 1.28 1.27 1.34 1.46 1.65 1.90 2.03 2.14 2.29 2.35 2.42 2.40 2.36 2.25 2.26 2.29 2.33 2.43 2.62 2.65 2.72 2.92 3.15 3.19 3.14 3.13 2.97 2.90 2.87 2.60 2.24 2.16 2.10
0.81 0.93 1.04 1.07 1.00 0.99 1.03 1.07 1.15 1.13 1.13 1.18 1.25 1.33 1.44 1.60 1.67 1.75 1.89 1.98 1.97 1.96 1.95 2.00 2.09 2.18 2.23 2.32 2.48 2.57 2.59 2.66 2.72 2.75 2.95 3.07 2.96 2.77 2.68 2.67 2.72 2.44 2.21
0.95 1.10 1.26 1.29 1.21 1.15 1.12 1.15 1.23 1.18 1.10 1.16 1.30 1.35 1.39 1.39 1.39 1.45 1.42 1.44 1.52 1.55 1.56 1.60 1.75 1.94 2.05 2.10 2.22 2.39 2.39 2.47 2.50 2.57 2.65 2.68 2.76 2.64 2.45 2.43 2.53 2.66 2.44
1.15 1.28 1.39 1.39 1.34 1.38 1.37 1.22 1.21 1.25 1.19 1.31 1.38 1.35 1.31 1.28 1.28 1.28 1.29 1.29 1.38 1.47 1.53 1.55 1.57 1.68 1.77 1.87 2.02 2.14 2.22 2.28 2.25 2.26 2.34 2.40 2.47 2.47 2.42 2.40 2.44 2.47 2.43
1.34 1.40 1.46 1.43 1.32 1.32 1.31 1.29 1.25 1.24 1.26 1.31 1.36 1.28 1.28 1.29 1.28 1.24 1.27 1.35 1.42 1.51 1.54 1.56 1.59 1.60 1.67 1.73 1.81 1.93 2.06 2.05 2.06 1.94 1.97 2.12 2.23 2.43 2.47 2.43 2.40 2.39 2.31
1.33 1.35 1.45 1.41 1.30 1.28 1.17 1.21 1.29 1.30 1.37 1.40 1.33 1.28 1.37 1.41 1.45 1.43 1.39 1.40 1.40 1.38 1.42 1.53 1.48 1.46 1.51 1.60 1.72 1.81 1.84 1.88 1.83 1.72 1.75 1.87 1.96 2.13 2.25 2.37 2.28 2.29 2.26
1.09 1.05 1.16 1.27 1.24 1.19 1.10 1.19 1.25 1.30 1.33 1.41 1.43 1.33 1.25 1.31 1.38 1.43 1.41 1.38 1.35 1.34 1.41 1.52 1.60 1.49 1.40 1.48 1.57 1.64 1.66 1.64 1.55 1.52 1.58 1.65 1.73 1.84 1.95 2.06 2.15 2.18 2.15
0.85 0.80 0.81 0.94 0.95 0.96 1.02 1.09 1.22 1.37 1.39 1.42 1.40 1.39 1.35 1.40 1.36 1.32 1.30 1.28 1.26 1.21 1.23 1.36 1.46 1.48 1.42 1.36 1.35 1.36 1.53 1.53 1.43 1.32 1.30 1.32 1.36 1.48 1.62 1.73 1.89 2.05 2.18
0.65 0.66 0.66 0.71 0.73 0.76 0.84 0.91 1.01 1.22 1.35 1.45 1.46 1.39 1.35 1.33 1.33 1.29 1.19 1.16 1.07 1.05 1.10 1.25 1.41 1.47 1.45 1.45 1.43 1.33 1.37 1.43 1.45 1.39 1.28 1.16 1.16 1.30 1.38 1.45 1.70 1.90 2.07
0.48 0.50 0.55 0.58 0.63 0.65 0.72 0.74 0.86 1.03 1.16 1.23 1.29 1.39 1.37 1.23 1.17 1.14 1.13 1.06 0.98 0.96 0.96 1.06 1.20 1.34 1.31 1.50 1.55 1.45 1.31 1.31 1.33 1.33 1.32 1.31 1.27 1.15 1.10 1.18 1.34 1.59 1.78
0.41 0.39 0.41 0.47 0.54 0.62 0.64 0.69 0.81 0.96 1.02 1.10 1.15 1.23 1.24 1.13 1.07 0.99 0.94 0.93 0.90 0.93 0.93 1.01 1.14 1.29 1.48 1.55 1.37 1.44 1.39 1.32 1.33 1.29 1.29 1.31 1.28 1.35 1.19 1.15 1.15 1.17 1.35
0.33 0.37 0.35 0.35 0.39 0.47 0.59 0.74 0.79 0.81 0.85 0.95 1.00 1.00 1.02 1.00 0.97 0.87 0.85 0.87 0.90 0.95 0.97 1.03 1.11 1.20 1.43 1.51 1.32 1.51 1.53 1.50 1.44 1.38 1.41 1.46 1.47 1.40 1.51 1.46 1.33 1.21 1.18
0.24 0.27 0.27 0.27 0.28 0.31 0.35 0.43 0.51 0.57 0.61 0.73 0.81 0.85 0.88 0.88 0.87 0.83 0.93 0.97 0.95 0.96 0.98 0.97 0.97 0.99 1.11 1.27 1.20 1.35 1.46 1.55 1.54 1.42 1.39 1.42 1.42 1.66 1.75 1.59 1.50 1.37 1.28
0.14 0.18 0.21 0.21 0.20 0.21 0.23 0.27 0.35 0.42 0.47 0.55 0.65 0.72 0.79 0.83 0.90 1.04 1.15 1.18 1.12 1.01 0.94 0.89 0.86 0.88 0.92 1.13 1.02 1.14 1.22 1.37 1.52 1.50 1.44 1.60 1.52 1.56 1.54 1.44 1.59 1.52 1.36
0.13 0.15 0.18 0.18 0.19 0.20 0.20 0.24 0.30 0.33 0.38 0.41 0.48 0.60 0.74 0.84 0.98 1.14 1.18 1.16 1.10 0.97 0.87 0.83 0.83 0.83 0.90 1.12 1.09 1.17 1.19 1.28 1.38 1.42 1.43 1.39 1.54 1.38 1.36 1.37 1.42 1.56 1.54
0.17 0.16 0.16 0.15 0.18 0.20 0.20 0.23 0.32 0.35 0.42 0.45 0.46 0.52 0.64 0.78 0.96 1.11 1.12 1.12 1.11 1.02 0.90 0.88 0.86 0.88 0.99 1.07 1.12 1.15 1.21 1.27 1.29 1.25 1.15 1.16 1.30 1.18 1.16 1.15 1.24 1.43 1.47
0.21 0.19 0.17 0.16 0.17 0.19 0.22 0.25 0.29 0.34 0.38 0.43 0.41 0.43 0.52 0.66 0.83 0.94 0.96 1.00 1.03 1.00 0.94 0.89 0.86 0.89 0.97 1.10 1.27 1.17 1.08 1.06 1.06 1.06 1.10 1.04 1.02 1.02 0.96 1.00 1.14 1.21 1.33
0.21 0.19 0.18 0.18 0.18 0.19 0.22 0.28 0.33 0.35 0.35 0.37 0.40 0.41 0.42 0.46 0.55 0.63 0.69 0.78 0.83 0.84 0.85 0.86 0.86 0.89 0.90 0.91 1.03 1.09 1.00 0.94 0.90 0.88 0.82 0.81 0.83 0.87 0.87 0.88 0.90 0.97 1.23
0.24 0.22 0.21 0.23 0.22 0.22 0.23 0.27 0.32 0.37 0.38 0.39 0.42 0.44 0.45 0.48 0.50 0.52 0.55 0.60 0.64 0.75 0.83 0.83 0.85 0.84 0.83 0.86 0.98 0.99 0.95 0.98 1.02 1.03 0.93 0.86 0.82 0.82 0.83 0.83 0.89 1.03 1.17
0.25 0.26 0.26 0.28 0.26 0.26 0.27 0.28 0.30 0.34 0.36 0.38 0.39 0.38 0.39 0.43 0.44 0.47 0.51 0.56 0.56 0.64 0.67 0.69 0.70 0.66 0.73 0.82 0.82 0.84 0.87 0.93 1.03 1.07 1.02 1.04 1.01 0.98 0.96 0.92 0.87 0.90 0.99

GEFSMW_prec_meanprecacc_336.txt.gz
Total_Precipitation_Accumulation
0.84 0.80 0.79 0.89 0.87 0.78 0.75 0.86 1.06 1.26 1.42 1.57 1.75 1.93 2.06 2.11 2.04 1.97 1.98 1.86 1.66 1.74 1.90 1.88 2.12 2.17 2.15 2.20 2.14 2.32 2.39 2.14 2.00 2.37 2.29 1.85 1.51 1.37 1.45 1.54 1.61 1.73 1.76
0.71 0.71 0.65 0.67 0.68 0.68 0.70 0.80 0.97 1.26 1.47 1.66 1.89 2.08 2.44 2.58 2.50 2.47 2.32 2.22 2.10 2.12 2.03 2.15 2.40 2.43 2.54 2.62 2.48 2.67 2.82 2.50 2.21 2.72 3.23 2.79 2.28 1.61 1.35 1.46 1.63 1.83 1.87
0.59 0.62 0.58 0.56 0.52 0.53 0.61 0.74 0.86 1.08 1.40 1.74 2.02 2.24 2.48 2.73 2.81 2.67 2.58 2.50 2.51 2.53 2.42 2.38 2.54 2.58 2.67 2.86 2.88 2.86 3.04 3.01 2.66 2.63 3.25 3.26 2.88 2.39 1.78 1.60 1.67 1.88 1.98
0.59 0.58 0.56 0.55 0.51 0.56 0.64 0.76 0.86 1.00 1.21 1.48 1.87 2.24 2.52 2.86 2.87 2.72 2.70 2.70 2.69 2.68 2.61 2.58 2.67 2.70 2.69 2.79 2.84 2.84 3.17 3.45 3.24 2.94 2.69 2.65 2.68 2.75 2.40 1.96 1.78 1.89 1.98
0.60 0.58 0.57 0.57 0.60 0.63 0.68 0.81 0.93 1.06 1.22 1.47 1.80 2.19 2.46 2.69 2.86 2.81 2.65 2.58 2.62 2.50 2.37 2.45 2.61 2.63 2.65 2.67 2.83 2.96 3.25 3.33 3.29 3.20 3.05 2.86 2.67 2.29 2.38 2.36 2.11 2.03 1.93
0.59 0.62 0.67 0.68 0.66 0.70 0.80 0.92 1.05 1.21 1.34 1.47 1.61 1.78 2.00 2.32 2.48 2.62 2.62 2.60 2.61 2.43 2.25 2.29 2.37 2.46 2.52 2.50 2.55 2.75 2.94 3.21 3.36 3.30 3.14 3.12 3.06 2.84 2.62 2.30 2.19 2.31 2.17
0.68 0.76 0.84 0.84 0.81 0.81 0.95 1.07 1.17 1.23 1.28 1.28 1.34 1.47 1.66 1.90 2.03 2.14 2.29 2.36 2.43 2.40 2.36 2.26 2.26 2.29 2.34 2.44 2.64 2.65 2.72 2.93 3.16 3.20 3.15 3.14 2.98 2.91 2.88 2.62 2.26 2.18 2.11
0.82 0.95 1.07 1.11 1.05 1.02 1.06 1.10 1.19 1.15 1.14 1.19 1.25 1.33 1.45 1.61 1.68 1.76 1.90 1.99 1.98 1.96 1.95 2.00 2.09 2.18 2.23 2.32 2.48 2.57 2.60 2.66 2.73 2.76 2.97 3.09 2.98 2.78 2.69 2.69 2.74 2.47 2.23
0.95 1.12 1.29 1.33 1.24 1.18 1.16 1.20 1.28 1.22 1.12 1.17 1.31 1.36 1.39 1.40 1.41 1.48 1.45 1.46 1.53 1.55 1.56 1.60 1.75 1.94 2.05 2.10 2.22 2.39 2.39 2.47 2.50 2.57 2.66 2.69 2.77 2.65 2.47 2.44 2.56 2.68 2.47
1.16 1.31 1.42 1.41 1.36 1.40 1.39 1.25 1.24 1.28 1.22 1.33 1.39 1.37 1.33 1.30 1.30 1.31 1.33 1.31 1.39 1.48 1.54 1.56 1.57 1.69 1.77 1.87 2.02 2.14 2.22 2.28 2.25 2.26 2.34 2.41 2.48 2.48 2.43 2.41 2.46 2.49 2.46
1.35 1.41 1.48 1.45 1.34 1.33 1.33 1.32 1.29 1.27 1.29 1.34 1.39 1.31 1.30 1.31 1.30 1.27 1.31 1.37 1.43 1.52 1.55 1.58 1.60 1.61 1.68 1.73 1.82 1.93 2.06 2.06 2.06 1.94 1.98 2.13 2.24 2.45 2.48 2.45 2.43 2.42 2.34
1.33 1.35 1.45 1.41 1.31 1.28 1.18 1.22 1.31 1.32 1.40 1.42 1.35 1.31 1.39 1.43 1.47 1.46 1.42 1.42 1.41 1.39 1.44 1.54 1.50 1.48 1.53 1.61 1.72 1.82 1.84 1.88 1.83 1.73 1.76 1.88 1.97 2.14 2.27 2.39 2.30 2.32 2.29
1.10 1.06 1.16 1.28 1.25 1.20 1.11 1.20 1.26 1.31 1.34 1.42 1.44 1.34 1.26 1.33 1.40 1.45 1.43 1.41 1.39 1.37 1.44 1.54 1.62 1.51 1.42 1.49 1.57 1.65 1.67 1.64 1.55 1.52 1.58 1.66 1.74 1.85 1.97 2.08 2.17 2.21 2.19
0.86 0.81 0.83 0.95 0.96 0.97 1.04 1.11 1.24 1.39 1.42 1.44 1.42 1.40 1.37 1.42 1.38 1.34 1.32 1.32 1.31 1.26 1.27 1.39 1.48 1.50 1.44 1.38 1.36 1.37 1.54 1.54 1.44 1.32 1.30 1.33 1.37 1.49 1.63 1.75 1.91 2.07 2.21
0.67 0.68 0.69 0.73 0.75 0.77 0.86 0.92 1.03 1.24 1.38 1.47 1.48 1.41 1.37 1.35 1.35 1.31 1.21 1.18 1.10 1.08 1.14 1.29 1.44 1.49 1.46 1.47 1.44 1.34 1.37 1.44 1.46 1.40 1.28 1.17 1.17 1.31 1.40 1.46 1.72 1.93 2.09
0.52 0.53 0.58 0.61 0.66 0.67 0.74 0.76 0.87 1.04 1.17 1.23 1.30 1.40 1.39 1.25 1.19 1.16 1.15 1.08 1.01 0.99 0.99 1.08 1.21 1.36 1.33 1.52 1.57 1.46 1.31 1.32 1.34 1.34 1.33 1.32 1.28 1.16 1.12 1.19 1.36 1.61 1.80
0.45 0.43 0.45 0.51 0.58 0.65 0.67 0.72 0.83 0.96 1.03 1.11 1.16 1.24 1.25 1.15 1.08 1.01 0.97 0.96 0.93 0.96 0.96 1.03 1.16 1.29 1.49 1.57 1.39 1.46 1.40 1.33 1.34 1.30 1.30 1.32 1.29 1.36 1.21 1.17 1.17 1.18 1.37
0.35 0.40 0.39 0.41 0.45 0.53 0.64 0.78 0.82 0.84 0.87 0.97 1.01 1.00 1.02 1.02 0.99 0.89 0.87 0.89 0.92 0.96 0.99 1.06 1.14 1.22 1.45 1.53 1.34 1.53 1.54 1.51 1.44 1.39 1.42 1.46 1.48 1.41 1.52 1.48 1.35 1.23 1.20
0.26 0.31 0.32 0.34 0.36 0.39 0.43 0.48 0.53 0.59 0.63 0.75 0.83 0.87 0.88 0.89 0.88 0.85 0.94 0.98 0.96 0.98 0.99 0.98 1.00 1.02 1.14 1.29 1.22 1.36 1.47 1.56 1.55 1.43 1.40 1.43 1.43 1.68 1.78 1.61 1.52 1.40 1.30
0.16 0.19 0.23 0.24 0.25 0.28 0.30 0.34 0.39 0.45 0.49 0.58 0.68 0.77 0.81 0.84 0.91 1.06 1.16 1.19 1.12 1.03 0.95 0.92 0.89 0.90 0.94 1.15 1.04 1.16 1.23 1.38 1.53 1.50 1.44 1.61 1.53 1.57 1.56 1.46 1.62 1.54 1.38
0.14 0.17 0.19 0.20 0.22 0.24 0.25 0.29 0.34 0.36 0.40 0.42 0.51 0.66 0.80 0.87 1.00 1.16 1.21 1.18 1.12 1.01 0.90 0.87 0.86 0.84 0.91 1.14 1.12 1.19 1.20 1.29 1.39 1.43 1.43 1.40 1.55 1.40 1.38 1.39 1.45 1.59 1.57
0.19 0.19 0.19 0.18 0.21 0.24 0.24 0.27 0.35 0.37 0.43 0.46 0.48 0.55 0.68 0.80 0.98 1.13 1.14 1.15 1.14 1.05 0.93 0.91 0.89 0.91 1.01 1.09 1.14 1.17 1.23 1.29 1.30 1.26 1.15 1.16 1.31 1.20 1.18 1.17 1.27 1.46 1.50
0.23 0.22 0.20 0.19 0.19 0.22 0.26 0.28 0.31 0.36 0.40 0.44 0.43 0.45 0.54 0.68 0.85 0.95 0.98 1.01 1.05 1.02 0.96 0.91 0.88 0.91 0.99 1.12 1.29 1.18 1.09 1.08 1.08 1.07 1.11 1.05 1.04 1.04 0.97 1.02 1.16 1.23 1.37
0.22 0.20 0.20 0.20 0.20 0.23 0.25 0.29 0.35 0.37 0.37 0.39 0.42 0.43 0.43 0.47 0.57 0.65 0.71 0.79 0.85 0.86 0.86 0.88 0.88 0.91 0.92 0.93 1.05 1.10 1.02 0.95 0.92 0.89 0.83 0.83 0.86 0.88 0.88 0.89 0.91 1.00 1.27
0.25 0.24 0.23 0.24 0.23 0.24 0.25 0.28 0.34 0.38 0.40 0.41 0.44 0.46 0.47 0.50 0.52 0.55 0.57 0.63 0.66 0.77 0.86 0.86 0.87 0.86 0.86 0.88 1.00 1.01 0.97 1.00 1.03 1.05 0.95 0.89 0.84 0.84 0.85 0.85 0.91 1.06 1.21
0.26 0.27 0.28 0.29 0.28 0.27 0.28 0.29 0.31 0.35 0.38 0.39 0.40 0.39 0.41 0.46 0.47 0.50 0.54 0.60 0.60 0.68 0.72 0.73 0.73 0.69 0.76 0.85 0.84 0.86 0.89 0.95 1.06 1.10 1.05 1.06 1.03 1.00 0.99 0.95 0.91 0.94 1.03